[[{"header":{"parameterUnit":"m.s-1","parameterCategory":1,"la1":30.6,"la2":28.766,"lo1":-90.7593,"lo2":-88.6598,"dy":0.0162,"dx":0.0183,"nx":116,"ny":114,"refTime":"2023-07-31T12:00:00:Z","depth":0,"parameterNumber":2,"parameterNumberName":"U-component_of_WINDS"},"data":[0.0,0.0,0.0,0.0,0.0,0.0,0.0,0.0,0.0,0.0,0.0,0.0,0.0,0.0,0.0,0.0,0.0,0.0,0.0,0.0,0.0,0.0,0.0,0.0,0.0,0.0,0.0,0.0,0.0,0.0,0.0,0.0,0.0,0.0,0.0,0.0,0.0,0.0,0.0,0.0,0.0,0.0,0.0,0.0,0.0,0.0,0.0,0.0,0.0,0.0,0.0,0.0,0.0,0.0,0.0,0.0,0.0,0.0,0.0,0.0,0.0,0.0,0.0,0.0,0.0,0.0,0.0,0.0,0.0,0.0,0.0,0.0,0.0,0.0,0.0,0.0,0.0,0.0,0.0,0.0,0.0,0.0,0.0,0.0,0.0,0.0,0.0,0.0,0.0,0.0,0.0,0.0,0.0,0.0,0.0,0.0,0.0,0.0,0.0,0.0,0.0,0.0,0.0,0.0,0.0,0.0,0.0,0.0,0.0,0.0,0.0,0.0,0.0,0.0,0.0,0.0,0.0,0.0,0.0,0.0,0.0,0.0,0.0,0.0,0.0,0.0,0.0,0.0,0.0,0.0,0.0,0.0,0.0,0.0,0.0,0.0,0.0,0.0,0.0,0.0,0.0,0.0,0.0,0.0,0.0,0.0,0.0,0.0,0.0,0.0,0.0,0.0,0.0,0.0,0.0,0.0,0.0,0.0,0.0,0.0,0.0,0.0,0.0,0.0,0.0,0.0,0.0,0.0,0.0,0.0,0.0,0.0,0.0,0.0,0.0,0.0,0.0,0.0,0.0,0.0,0.0,0.0,0.0,0.0,0.0,0.0,0.0,0.0,0.0,0.0,0.0,0.0,0.0,0.0,0.0,0.0,0.0,0.0,0.0,0.0,0.0,0.0,0.0,0.0,0.0,0.0,0.0,0.0,0.0,0.0,0.0,0.0,0.0,0.0,0.0,0.0,0.0,0.0,0.0,0.0,0.0,0.0,0.0,0.0,0.0,0.0,0.0,0.0,0.0,0.0,0.0,0.0,0.0,0.0,0.0,0.0,0.0,0.0,0.0,0.0,0.0,0.0,0.0,0.0,0.0,0.0,0.0,0.0,0.0,0.0,0.0,0.0,0.0,0.0,0.0,0.0,0.0,0.0,0.0,0.0,0.0,0.0,0.0,0.0,0.0,0.0,0.0,0.0,0.0,0.0,0.0,0.0,0.0,0.0,0.0,0.0,0.0,0.0,0.0,0.0,0.0,0.0,0.0,0.0,0.0,0.0,0.0,0.0,0.0,0.0,0.0,0.0,0.0,0.0,0.0,0.0,0.0,0.0,0.0,0.0,0.0,0.0,0.0,0.0,0.0,0.0,0.0,0.0,0.0,0.0,0.0,0.0,0.0,0.0,0.0,0.0,0.0,0.0,0.0,0.0,0.0,0.0,0.0,0.0,0.0,0.0,0.0,0.0,0.0,0.0,0.0,0.0,0.0,0.0,0.0,0.0,0.0,0.0,0.0,0.0,0.0,0.0,0.0,0.0,0.0,0.0,0.0,0.0,0.0,0.0,0.0,0.0,0.0,0.0,0.0,0.0,0.0,0.0,0.0,0.0,0.0,0.0,0.0,0.0,0.0,0.0,0.0,0.0,0.0,0.0,0.0,0.0,0.0,0.0,0.0,0.0,0.0,0.0,0.0,0.0,0.0,0.0,0.0,0.0,0.0,0.0,0.0,0.0,0.0,0.0,0.0,0.0,0.0,0.0,0.0,0.0,0.0,0.0,0.0,0.0,0.0,0.0,0.0,0.0,0.0,0.0,0.0,0.0,0.0,0.0,0.0,0.0,0.0,0.0,0.0,0.0,0.0,0.0,0.0,0.0,0.0,0.0,0.0,0.0,0.0,0.0,0.0,0.0,0.0,0.0,0.0,0.0,0.0,0.0,0.0,0.0,0.0,0.0,0.0,0.0,0.0,0.0,0.0,0.0,0.0,0.0,0.0,0.0,0.0,0.0,0.0,0.0,0.0,0.0,0.0,0.0,0.0,0.0,0.0,0.0,0.0,0.0,0.0,0.0,0.0,0.0,0.0,0.0,0.0,0.0,0.0,0.0,0.0,0.0,0.0,0.0,0.0,0.0,0.0,0.0,0.0,0.0,0.0,0.0,0.0,0.0,0.0,0.0,0.0,0.0,0.0,0.0,0.0,0.0,0.0,0.0,0.0,0.0,0.0,0.0,0.0,0.0,0.0,0.0,0.0,0.0,0.0,0.0,0.0,0.0,0.0,0.0,0.0,0.0,0.0,0.0,0.0,0.0,0.0,0.0,0.0,0.0,0.0,0.0,0.0,0.0,0.0,0.0,0.0,0.0,0.0,0.0,0.0,0.0,0.0,0.0,0.0,0.0,0.0,0.0,0.0,0.0,0.0,0.0,0.0,0.0,0.0,0.0,0.0,0.0,0.0,0.0,0.0,0.0,0.0,0.0,0.0,0.0,0.0,0.0,0.0,0.0,0.0,0.0,0.0,0.0,0.0,0.0,0.0,0.0,0.0,0.0,0.0,0.0,0.0,0.0,0.0,0.0,0.0,0.0,0.0,0.0,0.0,0.0,0.0,0.0,0.0,0.0,0.0,0.0,0.0,0.0,0.0,0.0,0.0,0.0,0.0,0.0,0.0,0.0,0.0,0.0,0.0,0.0,0.0,0.0,0.0,0.0,0.0,0.0,0.0,0.0,0.0,0.0,0.0,0.0,0.0,0.0,0.0,0.0,0.0,0.0,0.0,0.0,0.0,0.0,0.0,0.0,0.0,0.0,0.0,0.0,0.0,0.0,0.0,0.0,0.0,0.0,0.0,0.0,0.0,0.0,0.0,0.0,0.0,0.0,0.0,0.0,0.0,0.0,0.0,0.0,0.0,0.0,0.0,0.0,0.0,0.0,0.0,0.0,0.0,0.0,0.0,0.0,0.0,0.0,0.0,0.0,0.0,0.0,0.0,0.0,0.0,0.0,0.0,0.0,0.0,0.0,0.0,0.0,0.0,0.0,0.0,0.0,0.0,0.0,0.0,0.0,0.0,0.0,0.0,0.0,0.0,0.0,0.0,0.0,0.0,0.0,0.0,0.0,0.0,0.0,0.0,0.0,0.0,0.0,0.0,0.0,0.0,0.0,0.0,0.0,0.0,0.0,0.0,0.0,0.0,0.0,0.0,0.0,0.0,0.0,0.0,0.0,0.0,0.0,0.0,0.0,0.0,0.0,0.0,0.0,0.0,0.0,0.0,0.0,0.0,0.0,0.0,0.0,0.0,0.0,0.0,0.0,0.0,0.0,0.0,0.0,0.0,0.0,0.0,0.0,0.0,0.0,0.0,0.0,0.0,0.0,0.0,0.0,0.0,0.0,0.0,0.0,0.0,0.0,0.0,0.0,0.0,0.0,0.0,0.0,0.0,0.0,0.0,0.0,0.0,0.0,0.0,0.0,0.0,0.0,0.0,0.0,0.0,0.0,0.0,0.0,0.0,0.0,0.0,0.0,0.0,0.0,0.0,0.0,0.0,0.0,0.0,0.0,0.0,0.0,0.0,0.0,0.0,0.0,0.0,0.0,0.0,0.0,0.0,0.0,0.0,0.0,0.0,0.0,0.0,0.0,0.0,0.0,0.0,0.0,0.0,0.0,0.0,0.0,0.0,0.0,0.0,0.0,0.0,0.0,0.0,0.0,0.0,0.0,0.0,0.0,0.0,0.0,0.0,0.0,0.0,0.0,0.0,0.0,0.0,0.0,0.0,0.0,0.0,0.0,0.0,0.0,0.0,0.0,0.0,0.0,0.0,0.0,0.0,0.0,0.0,0.0,0.0,0.0,0.0,0.0,0.0,0.0,0.0,0.0,0.0,0.0,0.0,0.0,0.0,0.0,0.0,0.0,0.0,0.0,0.0,0.0,0.0,0.0,0.0,0.0,0.0,0.0,0.0,0.0,0.0,0.0,0.0,0.0,0.0,0.0,0.0,0.0,0.0,0.0,0.0,0.0,0.0,0.0,0.0,0.0,0.0,0.0,0.0,0.0,0.0,0.0,0.0,0.0,0.0,0.0,0.0,0.0,0.0,0.0,0.0,0.0,0.0,0.0,0.0,0.0,0.0,0.0,0.0,0.0,0.0,0.0,0.0,0.0,0.0,0.0,0.0,0.0,0.0,0.0,0.0,0.0,0.0,0.0,0.0,0.0,0.0,0.0,0.0,0.0,0.0,0.0,0.0,0.0,0.0,0.0,0.0,0.0,0.0,0.0,0.0,0.0,0.0,0.0,0.0,0.0,0.0,0.0,0.0,0.0,0.0,0.0,0.0,0.0,0.0,0.0,0.0,0.0,0.0,0.0,0.0,0.0,0.0,0.0,0.0,0.0,0.0,0.0,0.0,0.0,0.0,0.0,0.0,0.0,0.0,0.0,0.0,0.0,0.0,0.0,0.0,0.0,0.0,0.0,0.0,0.0,0.0,0.0,0.0,0.0,0.0,0.0,0.0,0.0,0.0,0.0,0.0,0.0,0.0,0.0,0.0,0.0,0.0,0.0,0.0,0.0,0.0,0.0,0.0,0.0,0.0,0.0,0.0,0.0,0.0,0.0,0.0,0.0,0.0,0.0,0.0,0.0,0.0,0.0,0.0,0.0,0.0,0.0,0.0,0.0,0.0,0.0,0.0,0.0,0.0,0.0,0.0,0.0,0.0,0.0,0.0,0.0,0.0,0.0,0.0,0.0,0.0,0.0,0.0,0.0,0.0,0.0,0.0,0.0,0.0,0.0,0.0,0.0,0.0,0.0,0.0,0.0,0.0,0.0,0.0,0.0,0.0,0.0,0.0,0.0,0.0,0.0,0.0,0.0,0.0,0.0,0.0,0.0,0.0,0.0,0.0,0.0,0.0,0.0,0.0,0.0,0.0,0.0,0.0,0.0,0.0,0.0,0.0,0.0,0.0,0.0,0.0,0.0,0.0,0.0,0.0,0.0,0.0,0.0,0.0,0.0,0.0,0.0,0.0,0.0,0.0,0.0,0.0,0.0,0.0,0.0,0.0,0.0,0.0,0.0,0.0,0.0,0.0,0.0,0.0,0.0,0.0,0.0,0.0,0.0,0.0,0.0,0.0,0.0,0.0,0.0,0.0,0.0,0.0,0.0,0.0,0.0,0.0,0.0,0.0,0.0,0.0,0.0,0.0,0.0,0.0,0.0,0.0,0.0,0.0,0.0,0.0,0.0,0.0,0.0,0.0,0.0,0.0,0.0,0.0,0.0,0.0,0.0,0.0,0.0,0.0,0.0,0.0,0.0,0.0,0.0,0.0,0.0,0.0,0.0,0.0,0.0,0.0,0.0,0.0,0.0,0.0,0.0,0.0,0.0,0.0,0.0,0.0,0.0,0.0,0.0,0.0,0.0,0.0,0.0,0.0,0.0,0.0,0.0,0.0,0.0,0.0,0.0,0.0,0.0,0.0,0.0,0.0,0.0,0.0,0.0,0.0,0.0,0.0,0.0,0.0,0.0,0.0,0.0,0.0,0.0,0.0,0.0,0.0,0.0,0.0,0.0,0.0,0.0,0.0,0.0,0.0,0.0,0.0,0.0,0.0,0.0,0.0,0.0,0.0,0.0,0.0,0.0,0.0,0.0,0.0,0.0,0.0,0.0,0.0,0.0,0.0,0.0,0.0,0.0,0.0,0.0,0.0,0.0,0.0,0.0,0.0,0.0,0.0,0.0,0.0,0.0,0.0,0.0,0.0,0.0,0.0,0.0,0.0,0.0,0.0,0.0,0.0,0.0,0.0,0.0,0.0,0.0,0.0,0.0,0.0,0.0,0.0,0.0,0.0,0.0,0.0,0.0,0.0,0.0,0.0,0.0,0.0,0.0,0.0,0.0,0.0,0.0,0.0,0.0,0.0,0.0,0.0,0.0,0.0,0.0,0.0,0.0,0.0,0.0,0.0,0.0,0.0,0.0,0.0,0.0,0.0,0.0,0.0,0.0,0.0,0.0,0.0,0.0,0.0,0.0,0.0,0.0,0.0,0.0,0.0,0.0,0.0,0.0,0.0,0.0,0.0,0.0,0.0,0.0,0.0,0.0,0.0,0.0,0.0,0.0,0.0,0.0,-2.8401,-2.7446,0.0,0.0,0.0,0.0,0.0,0.0,0.0,0.0,0.0,0.0,0.0,0.0,0.0,0.0,0.0,0.0,0.0,0.0,0.0,0.0,0.0,0.0,0.0,0.0,0.0,0.0,0.0,0.0,0.0,0.0,0.0,0.0,0.0,0.0,0.0,0.0,0.0,0.0,0.0,0.0,0.0,0.0,0.0,0.0,0.0,0.0,0.0,0.0,0.0,0.0,0.0,0.0,0.0,0.0,0.0,0.0,0.0,0.0,0.0,0.0,0.0,0.0,0.0,0.0,0.0,0.0,0.0,0.0,0.0,0.0,0.0,0.0,0.0,0.0,0.0,0.0,0.0,0.0,0.0,0.0,0.0,0.0,0.0,0.0,0.0,0.0,0.0,0.0,0.0,0.0,0.0,0.0,0.0,0.0,0.0,0.0,0.0,0.0,0.0,0.0,0.0,0.0,0.0,0.0,0.0,0.0,0.0,0.0,0.0,0.0,0.0,0.0,0.0,0.0,-3.0862,-2.9512,0.0,0.0,0.0,0.0,0.0,0.0,0.0,0.0,0.0,0.0,0.0,0.0,0.0,0.0,0.0,0.0,0.0,0.0,0.0,0.0,0.0,0.0,0.0,0.0,0.0,0.0,0.0,0.0,0.0,0.0,0.0,0.0,0.0,0.0,0.0,0.0,0.0,0.0,0.0,0.0,0.0,0.0,0.0,0.0,0.0,0.0,0.0,0.0,0.0,0.0,0.0,0.0,0.0,0.0,0.0,0.0,0.0,0.0,0.0,0.0,0.0,0.0,0.0,0.0,0.0,0.0,0.0,0.0,0.0,0.0,0.0,0.0,0.0,0.0,0.0,0.0,0.0,0.0,0.0,0.0,0.0,0.0,0.0,0.0,0.0,0.0,0.0,0.0,0.0,0.0,0.0,0.0,0.0,0.0,0.0,0.0,0.0,0.0,0.0,0.0,0.0,0.0,0.0,0.0,0.0,0.0,0.0,0.0,-3.6152,-3.6419,-3.6366,-3.6988,-3.7091,-3.6636,-3.3813,-3.2261,-3.1693,-3.0794,0.0,0.0,0.0,0.0,0.0,0.0,0.0,0.0,0.0,0.0,0.0,0.0,0.0,0.0,0.0,0.0,0.0,0.0,0.0,0.0,0.0,0.0,0.0,0.0,0.0,0.0,0.0,0.0,0.0,0.0,0.0,0.0,0.0,0.0,0.0,0.0,0.0,0.0,-3.2222,-3.2042,-3.1803,-3.1555,0.0,0.0,0.0,0.0,0.0,0.0,0.0,0.0,0.0,0.0,0.0,0.0,0.0,0.0,0.0,0.0,0.0,0.0,0.0,0.0,0.0,0.0,0.0,0.0,0.0,0.0,0.0,0.0,0.0,0.0,0.0,0.0,0.0,0.0,0.0,0.0,0.0,0.0,0.0,0.0,0.0,0.0,0.0,0.0,-2.7643,-2.7881,0.0,0.0,0.0,0.0,0.0,0.0,0.0,0.0,0.0,0.0,0.0,0.0,0.0,-3.6082,-3.6873,-3.7621,-3.8346,-3.9034,-3.9076,-3.9015,-3.8906,-3.8999,-3.854,-3.7599,-3.711,0.0,-3.3485,-3.2501,0.0,0.0,0.0,0.0,0.0,0.0,0.0,0.0,0.0,0.0,0.0,0.0,0.0,0.0,0.0,0.0,0.0,0.0,0.0,0.0,0.0,0.0,0.0,0.0,0.0,0.0,0.0,0.0,0.0,0.0,0.0,0.0,0.0,0.0,0.0,0.0,-3.3094,-3.3427,-3.3865,-3.3674,-3.3573,-3.3552,-3.3258,-3.2344,-3.0959,-3.0446,0.0,0.0,0.0,0.0,0.0,0.0,0.0,0.0,0.0,0.0,0.0,0.0,0.0,0.0,0.0,0.0,0.0,0.0,0.0,0.0,0.0,0.0,0.0,0.0,0.0,0.0,0.0,0.0,0.0,0.0,0.0,0.0,0.0,0.0,0.0,0.0,0.0,0.0,0.0,-2.9109,-2.9655,-3.0602,-3.0717,-3.0706,0.0,0.0,0.0,0.0,0.0,0.0,0.0,0.0,0.0,-3.711,-3.834,-3.9169,-3.9485,-4.0212,-4.0745,-4.1048,-4.0973,-4.0896,-4.0817,-4.0782,-4.0476,-3.9965,-3.933,-3.8161,-3.6592,-3.5109,-3.3706,-3.2493,0.0,0.0,0.0,0.0,-3.0252,-2.953,0.0,0.0,0.0,0.0,0.0,0.0,0.0,0.0,0.0,0.0,0.0,0.0,0.0,0.0,0.0,-3.2293,0.0,0.0,0.0,0.0,0.0,0.0,0.0,0.0,0.0,0.0,0.0,0.0,-3.4305,-3.4566,-3.5145,-3.4965,-3.4868,-3.4849,-3.4666,-3.3646,-3.2001,-3.1071,-3.0535,0.0,0.0,0.0,0.0,0.0,0.0,0.0,0.0,0.0,0.0,0.0,0.0,0.0,0.0,0.0,0.0,0.0,0.0,0.0,0.0,0.0,0.0,0.0,0.0,0.0,0.0,0.0,0.0,0.0,0.0,0.0,0.0,0.0,0.0,0.0,0.0,0.0,0.0,-3.0824,-3.1515,-3.2737,-3.2891,-3.2974,0.0,0.0,0.0,0.0,0.0,0.0,-3.6438,-3.7813,-3.8917,-3.9751,-4.0903,-4.1594,-4.1756,-4.2289,-4.2611,-4.2768,-4.2682,-4.2583,-4.2529,-4.2464,-4.2296,-4.1967,-4.1149,-4.0178,-3.9047,-3.7202,-3.5572,-3.4207,-3.4138,-3.3169,-3.183,-3.1743,-3.1386,-3.0939,0.0,0.0,0.0,0.0,0.0,0.0,0.0,0.0,0.0,0.0,0.0,0.0,0.0,0.0,-3.221,-3.393,-3.3429,-3.3361,0.0,0.0,0.0,0.0,0.0,0.0,0.0,0.0,0.0,-3.5416,-3.5288,-3.5247,-3.5296,-3.5145,-3.5057,-3.4983,-3.4849,-3.4135,-3.297,-3.2102,-3.1168,-3.0231,0.0,0.0,0.0,0.0,0.0,0.0,0.0,0.0,0.0,0.0,0.0,0.0,0.0,0.0,0.0,0.0,0.0,0.0,0.0,0.0,0.0,0.0,0.0,0.0,0.0,0.0,0.0,0.0,0.0,0.0,0.0,0.0,0.0,0.0,0.0,0.0,0.0,0.0,0.0,-3.2904,-3.2891,0.0,0.0,0.0,0.0,-3.6285,-3.7097,-3.8247,-3.9948,-4.0709,-4.1525,-4.2381,-4.2367,-4.2754,-4.3568,-4.3479,-4.3825,-4.458,-4.4438,-4.4355,-4.4252,-4.4213,-4.3695,-4.2824,-4.2656,-4.1607,-3.9877,-3.8083,-3.676,-3.5866,-3.5793,-3.5181,-3.4321,-3.4191,-3.3109,-3.1739,0.0,0.0,0.0,0.0,0.0,0.0,0.0,0.0,0.0,0.0,0.0,0.0,0.0,-3.1684,-3.2781,-3.4035,-3.4436,-3.4738,-3.5058,0.0,0.0,0.0,0.0,0.0,0.0,0.0,-3.5244,-3.5554,-3.5476,-3.5416,-3.5422,-3.5285,-3.5226,-3.5196,-3.5001,-3.4679,-3.4135,-3.3075,-3.2121,-3.1191,-3.024,-2.9568,0.0,0.0,0.0,0.0,0.0,0.0,0.0,0.0,0.0,0.0,0.0,0.0,0.0,0.0,0.0,0.0,0.0,0.0,0.0,0.0,0.0,0.0,0.0,0.0,0.0,0.0,0.0,0.0,0.0,0.0,0.0,0.0,0.0,0.0,0.0,0.0,0.0,-3.5276,-3.5834,0.0,-3.6589,-3.6569,-3.7022,-3.8118,-3.8913,-3.9871,-4.1017,-4.2274,-4.3354,-4.4189,-4.4649,-4.5285,-4.607,-4.5432,-4.524,-4.5523,-4.4814,-4.4487,-4.4458,-4.4344,-4.4117,-4.377,-4.302,-4.231,-4.1569,-3.9804,-3.82,-3.6888,-3.6778,-3.6212,-3.538,-3.5159,-3.4361,-3.3364,0.0,0.0,0.0,0.0,0.0,0.0,0.0,0.0,0.0,0.0,0.0,-2.8353,-3.1286,-3.2219,-3.3131,-3.437,-3.5057,-3.5455,-3.5509,0.0,0.0,0.0,0.0,0.0,0.0,-3.5345,-3.5623,-3.562,-3.5589,-3.5565,-3.5534,-3.5424,-3.5374,-3.5369,-3.5176,-3.5001,-3.4773,-3.3679,-3.2642,-3.1689,-3.0438,-2.9591,-2.9089,0.0,0.0,0.0,0.0,0.0,0.0,0.0,0.0,0.0,0.0,0.0,0.0,0.0,0.0,0.0,0.0,0.0,0.0,0.0,0.0,0.0,0.0,0.0,0.0,0.0,0.0,0.0,0.0,0.0,0.0,0.0,0.0,0.0,0.0,-3.5116,-3.6286,-3.7046,-3.7642,-3.8219,-3.8796,-3.8792,-3.9224,-4.03,-4.113,-4.1801,-4.2316,-4.3878,-4.4995,-4.5521,-4.6288,-4.6941,-4.7397,-4.6497,-4.6021,-4.5976,-4.4992,-4.4524,-4.4487,-4.4373,-4.4285,-4.4266,-4.3478,-4.2934,-4.2525,-4.1354,-3.9847,-3.8206,-3.7789,-3.7062,-3.6259,-3.6002,-3.5418,-3.4616,0.0,0.0,0.0,0.0,0.0,0.0,0.0,0.0,0.0,0.0,0.0,-2.8442,-3.1975,-3.2441,-3.3208,-3.5002,-3.5235,-3.5364,-3.5493,-3.477,0.0,0.0,0.0,0.0,-3.5688,-3.5707,-3.5707,-3.5707,-3.5707,-3.5678,-3.5588,-3.5531,-3.5502,-3.5502,-3.535,-3.5176,-3.4944,-3.3827,-3.2756,-3.1652,-2.9928,-2.9175,-2.9089,0.0,0.0,0.0,0.0,0.0,0.0,0.0,0.0,0.0,0.0,0.0,0.0,0.0,0.0,0.0,0.0,0.0,0.0,0.0,0.0,0.0,0.0,0.0,0.0,0.0,0.0,0.0,0.0,0.0,0.0,0.0,0.0,0.0,-3.5611,-3.6331,-3.7172,-3.7964,-3.8084,-3.8757,-4.0373,-4.0572,-4.1234,-4.283,-4.3675,-4.4096,-4.4055,-4.5595,-4.6485,-4.6435,-4.7143,-4.7511,-4.7434,-4.6587,-4.6093,-4.5976,-4.5047,-4.4551,-4.4487,-4.4373,-4.4285,-4.4285,-4.4085,-4.3465,-4.2654,-4.2617,-4.1549,-3.9882,-3.883,-3.7913,-3.7094,-3.685,-3.6245,-3.537,0.0,0.0,0.0,0.0,0.0,0.0,0.0,0.0,0.0,0.0,-2.6822,-2.8035,-3.0922,-3.1958,-3.2914,0.0,0.0,0.0,0.0,0.0,0.0,0.0,0.0,0.0,-3.5688,-3.5708,-3.5699,-3.5699,-3.5757,-3.5757,-3.5728,-3.5679,-3.5649,-3.5635,0.0,0.0,0.0,0.0,0.0,0.0,0.0,0.0,-2.9089,0.0,0.0,0.0,0.0,0.0,0.0,0.0,0.0,0.0,0.0,0.0,0.0,0.0,0.0,0.0,0.0,0.0,0.0,0.0,0.0,0.0,0.0,0.0,0.0,0.0,0.0,0.0,0.0,0.0,0.0,0.0,-3.5085,-3.5681,-3.5611,-3.7372,-3.8747,-3.8926,-4.0027,-4.095,-4.1393,-4.1975,-4.2748,-4.3825,-4.4039,-4.4384,-4.4976,-4.5946,-4.674,-4.7253,-4.8066,-4.8473,-4.8325,-4.7439,-4.6641,-4.5976,-4.5047,-4.4551,-4.4487,-4.4373,-4.4285,-4.4285,-4.4085,-4.3799,-4.3416,-4.2825,-4.2212,-4.1464,-3.9889,-3.8784,-3.8008,-3.7745,-3.7088,-3.6055,0.0,0.0,0.0,0.0,0.0,0.0,0.0,0.0,0.0,0.0,-2.6622,-2.7787,0.0,0.0,0.0,0.0,0.0,0.0,0.0,0.0,0.0,0.0,0.0,-3.5688,-3.5708,-3.5737,-3.5745,0.0,0.0,0.0,0.0,0.0,0.0,0.0,0.0,0.0,0.0,0.0,0.0,0.0,0.0,0.0,-2.9021,-2.8975,-2.9017,-2.9007,-2.8596,-2.8495,-2.8489,-2.8125,0.0,0.0,0.0,0.0,0.0,0.0,0.0,0.0,0.0,0.0,0.0,0.0,0.0,0.0,0.0,0.0,0.0,0.0,0.0,0.0,0.0,0.0,0.0,0.0,-3.6593,-3.7266,-3.7193,-3.8472,-3.9639,-4.0273,-4.1219,-4.2085,-4.2777,-4.328,-4.3897,-4.4726,-4.4691,-4.4863,-4.536,-4.6082,-4.6686,-4.7091,-4.79,-4.8308,-4.8207,-4.7276,-4.6554,-4.5976,-4.5074,-4.4578,-4.4487,-4.4373,-4.4285,-4.4285,-4.4085,-4.3961,-4.3781,-4.3319,-4.2816,0.0,0.0,0.0,0.0,0.0,-3.7593,-3.6844,0.0,0.0,0.0,0.0,0.0,0.0,0.0,0.0,0.0,0.0,0.0,0.0,0.0,0.0,0.0,0.0,0.0,0.0,0.0,0.0,0.0,0.0,0.0,0.0,0.0,0.0,0.0,0.0,0.0,0.0,0.0,0.0,0.0,0.0,0.0,0.0,0.0,0.0,0.0,0.0,0.0,0.0,-2.8881,-2.8881,-2.8929,-2.8994,-2.9044,-2.9175,-2.9262,-2.9291,0.0,0.0,0.0,0.0,0.0,0.0,0.0,0.0,0.0,0.0,0.0,0.0,0.0,0.0,0.0,0.0,0.0,0.0,0.0,0.0,0.0,0.0,0.0,0.0,-3.8013,-3.9509,-3.9527,-3.9532,-4.0102,-4.1623,-4.197,-4.2681,-4.4162,-4.4393,-4.4741,-4.5455,-4.5438,-4.5419,-4.5399,0.0,0.0,0.0,0.0,-4.7533,-4.7365,-4.6588,-4.607,-4.5825,-4.507,-4.4632,-4.4515,-4.4373,-4.4314,-4.4285,-4.4116,-4.3992,-4.3897,-4.3837,-4.324,-4.2202,-4.0324,-3.9604,-3.9428,-3.8326,-3.781,-3.7596,0.0,0.0,0.0,0.0,0.0,0.0,0.0,0.0,0.0,0.0,0.0,0.0,0.0,0.0,0.0,0.0,0.0,0.0,0.0,0.0,0.0,0.0,0.0,0.0,0.0,0.0,0.0,0.0,0.0,0.0,0.0,0.0,0.0,0.0,0.0,0.0,0.0,0.0,0.0,0.0,0.0,0.0,-2.8743,-2.8743,-2.8785,-2.8858,-2.8994,-2.904,-2.9067,-2.9249,-2.9314,-2.9336,-2.9286,0.0,0.0,0.0,0.0,0.0,0.0,0.0,0.0,0.0,0.0,0.0,0.0,0.0,0.0,0.0,0.0,0.0,0.0,0.0,0.0,-3.8344,-3.9096,-3.9642,-4.0275,-4.0371,-4.0708,-4.1681,-4.2989,-4.3932,-4.4259,-4.4932,-4.5413,-4.5586,-4.5513,-4.5457,-4.54,-4.6165,-4.6541,-4.6393,-4.7182,-4.7267,-4.6529,-4.6304,-4.5767,-4.4957,0.0,0.0,-4.4515,-4.443,-4.4344,-4.4285,-4.4195,-4.4073,-4.3897,-4.3837,-4.3174,-4.2072,-4.0309,-3.9571,-3.9379,-3.8292,-3.7899,-3.7703,0.0,0.0,0.0,0.0,0.0,0.0,0.0,0.0,0.0,0.0,0.0,0.0,0.0,0.0,0.0,0.0,0.0,0.0,0.0,0.0,0.0,0.0,0.0,0.0,0.0,0.0,0.0,0.0,0.0,0.0,0.0,0.0,0.0,0.0,0.0,0.0,0.0,0.0,0.0,0.0,0.0,0.0,-2.8928,-2.8688,-2.8637,-2.8712,-2.881,-2.8905,-2.9017,-2.9115,-2.9225,-2.931,-2.9373,-2.9472,-2.9625,0.0,0.0,0.0,0.0,0.0,0.0,0.0,0.0,0.0,0.0,0.0,0.0,0.0,0.0,-3.3916,-3.5297,0.0,-3.788,-3.9185,-3.9739,-4.0149,-4.053,-4.0973,-4.1555,-4.2354,-4.3181,-4.4028,-4.4874,-4.5336,-4.5586,-4.5586,-4.555,-4.5476,-4.54,-4.5783,-4.595,-4.5846,-4.6176,-4.6126,-4.5703,-4.5607,-4.5256,-4.4712,-4.4712,-4.4632,-4.4515,-4.4411,-4.4354,-4.4285,-4.4244,-4.4104,-4.3961,-4.3851,-4.3413,-4.2713,-4.135,-4.0281,-3.9434,-3.8742,-3.8258,-3.781,0.0,0.0,0.0,0.0,0.0,0.0,0.0,0.0,0.0,0.0,0.0,0.0,0.0,0.0,0.0,0.0,0.0,0.0,0.0,0.0,0.0,0.0,0.0,0.0,0.0,0.0,0.0,0.0,0.0,0.0,0.0,0.0,0.0,0.0,0.0,0.0,0.0,0.0,0.0,0.0,0.0,0.0,-2.9485,-2.8846,-2.8585,-2.8562,-2.8637,-2.8761,-2.8947,-2.8947,-2.9085,-2.924,-2.9249,-2.9423,-2.9764,-3.0558,-3.0488,0.0,0.0,0.0,0.0,0.0,0.0,0.0,0.0,-3.281,-3.2978,-3.3221,-3.4529,-3.5729,-3.6118,-3.7892,-3.936,-3.9581,-4.0154,-4.0579,-4.0588,-4.1189,-4.194,-4.2739,-4.3124,-4.3855,-4.522,-4.549,-4.5586,-4.5586,-4.555,-4.5495,-4.54,-4.54,-4.5379,-4.5297,-4.517,-4.5103,-4.5103,-4.4967,-4.4821,-4.4738,-4.4712,-4.4632,-4.4515,-4.444,-4.4373,-4.4285,-4.4195,-4.4104,-4.3974,-4.3851,-4.3686,-4.3424,-4.2591,-4.1355,-3.9906,-3.9337,-3.869,-3.8079,0.0,0.0,0.0,0.0,0.0,0.0,0.0,0.0,0.0,0.0,0.0,0.0,0.0,0.0,0.0,0.0,0.0,0.0,0.0,0.0,0.0,0.0,0.0,0.0,0.0,0.0,0.0,0.0,0.0,0.0,0.0,0.0,0.0,0.0,0.0,0.0,0.0,0.0,0.0,0.0,0.0,0.0,-3.0672,-2.944,-2.8685,-2.8353,-2.8406,-2.851,-2.8662,-2.8785,-2.8881,-2.8975,-2.9089,-2.9699,-3.042,-3.0578,0.0,-3.1856,-3.1953,-3.2034,-3.2164,-3.2326,-3.2438,-3.253,0.0,-3.3151,-3.3908,-3.477,-3.5703,-3.6865,-3.8421,-3.8988,-3.948,-4.0249,-4.045,-4.0504,-4.0504,-4.06,-4.0985,-4.1835,-4.3258,-4.4239,-4.4432,-4.5143,-4.5586,-4.5586,-4.5586,-4.5531,-4.5419,-4.54,-4.5361,-4.5297,-4.517,-4.5103,-4.5103,-4.4967,-4.4846,-4.4789,-4.4738,-4.4659,-4.4578,-4.4524,-4.443,-4.4285,-4.4116,-4.3992,-4.3915,-4.3837,-4.3719,-4.3582,-4.3336,-4.2611,-4.152,-3.9805,-3.9085,-3.8852,0.0,0.0,0.0,0.0,0.0,0.0,0.0,0.0,0.0,0.0,0.0,0.0,0.0,0.0,0.0,0.0,0.0,0.0,0.0,0.0,0.0,0.0,0.0,0.0,0.0,0.0,0.0,0.0,0.0,0.0,0.0,0.0,0.0,0.0,0.0,0.0,0.0,0.0,0.0,0.0,0.0,0.0,-3.082,-3.0311,-2.9457,-2.8511,-2.8297,-2.8345,0.0,0.0,-2.8637,-2.8737,-2.8858,-2.9478,-3.0331,-3.1043,-3.157,0.0,-3.2202,-3.2676,-3.3109,-3.3182,-3.3561,-3.3902,-3.3994,-3.426,-3.4751,-3.5642,-3.657,-3.7596,-3.8816,-3.9517,-4.0027,-4.0425,-4.0499,-4.0495,-4.0489,-4.0489,-4.0642,-4.0989,-4.2104,-4.3047,-4.3547,-4.4355,-4.4836,-4.4836,-4.5297,-4.5531,-4.5419,-4.54,-4.538,-4.5297,-4.517,-4.5103,-4.5103,-4.4967,-4.487,-4.4796,-4.4719,-4.4659,-4.4605,-4.4542,-4.443,-4.4285,-4.4165,-4.4023,-4.3897,-4.3837,-4.3719,-4.36,-4.3446,-4.3086,-4.2468,-4.0618,-3.959,-3.8978,0.0,0.0,0.0,0.0,0.0,0.0,0.0,0.0,0.0,0.0,0.0,0.0,0.0,0.0,0.0,0.0,0.0,0.0,0.0,0.0,0.0,0.0,0.0,0.0,0.0,0.0,0.0,0.0,0.0,0.0,0.0,0.0,0.0,0.0,0.0,0.0,0.0,0.0,0.0,0.0,0.0,0.0,-3.0972,-3.0837,-2.9988,-2.8868,-2.8405,-2.8276,0.0,0.0,-2.8353,-2.8495,-2.8701,-2.9349,-3.0259,-3.1525,-3.2255,-3.2699,-3.2997,-3.3507,-3.398,-3.4017,-3.4472,-3.4927,-3.4945,-3.4964,-3.5229,-3.6121,-3.6842,-3.764,-3.8783,-3.9543,-4.0111,-4.0394,-4.0485,-4.0499,-4.0492,-4.0508,-4.0489,-4.0489,-4.1066,-4.1681,-4.2316,-4.3335,-4.4066,-4.4278,-4.4874,-4.53,-4.54,-4.54,-4.538,-4.5297,-4.5192,-4.5125,-4.5103,-4.4986,-4.4895,-4.4821,-4.4745,-4.4685,-4.4632,-4.4524,-4.4401,-4.4285,-4.4244,-4.4104,-4.3929,-4.3837,-4.3753,-4.3634,-4.3481,-4.3322,-4.2996,-4.1469,-4.0257,-3.9301,0.0,0.0,0.0,0.0,0.0,0.0,0.0,0.0,0.0,0.0,0.0,0.0,0.0,0.0,0.0,0.0,0.0,0.0,0.0,0.0,0.0,0.0,0.0,0.0,0.0,0.0,0.0,0.0,0.0,0.0,0.0,0.0,0.0,0.0,0.0,0.0,0.0,0.0,0.0,0.0,0.0,0.0,-3.1397,-3.0756,-3.0091,-2.9402,-2.8885,0.0,0.0,0.0,-2.795,-2.8223,-2.8818,-2.9465,0.0,-3.1989,-3.3542,-3.4736,-3.4794,-3.4832,-3.4869,-3.4851,-3.4889,-3.4908,-3.4889,-3.4889,-3.5173,-3.6122,-3.6312,-3.6863,-3.8575,-3.8974,-3.9315,-4.0173,-4.0432,-4.0502,-4.0502,-4.0511,-4.0489,-4.0489,-4.0508,-4.0546,0.0,-4.2124,-4.3451,-4.4239,-4.4316,-4.4647,-4.5362,-4.54,-4.538,-4.5297,-4.5235,-4.517,-4.5103,-4.5014,-4.4943,-4.4914,-4.4821,-4.4745,-4.4685,-4.4496,-4.4373,-4.4285,-4.4244,-4.4135,-4.3974,-4.3851,-4.3804,-4.3771,-4.3566,-4.3393,-4.3105,-4.2266,-4.1252,-4.0147,0.0,0.0,0.0,0.0,0.0,0.0,0.0,0.0,0.0,0.0,0.0,0.0,0.0,0.0,0.0,0.0,0.0,0.0,0.0,0.0,0.0,0.0,0.0,0.0,0.0,0.0,0.0,0.0,0.0,0.0,0.0,0.0,0.0,0.0,0.0,0.0,0.0,0.0,0.0,0.0,0.0,0.0,-3.1372,-3.1227,-3.0411,-2.9282,0.0,0.0,0.0,0.0,-2.7582,-2.7657,-2.8282,-2.9438,-3.1064,-3.3404,-3.451,-3.5,-3.5038,-3.4983,-3.4965,-3.4908,-3.4908,-3.4907,-3.4908,-3.4908,-3.5135,-3.6045,-3.6274,-3.6654,-3.7833,-3.8537,-3.905,-3.9446,-4.0034,-4.0449,-4.0502,-4.0511,-4.0489,-4.0489,-4.1008,0.0,0.0,0.0,0.0,-4.347,-4.4474,-4.5187,-4.5381,-4.54,-4.5379,-4.5297,-4.5235,-4.517,-4.5103,-4.5014,-4.4967,-4.4895,-4.4789,-4.4712,-4.4632,-4.4524,-4.4411,-4.4354,-4.4285,-4.4214,-4.4104,-4.3902,-4.3804,-4.3771,-4.3566,-4.3393,-4.3178,-4.2904,-4.1742,-4.0183,0.0,0.0,0.0,0.0,0.0,0.0,0.0,0.0,0.0,0.0,0.0,0.0,0.0,0.0,0.0,0.0,0.0,0.0,0.0,0.0,0.0,0.0,0.0,0.0,0.0,0.0,0.0,0.0,0.0,0.0,0.0,0.0,0.0,0.0,0.0,0.0,0.0,0.0,0.0,0.0,0.0,0.0,-3.1274,-3.1346,-3.0449,0.0,0.0,0.0,0.0,0.0,-2.7402,-2.7583,-2.8049,-2.9748,-3.1937,-3.4018,-3.5105,-3.5613,-3.5619,-3.574,-3.5818,-3.5477,-3.5382,-3.5286,-3.4983,-3.4888,-3.5059,-3.5627,-3.578,-3.6084,-3.6977,-3.7585,-3.8194,-3.8915,-3.9541,-4.0053,-4.0411,-4.0729,-4.0934,-4.095,-4.1739,-4.2258,0.0,0.0,0.0,-4.353,-4.4495,-4.5169,-4.5381,-4.5399,-4.5359,-4.5297,-4.5275,-4.5192,-4.5148,-4.508,-4.4991,-4.4895,-4.4789,-4.4712,-4.4632,-4.4551,-4.4487,-4.4383,-4.4344,-4.4255,-4.4184,-4.3934,-4.3837,-4.3771,-4.36,-4.341,-4.3178,-4.2886,-4.1724,-4.0237,0.0,0.0,0.0,0.0,0.0,0.0,0.0,0.0,0.0,0.0,0.0,0.0,0.0,0.0,0.0,0.0,0.0,0.0,0.0,0.0,0.0,0.0,0.0,0.0,0.0,0.0,0.0,0.0,0.0,0.0,0.0,0.0,0.0,0.0,0.0,0.0,0.0,0.0,0.0,0.0,0.0,0.0,-3.119,-3.1157,0.0,0.0,0.0,0.0,0.0,0.0,-2.7437,-2.8064,-2.8323,-3.0433,-3.302,-3.3966,-3.5413,-3.6661,-3.6583,-3.7032,-3.7299,-3.6502,-3.6255,-3.5968,-3.5096,-3.4888,-3.4889,-3.4907,-3.4888,-3.5173,0.0,0.0,-3.6862,-3.8556,-3.8991,-3.9387,-4.0264,-4.114,-4.1728,0.0,-4.2588,0.0,0.0,0.0,0.0,-4.4362,0.0,-4.4671,-4.5361,-4.5398,-4.5378,-4.5297,-4.5297,-4.5275,-4.5192,-4.5125,-4.5014,-4.4895,-4.4821,-4.4726,-4.4655,-4.4576,-4.443,-4.428,-4.4213,-4.4143,-4.4053,-4.3849,-4.374,-4.3675,-4.3539,-4.3316,-4.2996,-4.2212,-4.1216,-4.0237,0.0,0.0,0.0,0.0,0.0,0.0,0.0,0.0,0.0,0.0,0.0,0.0,0.0,0.0,0.0,0.0,0.0,0.0,0.0,0.0,0.0,0.0,0.0,0.0,0.0,0.0,0.0,0.0,0.0,0.0,0.0,0.0,0.0,0.0,0.0,0.0,0.0,0.0,0.0,0.0,0.0,0.0,-3.114,0.0,0.0,0.0,0.0,0.0,0.0,0.0,-2.8528,-3.0036,-3.0614,-3.2656,-3.4963,-3.5912,-3.6881,-3.7621,-3.751,-3.7525,-3.7357,-3.6521,-3.6216,-3.591,-3.5096,-3.4907,-3.4907,-3.4887,-3.4888,-3.4984,-3.5286,-3.5855,0.0,-3.7812,-3.8609,0.0,-4.021,-4.1107,0.0,-4.1716,-4.302,-4.3922,-4.3922,-4.4633,0.0,0.0,-4.5112,-4.5208,-4.5379,-4.5338,-4.5317,-4.5297,-4.5297,-4.5275,-4.5192,-4.5061,-4.4967,-4.4895,-4.4821,-4.4468,-4.3787,-4.3728,-4.331,-4.2602,-4.2492,-4.2436,-4.2398,-4.2192,-4.202,-4.1939,-4.1843,-4.1647,-4.1409,-4.119,-4.0435,-3.9464,0.0,0.0,0.0,0.0,0.0,0.0,0.0,0.0,0.0,0.0,0.0,0.0,0.0,0.0,0.0,0.0,0.0,0.0,0.0,0.0,0.0,0.0,0.0,0.0,0.0,0.0,0.0,0.0,0.0,0.0,0.0,0.0,0.0,0.0,0.0,0.0,0.0,0.0,0.0,0.0,0.0,0.0,0.0,0.0,0.0,0.0,0.0,0.0,0.0,0.0,0.0,-3.0769,-3.2776,-3.4295,-3.5609,-3.698,-3.7918,-3.8504,-3.8355,-3.8517,-3.8403,-3.7148,-3.6746,-3.6343,-3.5132,-3.4545,-3.4281,-3.4281,-3.4037,-3.3941,-3.4357,-3.485,-3.5607,0.0,0.0,0.0,-3.9656,-4.1148,-4.22,0.0,-4.3713,-4.4729,-4.4729,-4.5132,-4.54,0.0,-4.5398,-4.5398,-4.5359,-4.5317,-4.5297,-4.5297,-4.5297,-4.5275,-4.5192,-4.5103,-4.4991,-4.4943,-4.453,-4.4039,-4.3536,-4.3083,-4.2554,-4.2044,0.0,-4.1829,-4.1773,-4.1667,-4.1452,-4.1292,-4.1248,-4.1056,-4.0771,-4.0406,-3.9817,-3.9138,0.0,0.0,0.0,0.0,0.0,0.0,0.0,0.0,0.0,0.0,0.0,0.0,0.0,0.0,0.0,0.0,0.0,0.0,0.0,0.0,0.0,0.0,0.0,0.0,0.0,0.0,0.0,0.0,0.0,0.0,0.0,0.0,0.0,0.0,0.0,0.0,0.0,0.0,0.0,0.0,0.0,0.0,0.0,0.0,0.0,0.0,0.0,0.0,0.0,0.0,-3.0944,-3.1213,-3.4489,-3.5495,-3.5836,-3.7617,-3.8719,-3.932,-3.92,-3.9605,-3.9678,-3.7926,-3.7428,-3.6948,-3.5205,-3.4128,-3.3505,-3.3486,-3.2902,-3.2636,-3.3392,-3.3674,-3.4317,-3.5874,0.0,-3.802,-3.895,-4.1226,-4.2814,-4.2889,-4.4365,-4.5381,-4.5381,-4.538,-4.5398,-4.5398,-4.5378,-4.5338,-4.5297,-4.5297,-4.5297,-4.5297,-4.5297,-4.5256,-4.5192,-4.5125,-4.5023,-4.4839,-4.4066,-4.354,-4.3245,-4.2416,-4.1946,-4.1782,-4.1627,-4.1547,-4.1483,-4.1399,-4.1226,-4.0979,-4.0979,-4.0758,-4.0406,-3.9695,-3.9273,-3.894,0.0,0.0,0.0,0.0,0.0,0.0,0.0,0.0,0.0,0.0,-2.3161,0.0,0.0,0.0,0.0,0.0,0.0,0.0,0.0,0.0,0.0,0.0,0.0,0.0,0.0,0.0,0.0,0.0,0.0,0.0,0.0,0.0,0.0,0.0,0.0,0.0,0.0,0.0,0.0,0.0,0.0,0.0,0.0,0.0,0.0,0.0,0.0,0.0,0.0,0.0,-3.3046,-3.3169,-3.4638,-3.6217,-3.7689,-3.8708,-3.9528,-4.0077,-4.0023,-4.0004,-3.9597,-3.7867,-3.7408,-3.6948,-3.5124,-3.4088,0.0,-3.3502,-3.2902,-3.2447,-3.2617,-3.3258,-3.4109,-3.5077,-3.6614,-3.7983,-3.8822,-4.117,-4.2794,0.0,-4.4306,-4.5319,-4.5319,-4.5317,0.0,0.0,-4.5275,-4.5235,-4.5297,-4.5297,-4.5297,-4.5297,-4.5297,-4.5235,-4.5125,-4.5103,-4.4715,-4.3933,-4.3758,-4.2957,-4.1524,-4.1302,-4.0796,-4.0126,-3.9958,0.0,-3.9802,-3.9685,-3.95,-3.9316,-3.9316,-3.9118,-3.8784,-3.8656,-3.8522,-3.8339,0.0,0.0,0.0,0.0,0.0,0.0,0.0,0.0,0.0,-2.2842,-2.4092,-2.5058,0.0,0.0,0.0,0.0,0.0,0.0,0.0,0.0,0.0,0.0,0.0,0.0,0.0,0.0,0.0,0.0,0.0,0.0,0.0,0.0,0.0,0.0,0.0,0.0,0.0,0.0,0.0,0.0,0.0,0.0,0.0,0.0,0.0,0.0,0.0,0.0,0.0,0.0,-3.3688,-3.4104,-3.5861,-3.7069,-3.8089,-3.9348,-3.9984,-4.0234,-4.008,-3.9996,-3.9534,-3.7783,-3.7322,-3.6845,-3.5103,0.0,0.0,-3.2824,-3.1845,-3.1146,-3.1616,-3.2086,-3.2822,-3.4166,-3.5474,-3.6748,-3.8042,-4.0443,-4.2237,-4.2697,-4.4223,-4.5254,-4.5254,-4.5254,-4.5235,-4.5192,-4.517,-4.517,-4.5235,-4.5213,-4.5192,-4.5192,-4.5192,-4.517,-4.5103,-4.508,-4.4615,-4.3748,-4.327,-4.237,-4.1135,-4.0589,-4.0085,-3.9679,-3.9602,-3.9495,-3.9391,-3.9328,-3.9147,-3.891,-3.891,-3.8713,-3.8382,-3.8382,-3.8322,-3.8192,0.0,0.0,0.0,0.0,0.0,0.0,0.0,-2.1866,-2.3112,-2.3272,-2.4765,-2.5684,-2.5287,-2.6048,-2.6691,0.0,0.0,0.0,0.0,0.0,0.0,0.0,0.0,0.0,0.0,0.0,0.0,-2.9737,0.0,0.0,0.0,0.0,0.0,0.0,0.0,0.0,0.0,0.0,0.0,0.0,0.0,0.0,0.0,0.0,0.0,0.0,0.0,0.0,0.0,0.0,-3.3805,-3.442,-3.6576,-3.7413,-3.7908,-3.9433,-3.9984,-4.0077,-3.9911,-3.9735,-3.9239,-3.7656,-3.7103,-3.6531,-3.5026,-3.3347,-3.2105,-3.2163,-3.0866,-2.9923,-3.0655,-3.0956,-3.1615,0.0,-3.4338,-3.559,-3.7338,-3.9622,-4.1508,0.0,-4.4029,0.0,-4.5151,-4.517,0.0,-4.5084,-4.5103,-4.5103,-4.517,-4.5125,-4.5103,-4.5103,-4.5103,-4.5103,-4.508,-4.4862,-4.4326,-4.3487,-4.2587,-4.1711,-4.0896,-4.0083,-3.9712,-3.9689,-3.965,-3.9502,-3.9391,-3.9391,-3.9193,-3.891,-3.891,-3.8713,-3.8382,-3.8382,-3.8322,-3.8192,0.0,0.0,0.0,0.0,0.0,0.0,0.0,-2.1481,-2.3004,-2.3183,-2.46,-2.5696,-2.5799,-2.6225,-2.6623,0.0,0.0,0.0,0.0,0.0,0.0,0.0,0.0,0.0,0.0,0.0,0.0,-2.9531,-2.9663,0.0,0.0,0.0,0.0,0.0,0.0,-2.9625,0.0,0.0,0.0,0.0,0.0,0.0,0.0,0.0,0.0,0.0,0.0,0.0,0.0,0.0,0.0,-3.4138,-3.5403,-3.649,-3.754,-3.8548,0.0,-3.9826,-3.9804,-3.9233,-3.8392,-3.7438,-3.661,-3.5778,-3.4811,0.0,-3.2105,-3.2105,-3.081,-2.9736,-2.9811,-3.0526,-3.141,-3.2372,0.0,-3.559,-3.7261,-3.9069,-4.0822,-4.2421,0.0,0.0,-4.5026,-4.5125,-4.5103,-4.5103,-4.5038,-4.5057,-4.5103,-4.5103,-4.5103,-4.5103,-4.5103,-4.508,-4.4991,-4.4269,-4.3449,-4.2526,-4.1711,-4.0858,-4.0003,-3.9796,-3.9689,-3.9689,-3.965,-3.9502,0.0,-3.9391,-3.9193,-3.891,-3.891,-3.8713,-3.8382,-3.8382,-3.8322,-3.8192,0.0,0.0,0.0,0.0,0.0,0.0,0.0,-2.1038,-2.2426,-2.3119,-2.4213,-2.5171,-2.5848,-2.6151,-2.6415,0.0,0.0,0.0,0.0,0.0,0.0,0.0,0.0,0.0,0.0,0.0,-2.9965,-3.003,-3.0704,0.0,0.0,0.0,0.0,0.0,0.0,-2.9353,-2.9115,0.0,0.0,0.0,0.0,0.0,0.0,0.0,0.0,0.0,0.0,0.0,0.0,0.0,0.0,0.0,-3.4463,-3.5355,0.0,0.0,-3.7935,-3.8154,-3.8127,-3.7859,-3.7404,-3.6508,-3.6035,-3.5548,-3.4682,0.0,-3.206,-3.2081,-3.0789,-2.9645,-2.9699,-3.0,-3.0714,-3.2109,0.0,0.0,-3.7048,-3.8454,-4.0032,-4.2259,-4.3308,-4.4163,0.0,0.0,-4.5014,-4.4967,-4.4943,-4.4943,-4.4986,-4.4967,-4.4967,-4.4967,-4.4967,-4.4967,-4.4943,-4.4147,-4.3289,-4.2393,-4.1579,-4.0745,-3.9889,-3.9758,-3.9693,-3.9712,-3.9631,-3.9502,0.0,-3.9391,-3.9193,-3.891,-3.891,-3.8713,-3.8446,-3.8415,-3.8336,-3.8241,0.0,0.0,0.0,0.0,0.0,0.0,-1.9061,-2.0423,-2.1802,-2.3055,-2.3919,-2.4794,-2.5779,-2.6043,-2.6274,-2.6554,0.0,0.0,0.0,0.0,0.0,0.0,0.0,0.0,0.0,0.0,-3.0344,-3.0696,-3.1436,-3.1786,0.0,0.0,-3.1078,-3.0977,0.0,0.0,0.0,0.0,0.0,0.0,0.0,0.0,0.0,0.0,0.0,0.0,0.0,0.0,0.0,0.0,0.0,0.0,0.0,0.0,0.0,0.0,-3.6827,-3.7014,-3.6967,-3.6793,-3.6475,-3.5848,-3.5506,-3.5152,-3.4535,-3.3153,-3.1995,-3.2056,-3.0748,-2.9589,-2.9626,-2.9645,-3.0246,0.0,0.0,-3.3468,-3.689,-3.7853,-3.9258,-4.2071,0.0,-4.3744,-4.4849,-4.4943,-4.4919,-4.487,-4.4846,-4.4821,-4.4821,-4.4821,-4.4846,-4.4895,-4.4895,-4.4781,-4.4554,-4.3739,-4.2886,-4.2052,-4.1219,-4.0498,-3.9889,-3.9758,-3.9693,-3.9712,-3.9631,-3.9502,0.0,-3.9391,-3.9193,-3.8939,-3.891,-3.8773,-3.8559,-3.8446,-3.8336,-3.8274,0.0,0.0,0.0,0.0,0.0,0.0,0.0,-1.9702,-2.1248,-2.2955,-2.3811,-2.4648,-2.5779,-2.5954,-2.6134,-2.6485,0.0,0.0,0.0,0.0,0.0,0.0,0.0,0.0,0.0,0.0,-3.0396,-3.1378,-3.147,-3.1568,-3.1705,-3.1686,-3.1686,-3.1686,0.0,0.0,0.0,0.0,0.0,0.0,0.0,0.0,0.0,0.0,0.0,0.0,0.0,0.0,0.0,0.0,0.0,0.0,0.0,0.0,0.0,0.0,-3.6229,-3.6894,-3.6894,-3.6334,-3.5712,-3.5693,-3.504,-3.4404,-3.4386,-3.3153,-3.1995,-3.1995,-3.0669,-2.9492,-2.9492,-2.955,-3.0151,-3.1842,0.0,0.0,-3.6826,-3.7316,-3.8524,0.0,-4.2203,-4.2888,-4.4644,-4.4796,-4.4796,-4.4796,-4.4738,0.0,-4.4712,-4.4712,-4.4745,-4.4914,-4.4895,-4.4516,-4.372,-4.2848,-4.2014,-4.12,-4.0347,-3.9908,-3.9889,-3.9758,-3.9689,-3.9689,-3.965,-3.9502,0.0,-3.9391,-3.9239,-3.8979,-3.8939,-3.884,-3.8658,-3.8465,-3.8336,-3.8274,0.0,0.0,0.0,0.0,0.0,0.0,0.0,-1.8983,-2.0317,-2.1615,-2.2801,-2.3939,-2.5026,-2.5622,-2.6079,-2.645,0.0,0.0,0.0,0.0,0.0,0.0,0.0,0.0,0.0,0.0,-3.1619,-3.1956,-3.2647,-3.3028,-3.3081,-3.2587,-3.233,-3.221,-3.1685,-3.1249,0.0,0.0,0.0,0.0,0.0,0.0,0.0,0.0,0.0,0.0,0.0,0.0,0.0,0.0,0.0,0.0,0.0,0.0,0.0,0.0,0.0,0.0,-3.4927,-3.4767,-3.4606,-3.4606,-3.4426,-3.412,-3.358,-3.2631,-3.1719,-3.1222,-3.0215,-2.9453,-2.9492,-2.9979,-3.0708,-3.185,-3.255,0.0,0.0,0.0,0.0,-4.1052,-4.2391,-4.353,0.0,0.0,-4.4719,-4.4719,-4.4712,-4.4712,-4.4712,-4.4712,-4.4738,-4.4745,-4.4745,-4.4392,-4.358,-4.271,-4.1855,-4.1043,-4.0174,-3.9758,-3.9758,-3.9727,-3.9698,-3.9698,-3.9626,-3.9502,-3.9391,-3.9391,-3.9221,-3.8979,-3.8939,-3.8851,-3.8732,-3.8496,-3.8401,-3.8303,0.0,0.0,0.0,0.0,0.0,0.0,0.0,-1.8217,-1.9311,-2.0895,-2.1872,-2.302,-2.4634,-2.5209,-2.5766,-2.6434,0.0,0.0,0.0,0.0,0.0,0.0,0.0,0.0,0.0,-3.1404,-3.2209,-3.2651,-3.3284,-3.3587,-3.3671,-3.324,-3.2993,-3.2894,-3.2436,-3.1999,0.0,0.0,0.0,0.0,0.0,0.0,-3.2948,0.0,0.0,0.0,0.0,0.0,0.0,0.0,0.0,0.0,0.0,0.0,0.0,0.0,-3.3206,-3.3172,0.0,-3.4023,-3.4074,-3.4074,-3.4099,0.0,-3.3104,-3.2312,-3.1537,-3.0782,-2.9967,-2.9411,-2.9451,-3.0143,-3.0963,-3.1824,-3.2708,0.0,0.0,0.0,-3.8066,-4.0621,-4.2417,0.0,0.0,-4.4471,-4.4659,-4.4659,-4.4632,-4.4501,-4.4199,-4.418,-4.403,-4.3691,-4.4044,-4.3844,-4.3014,-4.2165,-4.1335,-4.0505,-3.9953,-3.9689,-3.9689,-3.9698,-3.9693,-3.9693,-3.9645,-3.9502,0.0,-3.9391,-3.9266,-3.9036,-3.8921,-3.8862,-3.8803,-3.851,-3.8382,-3.8368,0.0,0.0,0.0,0.0,0.0,0.0,0.0,0.0,0.0,0.0,-2.1039,-2.202,-2.4454,-2.4767,-2.5271,0.0,0.0,0.0,0.0,0.0,0.0,0.0,0.0,0.0,0.0,-3.1729,-3.2325,-3.3454,-3.3454,-3.356,-3.3741,-3.3741,-3.3704,-3.3668,-3.3696,-3.3184,0.0,0.0,0.0,0.0,-3.3091,-3.2997,0.0,0.0,0.0,0.0,0.0,0.0,0.0,0.0,0.0,0.0,0.0,0.0,0.0,0.0,0.0,0.0,0.0,-3.3832,-3.385,-3.3887,-3.3869,-3.3629,-3.289,-3.2144,0.0,-3.058,-2.9864,-2.9405,-2.946,-3.019,-3.1052,-3.1853,-3.2754,-3.4218,0.0,-3.7098,-3.8083,-4.0516,-4.2246,-4.3232,-4.3288,-4.3984,-4.4409,-4.4409,-4.4354,-4.4008,-4.3238,-4.32,-4.2844,-4.201,-4.2843,-4.2919,-4.2127,-4.1348,-4.0556,-3.9689,-3.9689,-3.9689,-3.9689,-3.9698,-3.9693,0.0,-3.9645,-3.9502,0.0,-3.9391,-3.9275,-3.9073,-3.895,-3.891,-3.8862,-3.851,-3.8382,-3.835,0.0,0.0,0.0,0.0,0.0,0.0,0.0,0.0,0.0,0.0,-2.0414,-2.1843,-2.3833,-2.4472,-2.5271,0.0,0.0,0.0,0.0,0.0,0.0,0.0,0.0,0.0,0.0,-3.22,-3.3041,-3.396,-3.4051,-3.4452,-3.5123,-3.5168,-3.4909,-3.4377,-3.4436,-3.3923,0.0,0.0,0.0,0.0,-3.3028,-3.2979,0.0,0.0,0.0,0.0,-3.3011,-3.3073,0.0,0.0,0.0,0.0,0.0,0.0,0.0,0.0,-3.1448,-3.1426,-3.1887,0.0,-3.2226,-3.2852,-3.2588,-3.212,0.0,-3.127,-3.0479,-2.9684,0.0,-2.9508,-3.012,-3.0943,-3.1786,-3.2604,-3.4027,-3.5453,-3.6671,-3.8041,-3.9371,-4.0666,-4.1161,-4.1649,-4.2288,-4.2513,-4.26,-4.26,-4.26,-4.2498,-4.2337,-4.2318,-4.2224,-4.1991,-4.1586,-4.1267,-4.113,-4.0942,-4.0434,-3.9607,-3.9607,-3.9607,-3.9607,-3.9626,-3.9602,-3.9602,-3.962,0.0,-3.9391,-3.9391,-3.9275,-3.9073,-3.895,-3.891,-3.8862,-3.851,-3.8382,-3.835,0.0,0.0,0.0,0.0,0.0,0.0,0.0,0.0,0.0,0.0,0.0,0.0,0.0,0.0,0.0,0.0,0.0,0.0,0.0,0.0,0.0,0.0,0.0,0.0,-3.1788,-3.2781,-3.3568,-3.4115,-3.4569,-3.5062,-3.5555,-3.5588,-3.5403,-3.5006,-3.4659,-3.4045,-3.3214,-3.3104,-3.3042,-3.2997,-3.2948,0.0,0.0,0.0,0.0,0.0,-3.2568,-3.2468,0.0,-3.2288,-3.1931,-3.1627,0.0,0.0,0.0,0.0,-3.0421,-3.0179,-3.0235,-3.0858,-3.1661,-3.2445,-3.2341,-3.2078,-3.2053,0.0,0.0,0.0,0.0,0.0,-3.0923,-3.1709,-3.2442,-3.2868,-3.4426,-3.5982,-3.718,-3.8595,-3.9689,-4.0146,-4.0546,-4.0966,0.0,-4.174,-4.1919,-4.1892,-4.1892,-4.1742,-4.1368,-4.1349,-4.118,-4.0806,-4.0349,-4.0319,-4.0746,-4.0364,-3.9951,-3.952,-3.952,-3.9296,-3.8921,-3.8921,-3.8715,-3.8377,-3.8752,0.0,-3.8779,-3.9152,-3.9229,-3.9073,-3.895,-3.891,-3.8862,-3.851,-3.8382,-3.8368,0.0,0.0,0.0,0.0,0.0,0.0,0.0,0.0,0.0,0.0,0.0,0.0,0.0,0.0,0.0,0.0,0.0,0.0,0.0,0.0,0.0,0.0,0.0,-3.2196,-3.2354,-3.33,-3.3931,-3.426,-3.5095,-3.5626,-3.5834,-3.5834,-3.5762,-3.5652,-3.4684,-3.3912,-3.3265,-3.3064,-3.2979,-3.2979,-3.2916,0.0,0.0,0.0,0.0,0.0,0.0,0.0,0.0,-3.1052,-3.082,-3.0712,-3.0794,0.0,0.0,0.0,0.0,0.0,-2.8881,-2.9917,-3.1231,-3.2192,-3.232,-3.2302,0.0,0.0,0.0,0.0,0.0,0.0,0.0,-3.2384,-3.2932,-3.3062,-3.4563,-3.6266,-3.7962,-3.8925,-3.9469,-3.9469,-4.012,0.0,-4.0506,-4.1124,-4.1491,-4.1436,-4.1436,-4.11,-4.0251,-4.0213,-3.984,-3.9018,-3.8999,-3.9362,-4.0087,-3.9623,-3.9391,-3.9391,-3.9261,-3.8794,-3.8109,-3.7978,-3.7549,-3.6932,0.0,0.0,-3.8055,-3.8745,-3.9044,-3.9073,-3.895,-3.891,-3.8862,-3.851,-3.8382,-3.835,0.0,0.0,0.0,0.0,0.0,0.0,0.0,0.0,0.0,0.0,0.0,0.0,0.0,0.0,0.0,0.0,0.0,0.0,0.0,0.0,0.0,0.0,-3.1929,-3.2144,-3.2232,-3.3213,-3.4094,-3.4854,-3.5723,-3.6577,-3.7345,-3.7345,-3.7075,-3.6461,-3.4888,-3.4139,-3.3978,-3.3234,-3.2916,-3.2916,-3.2838,0.0,0.0,0.0,0.0,0.0,0.0,0.0,0.0,-3.0823,-3.0404,-2.9909,-2.997,0.0,0.0,0.0,0.0,0.0,-2.881,-2.8992,-2.957,-3.1176,-3.1072,-3.0925,0.0,0.0,0.0,0.0,0.0,0.0,0.0,-3.2699,-3.3044,-3.3802,-3.5398,-3.7102,-3.8774,-3.9136,-3.9301,-3.9399,0.0,-3.9605,-3.9605,-3.9717,-3.9773,-3.9791,-3.9791,-3.9399,-3.8514,-3.8476,-3.8128,-3.7306,-3.7231,-3.7261,-3.7392,-3.8712,-3.9391,-3.9373,-3.867,-3.824,-3.8091,-3.7399,-3.7025,-3.6913,0.0,-3.7424,-3.8018,-3.813,-3.8542,-3.9073,-3.895,-3.891,-3.8862,-3.851,-3.8382,-3.835,0.0,0.0,0.0,0.0,0.0,0.0,0.0,0.0,0.0,0.0,0.0,0.0,0.0,0.0,0.0,0.0,0.0,0.0,0.0,0.0,0.0,-3.1538,-3.1839,-3.2211,-3.2737,-3.3721,-3.4674,-3.5542,-3.645,-3.711,-3.7522,-3.7595,-3.7256,-3.6503,-3.5272,-3.4488,-3.3975,-3.3208,-3.2787,-3.2737,0.0,0.0,0.0,0.0,0.0,0.0,0.0,0.0,0.0,0.0,-2.9242,-2.9017,-2.9078,0.0,0.0,0.0,0.0,0.0,-2.8737,-2.8761,-2.9168,-3.0874,-3.1052,-3.1224,0.0,0.0,0.0,0.0,0.0,0.0,0.0,0.0,-3.3843,-3.5247,-3.6478,-3.7737,-3.8961,-3.8811,-3.8558,0.0,0.0,-3.8028,-3.7996,-3.7996,-3.7996,-3.7925,-3.7944,-3.7757,-3.7366,-3.7329,-3.7161,-3.6789,-3.6763,-3.6756,-3.6756,-3.75,-3.7917,-3.7925,-3.7534,-3.7124,-3.6677,-3.6304,-3.5876,-3.5466,0.0,-3.636,-3.6719,-3.7594,-3.8116,-3.8424,-3.8755,-3.8881,-3.8803,-3.851,-3.8303,-3.8122,0.0,0.0,0.0,0.0,0.0,0.0,0.0,0.0,0.0,0.0,0.0,0.0,0.0,0.0,0.0,0.0,0.0,0.0,0.0,0.0,-3.1329,-3.1517,-3.1746,-3.2295,-3.3169,-3.4156,-3.5111,-3.6015,-3.6907,-3.7337,-3.7411,-3.754,-3.7255,-3.6631,-3.5615,-3.4814,-3.4141,-3.3182,-3.269,-3.2606,0.0,0.0,0.0,0.0,0.0,0.0,0.0,0.0,0.0,0.0,0.0,0.0,0.0,0.0,0.0,-2.8587,-2.8587,-2.8612,-2.8644,-2.8687,-2.9094,-3.0745,0.0,0.0,0.0,0.0,0.0,0.0,0.0,0.0,0.0,-3.3842,-3.4426,-3.6036,-3.684,-3.7553,-3.8432,-3.8059,-3.7694,-3.7694,-3.7187,-3.6839,-3.6763,-3.6782,-3.6756,-3.6686,-3.6686,-3.6612,-3.6426,-3.6408,-3.6315,-3.611,-3.611,-3.611,-3.6085,-3.6033,-3.6237,-3.666,-3.6474,-3.6066,-3.5454,-3.5249,-3.4804,-3.421,-3.4903,-3.5293,-3.5609,-3.7013,-3.7691,-3.7868,-3.8578,-3.8822,-3.8683,-3.8496,-3.8171,-3.7899,0.0,0.0,0.0,0.0,0.0,0.0,0.0,0.0,0.0,0.0,0.0,0.0,0.0,0.0,0.0,0.0,0.0,0.0,0.0,0.0,-3.0765,-3.1483,-3.1688,-3.2239,-3.3169,-3.4065,-3.5001,-3.6015,-3.6738,-3.7223,-3.7411,-3.754,-3.7559,-3.7434,-3.5847,-3.5065,-3.4923,-3.3277,-3.2606,-3.2606,-3.2523,0.0,0.0,0.0,0.0,0.0,0.0,0.0,0.0,0.0,0.0,0.0,0.0,0.0,-2.8518,-2.8587,-2.8587,-2.8587,-2.8612,-2.8612,-2.9018,-3.0693,-3.1146,0.0,-3.3268,-3.3587,0.0,-3.3698,0.0,0.0,0.0,-3.3842,-3.4215,-3.5217,-3.5499,-3.5866,-3.676,0.0,-3.6779,-3.6779,-3.6749,-3.6712,-3.6731,-3.6731,-3.6731,-3.6686,-3.6686,-3.637,-3.5627,-3.5572,-3.5219,-3.4401,-3.4383,-3.4358,-3.4309,-3.4266,-3.5043,-3.6607,-3.5787,-3.5373,-3.528,-3.4537,-3.4154,-3.4124,-3.4228,-3.4736,-3.5553,-3.6366,-3.7136,-3.7868,-3.8519,-3.8652,-3.8415,-3.8415,-3.8171,-3.7899,0.0,0.0,0.0,0.0,0.0,0.0,0.0,0.0,0.0,0.0,0.0,0.0,0.0,0.0,0.0,0.0,0.0,0.0,0.0,0.0,-3.064,-3.1483,-3.1596,-3.2127,-3.313,-3.397,-3.4868,-3.5808,-3.6661,-3.7223,-3.7392,-3.7466,-3.7466,-3.7395,-3.5794,-3.5031,-3.4818,-3.321,-3.2523,-3.2473,-3.2457,-3.2439,0.0,0.0,0.0,0.0,0.0,0.0,0.0,0.0,-2.8219,-2.83,0.0,-2.8406,-2.8432,-2.8458,-2.851,-2.8536,-2.8536,-2.8562,-2.8993,-3.064,-3.1066,0.0,0.0,-3.3605,-3.3605,-3.3615,-3.3671,0.0,-3.3807,0.0,-3.4724,-3.5182,-3.5715,-3.6194,-3.657,-3.6233,-3.5943,-3.5943,-3.5479,-3.5144,-3.5144,-3.5144,-3.5144,-3.5144,-3.5144,-3.5014,-3.4699,-3.468,-3.4531,-3.4197,-3.4173,-3.4124,-3.4099,-3.4023,-3.4286,-3.4913,-3.4626,-3.4478,-3.4478,-3.4171,-3.4049,-3.4049,-3.4074,-3.4259,-3.4629,-3.5454,-3.626,-3.7026,-3.8168,-3.851,-3.8382,-3.8336,-3.8156,-3.7899,0.0,0.0,0.0,0.0,0.0,0.0,0.0,0.0,0.0,0.0,0.0,0.0,0.0,0.0,0.0,0.0,0.0,0.0,0.0,-2.9296,-3.0228,-3.1124,-3.1439,-3.1949,-3.2671,-3.3546,-3.4565,-3.5692,-3.6622,-3.7185,-3.7299,-3.7354,-3.7354,-3.7283,-3.5723,-3.4907,-3.4711,-3.3125,-3.2457,-3.2406,-3.2406,-3.2406,0.0,0.0,0.0,0.0,0.0,0.0,0.0,0.0,-2.8154,-2.8246,0.0,0.0,-2.838,-2.838,-2.8432,-2.8484,-2.8484,-2.8691,-2.9267,0.0,0.0,0.0,-3.3211,-3.352,-3.3549,-3.3549,-3.3643,-3.3726,-3.3753,0.0,0.0,0.0,-3.5293,-3.5715,-3.5803,-3.5373,-3.5064,-3.5089,-3.4327,-3.3807,-3.3807,-3.3584,-3.3436,-3.3436,-3.3436,-3.3547,-3.3783,-3.3802,-3.3777,-3.3777,-3.371,-3.3574,-3.329,-3.3191,-3.314,-3.3114,-3.3165,-3.3467,-3.3947,-3.3947,-3.3972,-3.3972,-3.3998,-3.3998,-3.4053,-3.4877,-3.5818,-3.6838,-3.7766,-3.8227,-3.8382,-3.8322,-3.814,-3.7899,0.0,0.0,0.0,0.0,0.0,0.0,0.0,0.0,0.0,0.0,0.0,0.0,0.0,0.0,0.0,0.0,0.0,0.0,0.0,-2.8518,-2.9498,-3.0338,-3.1148,-3.1671,-3.18,-3.2654,-3.3949,-3.5692,-3.6622,-3.7108,-3.7108,-3.7259,-3.7297,-3.7226,-3.5541,-3.4799,-3.4693,-3.3073,-3.2406,-3.2406,-3.2406,-3.2406,-3.223,0.0,0.0,0.0,0.0,0.0,0.0,0.0,-2.8099,-2.8126,0.0,0.0,0.0,-2.838,-2.8398,-2.8398,-2.8398,-2.9053,-2.9882,0.0,0.0,0.0,-3.323,-3.3393,-3.3422,-3.3481,-3.3605,-3.3698,-3.3698,-3.3753,0.0,-3.3895,-3.3895,-3.3947,-3.4074,-3.408,-3.4105,-3.4179,-3.3473,-3.299,-3.299,-3.2265,-3.1782,-3.1782,-3.1782,-3.2112,-3.2839,-3.2895,-3.2871,-3.2798,-3.2798,-3.2367,-3.1507,-3.1507,-3.1458,-3.1384,-3.1384,-3.2228,-3.3788,-3.3868,-3.3895,-3.3895,-3.3972,-3.3998,-3.4072,-3.4778,-3.6029,-3.7459,-3.7351,-3.7752,-3.8382,-3.8322,-3.814,-3.7899,0.0,0.0,0.0,0.0,0.0,0.0,0.0,0.0,0.0,0.0,0.0,0.0,0.0,0.0,0.0,0.0,0.0,0.0,0.0,-2.8516,-2.9442,-3.0338,-3.1145,-3.1614,-3.18,-3.2654,-3.3949,-3.5692,-3.6601,-3.7031,-3.7108,-3.7147,-3.6882,-3.6335,-3.5257,-3.4463,-3.3828,-3.2809,-3.2406,-3.2388,-3.2301,-3.2267,-3.2109,0.0,0.0,0.0,0.0,0.0,0.0,0.0,0.0,0.0,0.0,0.0,0.0,-2.8264,-2.8273,-2.8327,-2.8327,-2.8973,0.0,-3.0628,0.0,0.0,0.0,-3.3382,0.0,0.0,-3.352,-3.3577,-3.3671,-3.3726,0.0,-3.3815,-3.3868,-3.3921,-3.3947,-3.3568,-3.3247,-3.3271,-3.2614,-3.2154,-3.2154,-3.1931,-3.1782,-3.1737,-3.1714,-3.1784,-3.1977,-3.1996,-3.1996,-3.1972,-3.1924,-3.1746,-3.1507,-3.1458,-3.1403,-3.1327,-3.1327,-3.1902,-3.2963,-3.2989,-3.3283,-3.3815,-3.3842,-3.3842,-3.3915,-3.4715,-3.5265,-3.5758,-3.6821,-3.7312,-3.754,-3.7938,-3.802,-3.7899,0.0,0.0,0.0,0.0,0.0,0.0,0.0,0.0,0.0,0.0,0.0,0.0,0.0,0.0,0.0,0.0,0.0,0.0,0.0,0.0,-2.927,-2.9858,-3.0899,-3.1576,-3.18,-3.2654,-3.3616,-3.4669,-3.5574,-3.6057,-3.6171,-3.6171,-3.5925,-3.543,-3.4638,-3.3987,-3.3441,-3.2722,-3.2178,-3.1863,-3.1812,-3.155,-3.1097,0.0,0.0,0.0,0.0,0.0,0.0,0.0,0.0,0.0,0.0,0.0,0.0,-2.8182,-2.8237,-2.8246,-2.8246,-2.9124,0.0,-3.0632,-3.1624,-3.2619,-3.3184,0.0,0.0,0.0,-3.3481,-3.352,-3.3605,-3.3671,0.0,-3.3753,-3.3558,-3.339,-3.3416,-3.281,-3.2366,-3.239,-3.1733,-3.1255,-3.1255,-3.0976,-3.0791,-3.0705,-3.0705,-3.0831,-3.1057,-3.1075,-3.1075,-3.1028,-3.1004,-3.0809,-3.0454,-3.043,-3.0357,-3.0301,-3.0301,-3.0746,-3.1602,-3.2243,-3.2818,-3.3303,-3.366,-3.378,-3.3789,-3.4284,-3.4641,-3.495,-3.5836,-3.6375,-3.6671,-3.6949,-3.7048,-3.6966,0.0,0.0,0.0,0.0,0.0,0.0,0.0,0.0,0.0,0.0,0.0,0.0,0.0,0.0,0.0,0.0,0.0,0.0,0.0,0.0,0.0,0.0,0.0,0.0,0.0,0.0,0.0,0.0,-3.401,-3.4541,-3.4688,-3.4688,-3.4653,-3.4547,-3.3845,-3.3406,-3.323,-3.2546,-3.1776,-3.0991,-3.0991,-3.0487,-2.9721,-2.8958,0.0,0.0,0.0,0.0,0.0,0.0,0.0,0.0,-2.8042,0.0,-2.8099,-2.8182,-2.82,-2.8182,-2.8182,-2.9372,0.0,-3.0664,-3.1906,0.0,-3.3262,-3.3322,-3.3364,-3.3411,0.0,-3.3491,-3.3509,-3.355,-3.3561,-3.3588,-3.2983,-3.2485,-3.2562,-3.1888,-3.142,-3.1468,-3.0812,-3.0354,-3.029,-2.9687,-2.9262,-2.9197,-2.9178,-2.9488,-3.0139,-3.0176,-3.0152,-3.0081,-3.0081,-2.9685,-2.8905,-2.8905,-2.8858,-2.8785,-2.8785,-2.9168,-2.9915,-3.1545,-3.2401,-3.2637,-3.3423,-3.3753,-3.3698,-3.3698,-3.4081,-3.4681,-3.4702,-3.5145,-3.575,-3.5702,-3.5591,-3.5565,0.0,0.0,0.0,0.0,0.0,0.0,0.0,0.0,0.0,0.0,0.0,0.0,0.0,0.0,0.0,0.0,0.0,0.0,0.0,0.0,0.0,0.0,0.0,0.0,0.0,0.0,0.0,0.0,0.0,0.0,0.0,0.0,0.0,-3.374,0.0,-3.2809,-3.1619,-3.1444,-3.0886,-3.0052,-3.0021,-2.9883,-2.9624,-2.8795,-2.8501,0.0,0.0,0.0,0.0,0.0,0.0,0.0,-2.7917,-2.8032,-2.8099,-2.8126,-2.8154,-2.8182,-2.8182,-2.8923,0.0,0.0,-3.1798,-3.3042,-3.3135,-3.3147,-3.3226,-3.3364,-3.3393,-3.3422,-3.3509,-3.3011,-3.263,-3.2738,-3.2088,-3.1609,-3.1685,-3.1035,-3.0567,-3.0567,-2.9935,-2.9459,-2.9459,-2.9311,-2.9178,-2.913,-2.9112,-2.9181,-2.9278,-2.9297,-2.9232,-2.9185,-2.9185,-2.907,-2.881,-2.881,-2.8785,0.0,-2.8718,-2.8785,-2.8971,-3.0672,-3.2146,-3.3378,-3.3542,-3.3615,-3.3633,-3.3633,-3.3668,-3.3847,-3.4454,-3.4758,-3.4932,-3.5389,-3.5508,-3.5511,0.0,0.0,0.0,0.0,0.0,0.0,0.0,0.0,0.0,0.0,0.0,0.0,0.0,0.0,0.0,0.0,0.0,0.0,0.0,0.0,0.0,0.0,0.0,0.0,0.0,0.0,0.0,0.0,0.0,0.0,0.0,0.0,0.0,-3.2844,0.0,-3.2197,-3.0993,-3.0993,-3.0296,-2.9186,-2.9138,-2.8897,-2.8485,-2.8056,-2.79,-2.7881,-2.7577,0.0,0.0,0.0,0.0,0.0,0.0,0.0,-2.8014,-2.8042,-2.8099,-2.8154,-2.8154,0.0,0.0,-3.0796,0.0,-3.2406,-3.245,-3.2481,-3.2403,-3.2209,-3.2473,-3.2676,-3.2363,-3.2001,-3.1738,-3.1818,-3.1221,-3.0741,-3.0766,-3.016,-2.9669,-2.9669,-2.937,-2.9134,-2.9108,-2.9134,-2.9112,-2.9062,-2.9044,-2.904,-2.9017,-2.8952,-2.8929,-2.8905,-2.8881,-2.8834,-2.8761,-2.8761,-2.8712,-2.8644,-2.8644,-2.9036,-2.9771,-3.0711,-3.2019,-3.3549,-3.3577,-3.3577,-3.3549,-3.3549,-3.3491,-3.3488,-3.3905,-3.4027,-3.399,-3.4263,-3.4311,-3.4267,0.0,0.0,0.0,0.0,0.0,0.0,0.0,0.0,0.0,0.0,0.0,0.0,0.0,0.0,0.0,0.0,0.0,0.0,0.0,0.0,0.0,0.0,0.0,0.0,0.0,0.0,0.0,0.0,0.0,0.0,0.0,0.0,0.0,-3.2108,0.0,-3.1638,-3.0698,-3.0698,-2.9744,-2.8308,-2.8308,-2.7881,-2.7299,-2.7299,-2.7299,-2.733,-2.7393,-2.7438,-2.7496,-2.7557,0.0,0.0,0.0,0.0,-2.7917,-2.7957,-2.8042,-2.8099,0.0,0.0,-2.9679,-3.0975,-3.1403,0.0,-3.1565,-3.1596,-3.1381,-3.0697,-3.1268,-3.1686,-3.1084,-3.093,-3.0848,-3.0875,-3.0305,-2.9875,-2.9875,-2.9373,-2.8994,-2.8994,-2.9062,-2.9062,-2.9017,-2.9062,-2.9062,-2.9017,-2.8994,-2.8994,-2.8975,-2.8929,-2.8905,-2.8881,-2.881,-2.8761,-2.8669,-2.8669,-2.8662,-2.8587,-2.8562,-2.9321,-3.0758,-3.0957,-3.1937,-3.3481,-3.3549,-3.352,-3.3481,-3.3481,-3.3452,-3.3393,-3.3382,-3.3352,-3.3262,-3.3135,-3.3011,-3.2973,0.0,0.0,0.0,0.0,0.0,0.0,0.0,0.0,0.0,0.0,0.0,0.0,0.0,0.0,0.0,0.0,0.0,0.0,-2.6589,0.0,0.0,-2.9113,-2.9932,0.0,0.0,0.0,0.0,0.0,0.0,0.0,0.0,0.0,0.0,-3.2108,0.0,0.0,-2.9849,-2.9849,-2.8949,-2.7469,-2.7469,-2.7417,-2.7299,-2.7299,-2.7299,-2.733,-2.7393,-2.7407,-2.7438,-2.7557,-2.7617,0.0,0.0,0.0,-2.7888,-2.7917,-2.7957,-2.7996,0.0,0.0,-2.9401,0.0,-3.019,-3.0672,0.0,0.0,-3.0469,0.0,-3.0356,-3.0962,-3.091,-3.036,-2.9926,-3.0031,-2.941,-2.8931,-2.9051,-2.8978,-2.8929,-2.8994,-2.9017,-2.9017,-2.8994,-2.9017,-2.9017,-2.8994,-2.8994,-2.8975,-2.8929,-2.8887,-2.8858,-2.8718,-2.8718,-2.8687,-2.8612,-2.8612,-2.8587,-2.8492,-2.8458,-2.89,-2.9809,-3.053,-3.1776,-3.3393,-3.3422,-3.3422,-3.3393,-3.3393,-3.3411,-3.3393,-3.3322,-3.331,-3.328,-3.3091,-3.2979,-3.2902,0.0,0.0,0.0,0.0,0.0,0.0,0.0,0.0,0.0,0.0,0.0,0.0,0.0,0.0,0.0,-2.5146,-2.5999,-2.6537,-2.6657,-2.7367,-2.7977,-2.8315,-2.9096,-2.9712,-3.0037,0.0,0.0,0.0,0.0,0.0,0.0,-3.127,-3.1548,0.0,0.0,0.0,0.0,-2.9142,-2.8315,-2.7299,-2.7299,-2.7299,-2.7299,-2.7299,-2.7299,-2.7282,-2.7313,-2.7393,-2.7407,-2.7469,-2.7544,-2.7617,-2.763,0.0,0.0,0.0,-2.7553,-2.7957,-2.7986,-2.8291,-2.8692,0.0,-2.9473,-2.9751,-2.9828,0.0,-2.9643,-2.8915,-2.9078,-2.9384,-2.9476,-2.9206,-2.9007,-2.9112,-2.8855,-2.8687,-2.8767,-2.8839,-2.8905,-2.8929,-2.8994,-2.8994,-2.8994,-2.8994,-2.8975,-2.8952,-2.8952,-2.8905,-2.8858,-2.881,-2.8743,-2.8694,-2.8644,-2.8612,-2.8543,-2.8543,-2.851,-2.8432,-2.8406,-2.882,-2.9638,-3.0438,-3.1456,-3.2642,-3.3123,-3.3352,-3.3352,-3.3364,-3.3382,-3.3352,-3.3292,-3.3232,-3.3122,-3.3011,-3.2884,-3.2705,0.0,0.0,0.0,0.0,0.0,0.0,0.0,0.0,0.0,0.0,0.0,0.0,0.0,0.0,0.0,0.0,-2.5965,-2.6503,-2.6674,-2.7198,-2.7587,-2.7772,-2.8383,-2.8808,-2.9085,0.0,0.0,0.0,0.0,0.0,-3.035,-3.035,-3.0679,0.0,-3.0888,-3.0197,0.0,-2.8627,-2.7971,-2.7299,-2.7299,-2.7299,-2.7299,-2.7299,-2.7299,-2.7299,-2.7299,-2.733,-2.7393,-2.7376,-2.7469,-2.7557,-2.7557,-2.749,0.0,0.0,0.0,-2.7289,0.0,0.0,0.0,0.0,-2.8676,-2.8865,0.0,0.0,-2.8809,0.0,-2.8182,-2.8209,-2.8345,-2.8353,-2.8406,-2.8458,-2.8536,-2.8612,-2.8687,-2.8785,-2.8858,-2.8881,-2.8905,-2.8947,-2.8947,-2.8947,-2.8947,-2.8881,-2.8881,-2.8858,-2.8785,-2.8737,-2.8669,-2.8644,-2.8612,-2.8536,-2.8484,-2.8458,-2.8406,-2.8345,-2.8327,-2.8631,-2.9223,-3.0001,-3.0837,-3.1655,-3.2751,-3.3262,-3.3244,-3.3304,-3.3304,-3.3262,-3.3232,-3.3122,-3.2997,-3.2965,-3.282,-3.2606,0.0,0.0,0.0,0.0,0.0,0.0,0.0,0.0,0.0,0.0,0.0,0.0,-2.3637,-2.4496,-2.506,-2.5094,-2.5844,-2.64,-2.6606,-2.6708,-2.7063,-2.7755,-2.7823,0.0,-2.8994,0.0,0.0,0.0,0.0,0.0,-2.9472,-2.9472,-2.9524,-2.9661,-3.0368,-2.9851,-2.8454,-2.842,-2.7971,-2.7299,-2.7299,-2.7299,-2.7299,-2.7299,-2.7299,-2.7299,-2.7299,-2.7299,-2.7313,-2.7376,-2.7407,-2.7407,-2.7483,-2.7068,-2.6533,0.0,0.0,0.0,0.0,0.0,0.0,0.0,0.0,0.0,0.0,0.0,0.0,0.0,-2.8099,-2.8126,-2.8182,-2.8246,-2.8327,-2.838,-2.8458,-2.8536,-2.8587,-2.8662,-2.8718,-2.8785,-2.881,-2.881,-2.881,-2.881,-2.881,-2.881,-2.881,-2.8785,-2.8694,-2.8694,-2.8644,-2.8518,-2.8492,-2.8466,-2.8424,-2.8353,-2.8273,-2.8209,-2.8154,-2.8116,-2.8113,-2.8847,-2.9656,-3.0594,-3.236,-3.3117,-3.3117,-3.3117,-3.3117,-3.3086,-3.3042,-3.3028,-3.2979,-3.2838,-3.2722,-3.2606,0.0,0.0,0.0,0.0,0.0,0.0,0.0,0.0,0.0,0.0,0.0,0.0,0.0,-2.4825,-2.5292,-2.5773,-2.6092,-2.6382,-2.6589,-2.664,-2.6775,-2.708,-2.7097,-2.7232,-2.7503,0.0,0.0,0.0,0.0,-2.8032,-2.8579,-2.8579,-2.8579,-2.863,-2.9059,-2.892,-2.8368,-2.7885,-2.7491,-2.7184,-2.7184,-2.7184,-2.7235,-2.7751,-2.7973,-2.8075,-2.8541,-2.8403,-2.8006,-2.8038,-2.7742,-2.7407,-2.7438,-2.6961,-2.6336,-2.583,-2.517,-2.4734,0.0,0.0,0.0,0.0,0.0,0.0,0.0,-2.7575,-2.7957,-2.8014,-2.8042,-2.8042,-2.8071,-2.8154,-2.8264,-2.8327,-2.8353,-2.8406,-2.8536,-2.8587,-2.8662,-2.8737,-2.8785,-2.8785,-2.8785,-2.8785,-2.8785,-2.8737,-2.8687,-2.8637,-2.8569,-2.8536,-2.8484,-2.8432,-2.8432,-2.838,-2.8264,-2.8209,-2.8154,-2.8071,-2.8042,-2.8025,-2.8032,-2.8765,-2.9573,-3.0401,-3.1578,-3.242,-3.3042,-3.3086,-3.3055,-3.3042,-3.3011,-3.2965,-3.287,-3.2823,-3.2707,-3.2523,0.0,0.0,0.0,0.0,0.0,0.0,0.0,0.0,0.0,0.0,0.0,0.0,0.0,0.0,-2.6101,-2.6882,-2.6989,-2.6981,-2.6889,-2.6907,-2.6807,-2.6657,-2.6674,-2.6674,-2.6691,0.0,0.0,0.0,0.0,0.0,0.0,-2.7708,-2.7708,-2.7742,-2.7617,-2.7717,0.0,0.0,-2.7137,-2.7087,-2.7087,-2.7225,-2.7499,-2.8064,-2.8491,-2.8817,-2.9334,-2.9196,-2.873,-2.8489,-2.8107,-2.7673,-2.7431,-2.6714,-2.5762,-2.4729,-2.4121,-2.3868,-2.4374,0.0,0.0,0.0,0.0,-2.6163,-2.6247,0.0,-2.7095,-2.7134,-2.7161,-2.7161,-2.7234,-2.7289,-2.7549,-2.8147,-2.8246,-2.83,-2.8432,-2.8484,-2.8562,-2.8619,-2.8687,-2.8712,-2.8737,-2.8712,-2.8687,-2.8644,-2.8587,0.0,-2.8484,-2.8406,-2.8398,-2.8327,-2.8291,-2.8219,-2.8126,-2.8099,-2.8042,-2.7957,-2.7911,-2.7882,-2.7871,-2.8352,-2.9175,-3.026,-3.0808,-3.1717,-3.2884,-3.293,-3.2898,-3.2884,-3.2884,-3.282,-3.274,-3.2707,-3.2608,-3.2473,0.0,0.0,0.0,0.0,0.0,0.0,0.0,0.0,0.0,-2.5681,0.0,0.0,0.0,0.0,0.0,-2.8323,-2.845,-2.821,-2.7478,-2.7501,-2.7255,-2.6673,-2.6657,-2.6674,-2.6725,0.0,0.0,0.0,0.0,0.0,0.0,0.0,-2.6909,-2.6923,-2.6204,-2.6273,-2.6923,0.0,-2.699,-2.694,-2.6975,-2.7418,-2.8118,-2.8253,-2.8785,-2.9437,-2.9541,-2.9558,-2.9437,-2.8713,-2.8437,-2.8265,-2.7489,-2.629,-2.4809,-2.3337,-2.2911,-2.2893,0.0,0.0,0.0,0.0,0.0,0.0,-2.5339,0.0,-2.5401,-2.5482,-2.5482,-2.5526,-2.5649,-2.5693,-2.6189,-2.7751,-2.8083,-2.8138,-2.8228,-2.8299,-2.837,-2.8456,-2.8474,-2.8518,-2.8587,-2.8536,-2.851,-2.851,-2.8432,-2.838,-2.838,-2.838,-2.8345,-2.8182,-2.8071,-2.8014,-2.7996,-2.7996,-2.7957,-2.7888,-2.7748,-2.7659,-2.7587,-2.7526,-2.8442,-3.0103,-3.0103,-3.1029,-3.2606,-3.2606,-3.2606,-3.2606,-3.2606,-3.2606,-3.2606,-3.2523,-3.2507,-3.2456,0.0,0.0,0.0,0.0,0.0,0.0,0.0,0.0,-2.7122,0.0,0.0,0.0,-2.763,-2.7804,-2.8042,-2.8357,-2.8412,-2.8367,-2.8227,-2.821,-2.8185,-2.8059,-2.754,-2.7274,-2.7293,0.0,0.0,0.0,0.0,0.0,0.0,0.0,0.0,0.0,-2.5775,-2.5486,-2.5246,-2.5917,0.0,-2.6094,-2.6687,-2.7368,-2.81,-2.8646,-2.9434,-3.0278,-3.081,-3.0728,-3.0334,-3.0127,-2.9317,-2.8178,-2.6851,-2.5781,-2.4827,-2.3826,-2.3206,-2.2842,-2.2842,0.0,0.0,0.0,0.0,0.0,0.0,0.0,0.0,-2.5265,-2.5292,-2.5292,-2.5337,-2.5337,-2.5505,-2.6008,-2.626,-2.6436,-2.6558,-2.7048,-2.7422,-2.7551,-2.8072,-2.8432,-2.8432,-2.8432,-2.8432,0.0,-2.8318,-2.8264,-2.8264,-2.8154,-2.8081,-2.8071,-2.8014,-2.794,-2.7789,-2.7789,-2.7719,-2.7604,-2.7569,-2.7557,-2.7526,-2.7496,-2.8363,-2.9859,-2.9859,-3.0765,-3.2284,-3.2506,-3.2606,-3.2606,-3.2606,-3.2573,-3.2523,-3.2507,-3.2387,-3.2249,0.0,0.0,0.0,0.0,0.0,0.0,0.0,0.0,-2.7623,0.0,0.0,0.0,-2.8688,-2.9426,-2.9839,-2.9666,-2.965,-2.9426,-2.8915,-2.8882,-2.8788,-2.8565,-2.8169,-2.7785,-2.7504,0.0,0.0,0.0,0.0,0.0,0.0,0.0,0.0,0.0,0.0,0.0,0.0,0.0,0.0,-2.5741,-2.6487,-2.7471,-2.8472,-2.8915,-2.9805,-3.0922,-3.1405,-3.1359,-3.102,-3.0711,-2.9627,-2.8127,-2.6592,-2.5786,-2.5188,-2.4087,-2.345,-2.3081,-2.2798,-2.2738,-2.279,-2.2825,0.0,0.0,-2.358,-2.3928,-2.4242,0.0,-2.4215,-2.4215,-2.4215,-2.4187,-2.4187,-2.4242,-2.4392,-2.4778,-2.5656,-2.6169,-2.6506,-2.6591,-2.702,-2.7458,-2.7762,-2.7798,-2.7915,-2.8255,-2.8182,-2.8126,-2.8126,-2.7968,-2.7864,-2.7864,-2.7824,-2.7736,-2.763,-2.763,-2.7569,-2.7496,-2.7483,-2.7608,-2.7921,-2.7889,-2.8722,-3.0213,-3.0213,-3.0924,-3.2108,-3.2301,-3.2404,-3.2438,-3.2489,-3.2456,-3.2353,-3.2353,-3.2284,-3.2144,0.0,0.0,0.0,0.0,0.0,0.0,0.0,0.0,0.0,0.0,-2.8142,-2.8718,-3.0071,-3.1475,-3.2073,-3.1522,-3.1517,-3.0968,-2.9707,-2.9608,-2.9334,-2.8755,-2.8638,-2.831,-2.7718,0.0,0.0,0.0,0.0,0.0,0.0,0.0,0.0,0.0,0.0,0.0,0.0,0.0,0.0,-2.5676,-2.6404,-2.7604,-2.9011,-2.9049,-3.0003,-3.1295,-3.1462,-3.1538,-3.1459,-3.0619,-2.9523,-2.8215,-2.6682,-2.6086,-2.5729,-2.4344,-2.3824,-2.3591,-2.2997,-2.2836,-2.2863,-2.298,-2.2954,0.0,-2.2963,-2.292,-2.2868,0.0,0.0,-2.2764,0.0,-2.2712,-2.2685,-2.2764,-2.2764,-2.3363,-2.5059,-2.5446,-2.5569,-2.5646,-2.5717,-2.6063,-2.6774,-2.689,-2.7192,-2.7903,-2.7961,-2.7968,-2.7957,-2.776,-2.7672,-2.7672,-2.7569,-2.7496,-2.7465,-2.7465,-2.75,-2.7556,-2.7497,-2.7863,-2.8589,-2.8523,-2.9333,-3.075,-3.075,-3.1254,-3.2073,-3.2073,-3.2108,-3.2179,-3.2319,-3.2301,-3.2179,-3.2179,-3.2144,-3.2037,-2.733,0.0,0.0,0.0,0.0,0.0,0.0,0.0,0.0,-3.0186,-3.0797,-3.1329,-3.1743,-3.202,-3.2194,-3.2122,-3.2105,-3.179,-3.1067,-3.1018,-3.0731,-3.0129,-2.9533,-2.9175,-2.9025,-2.7956,0.0,0.0,0.0,0.0,0.0,0.0,0.0,0.0,0.0,0.0,0.0,0.0,0.0,-2.5676,-2.6404,-2.7604,-2.9011,-2.9011,-2.9983,-3.1295,-3.1351,-3.1406,-3.1295,-2.993,-2.928,-2.8767,-2.7279,-2.6424,-2.5846,-2.5555,-2.4995,-2.4466,-2.433,-2.4279,-2.4308,-2.4338,-2.3876,0.0,-2.347,-2.3007,-2.2579,0.0,-2.2569,-2.2569,0.0,0.0,-2.2525,-2.2569,-2.2605,-2.2842,-2.3422,-2.4094,-2.4532,-2.466,-2.5252,-2.572,-2.5914,-2.6499,-2.688,-2.704,-2.7483,-2.7719,-2.7617,-2.7557,-2.7539,-2.7539,-2.7526,-2.7417,-2.7244,-2.7244,-2.7508,-2.7996,-2.7963,-2.8357,-2.9059,-2.9059,-2.9608,-3.0554,-3.0554,-3.1057,-3.1856,-3.1912,-3.202,-3.2108,-3.2161,-3.2144,-3.2108,-3.2108,-3.2001,-3.1856,-2.8,0.0,0.0,0.0,0.0,0.0,0.0,0.0,0.0,0.0,0.0,-3.2724,-3.3113,-3.347,-3.3584,-3.3306,-3.3289,-3.291,-3.1905,-3.1555,-3.121,-3.0919,-3.0236,-2.9733,-2.9369,-2.8704,0.0,0.0,0.0,0.0,0.0,0.0,0.0,0.0,0.0,0.0,0.0,0.0,-2.5206,-2.5676,-2.6404,0.0,-2.9011,-2.9011,-2.9926,-3.1252,-3.1252,-3.1329,-3.1168,-2.9687,-2.9211,-2.8955,-2.7486,-2.6736,-2.6328,-2.5904,-2.5482,-2.5077,-2.4734,-2.4662,-2.4662,-2.4692,-2.4142,0.0,0.0,-2.3016,-2.246,-2.246,-2.2405,-2.2332,-2.2332,0.0,-2.226,-2.2332,-2.2388,-2.247,-2.2632,-2.3145,-2.3519,-2.3597,-2.3998,-2.4436,-2.4848,-2.5235,-2.578,-2.6525,-2.7239,-2.7569,-2.7496,-2.7386,-2.7528,-2.7944,-2.7848,-2.7906,-2.8201,-2.8218,-2.8339,-2.8664,-2.8664,-2.9057,-2.9809,-2.9809,-3.0219,-3.1011,-3.1031,-3.1291,-3.1709,-3.1819,-3.1893,-3.1965,-3.2037,-3.2073,-3.1984,-3.1965,-3.1856,-3.1709,-2.8529,0.0,0.0,0.0,0.0,0.0,0.0,0.0,0.0,0.0,0.0,0.0,-3.4246,-3.4959,-3.5221,-3.472,-3.4672,-3.4137,-3.2779,-3.2174,-3.1778,-3.1499,-3.0882,-3.0309,-2.9708,-2.9461,-2.8708,0.0,0.0,0.0,0.0,0.0,0.0,0.0,0.0,0.0,0.0,0.0,0.0,-2.5847,0.0,-2.7604,-2.9011,-2.9011,-2.9905,-3.119,-3.119,-3.1128,-3.0887,-2.96,-2.9038,-2.8697,-2.7351,-2.6909,-2.6723,-2.6095,-2.5844,-2.5676,-2.5164,-2.4995,-2.5026,-2.5057,-2.4407,-2.3743,0.0,0.0,0.0,-2.2304,0.0,0.0,0.0,0.0,0.0,0.0,0.0,0.0,0.0,-2.2497,0.0,-2.2738,-2.2816,0.0,-2.3763,-2.4093,-2.484,-2.6202,-2.7018,-2.7434,-2.7404,-2.7261,-2.7511,-2.8302,-2.8185,-2.8459,-2.9175,-2.9175,-2.9261,-2.9361,-2.9361,-2.9787,-3.0554,-3.0554,-3.0878,-3.1462,-3.1521,-3.1493,-3.1411,-3.1502,-3.1576,-3.1629,-3.1913,-3.1948,-3.1839,-3.1783,-3.1671,-3.1504,-2.8716,-2.8967,0.0,0.0,0.0,0.0,0.0,0.0,0.0,0.0,0.0,0.0,-3.5056,-3.572,-3.6141,-3.606,-3.606,-3.5497,-3.4137,-3.3991,-3.3403,-3.2253,-3.1532,-3.1166,-3.1084,-2.9805,-2.8739,0.0,0.0,0.0,0.0,0.0,0.0,0.0,-2.5392,0.0,0.0,0.0,-2.5816,0.0,-2.6641,-2.7604,0.0,-2.9011,-2.9905,-3.119,-3.119,-3.0768,-3.0091,0.0,-2.8554,-2.7842,-2.6996,-2.6742,-2.6708,-2.6623,-2.6573,-2.6556,-2.6471,-2.6437,-2.6454,-2.6387,-2.5326,-2.4264,-2.4171,0.0,-2.2056,-2.2056,0.0,0.0,-2.2027,0.0,0.0,0.0,0.0,0.0,-2.2027,-2.2175,-2.2332,-2.2515,-2.2579,-2.2693,0.0,-2.4102,-2.5212,-2.5997,-2.6736,-2.7103,-2.7072,-2.704,-2.7349,-2.8117,-2.8118,-2.8442,-2.9102,-2.9102,-2.9406,-3.001,-3.001,-3.04,-3.1111,-3.1111,-3.1184,-3.1295,-3.1334,-3.1052,-3.0638,-3.0638,-3.0728,-3.0886,-3.1578,-3.1746,-3.1617,-3.1617,-3.1504,-3.1334,-2.8841,-2.9013,0.0,0.0,0.0,0.0,0.0,0.0,0.0,0.0,0.0,0.0,-3.6335,-3.6707,-3.6902,-3.6902,-3.6902,-3.6465,-3.5513,-3.4688,-3.3925,-3.3372,-3.2376,-3.1622,-3.1197,-3.0637,-2.9812,-2.8649,-2.7968,0.0,0.0,0.0,0.0,0.0,-2.5837,0.0,-2.6262,0.0,-2.6418,0.0,0.0,-2.8245,0.0,-2.9144,-2.9905,-3.119,-3.119,-3.0734,-2.9989,0.0,-2.8467,0.0,0.0,0.0,-2.6691,-2.6691,-2.6674,-2.6657,-2.6657,-2.6623,-2.6454,-2.6017,-2.5094,-2.4156,-2.3723,-2.2755,-2.194,-2.194,0.0,0.0,0.0,0.0,0.0,0.0,-2.1738,0.0,0.0,0.0,-2.202,0.0,0.0,0.0,-2.2515,0.0,0.0,-2.5223,-2.637,-2.704,-2.7007,-2.6942,-2.747,-2.8628,-2.8556,-2.9059,-3.0205,-3.0167,-3.0297,-3.06,-3.06,-3.0825,-3.119,-3.119,-3.123,-3.1252,-3.1257,-3.0925,-3.0319,-3.0409,-3.0499,-3.057,-3.0879,-3.1256,-3.1579,-3.1466,-3.1351,-3.1213,-2.8967,-2.9029,0.0,0.0,0.0,0.0,0.0,0.0,0.0,0.0,0.0,-3.5958,-3.7342,-3.7681,-3.7818,-3.8012,-3.7907,-3.7559,-3.6864,-3.5635,-3.4797,-3.4408,-3.3324,-3.238,-3.1665,-3.1365,-3.0593,0.0,0.0,0.0,0.0,0.0,0.0,0.0,0.0,-2.6239,-2.6293,0.0,-2.7019,-2.7681,-2.7919,-2.8851,-3.0074,-2.9719,-3.026,-3.119,-3.119,-3.0581,-2.9664,-2.9124,-2.8296,0.0,-2.6809,-2.6657,-2.6657,0.0,-2.6589,-2.6572,-2.6572,0.0,0.0,0.0,0.0,0.0,0.0,-2.2478,-2.1869,-2.184,-2.1768,0.0,0.0,0.0,-2.1542,-2.1589,0.0,-2.1542,0.0,-2.1634,0.0,0.0,0.0,0.0,0.0,0.0,-2.4377,-2.4533,-2.5822,-2.6655,-2.6876,-2.6826,-2.747,-2.896,-2.8864,-2.9496,-3.0975,-3.0935,-3.0952,-3.1015,-3.1015,-3.1112,-3.119,-3.119,-3.119,-3.119,-3.1031,-3.0561,-2.9884,-2.9807,-2.9877,-3.0065,-3.0029,-3.0646,-3.1466,-3.1312,-3.1213,-3.1112,-2.9075,-2.9075,0.0,0.0,0.0,0.0,0.0,0.0,0.0,0.0,-3.5663,-3.6538,-3.7914,-3.8627,-3.9198,-3.9886,-3.9429,-3.8856,-3.8075,-3.7503,-3.6594,-3.5202,-3.4424,-3.3712,-3.3032,-3.1639,-3.0571,0.0,0.0,0.0,0.0,0.0,0.0,0.0,0.0,-2.622,-2.6253,-2.7042,-2.7467,-2.766,-2.8454,-2.9286,-3.0192,0.0,-3.1157,-3.119,-3.119,0.0,0.0,-2.8827,-2.778,0.0,0.0,0.0,0.0,0.0,0.0,0.0,0.0,0.0,0.0,-2.5413,0.0,0.0,0.0,0.0,-2.1781,0.0,-2.1708,-2.1694,-2.162,-2.1495,-2.1464,-2.1589,-2.1495,0.0,0.0,0.0,0.0,0.0,0.0,0.0,0.0,-2.2765,-2.3536,-2.4175,-2.4994,-2.5782,-2.6572,-2.6554,-2.7226,-2.876,-2.8753,-2.942,-3.0895,-3.0992,-3.1015,-3.1015,-3.1151,-3.119,-3.119,-3.119,-3.119,-3.1157,-3.0446,-2.9756,-2.9085,-2.8354,-2.8544,-2.9245,-2.9172,-2.998,-3.119,-3.119,-3.1112,-3.0975,-2.9075,-2.9075,0.0,0.0,0.0,0.0,0.0,-3.2894,0.0,-3.5385,-3.6589,-3.7623,-3.8584,-3.9262,-3.9713,-3.9952,-3.9822,-3.945,-3.8745,-3.8139,-3.7431,-3.648,-3.5392,-3.4473,-3.3777,-3.2838,-3.1769,-3.0571,0.0,0.0,0.0,0.0,0.0,0.0,0.0,-2.6468,0.0,0.0,0.0,0.0,0.0,-3.056,-3.0852,0.0,-3.1151,-3.0988,-3.0499,-2.9652,0.0,-2.8182,-2.7324,-2.6485,-2.6485,-2.6485,-2.6485,-2.6485,-2.6434,-2.6382,0.0,0.0,-2.6092,-2.5344,0.0,0.0,0.0,0.0,0.0,0.0,0.0,0.0,-2.2932,-2.2443,-2.2086,-2.2134,-2.1696,-2.134,0.0,0.0,0.0,0.0,-2.1691,-2.1811,0.0,0.0,0.0,-2.4143,-2.4945,-2.5732,-2.6469,-2.652,-2.6972,-2.7981,-2.8373,-2.9015,-3.0039,-3.054,-3.0855,-3.0935,-3.1015,-3.1112,-3.119,-3.119,-3.092,-3.0463,-3.0226,-2.9381,-2.8232,-2.7961,-2.8047,-2.8318,-2.8735,-2.9492,-3.042,-3.0886,-3.0935,-3.084,-2.9453,-2.9501,0.0,0.0,0.0,0.0,0.0,0.0,0.0,-3.6014,-3.7157,-3.8184,-3.9202,-3.9813,-4.0339,-4.0562,-4.0371,-4.0003,-3.9361,-3.882,-3.8042,-3.715,-3.6379,-3.5477,-3.4505,-3.3809,-3.274,-3.1316,0.0,-2.9745,0.0,0.0,0.0,0.0,0.0,-2.6468,-2.6932,-2.7483,-2.8377,0.0,0.0,-3.119,0.0,0.0,-3.1072,-3.0874,0.0,-2.9319,-2.8524,-2.7771,-2.7016,-2.638,-2.638,-2.638,-2.638,-2.638,-2.6329,-2.6277,-2.6277,-2.6187,0.0,-2.5207,-2.4661,0.0,-2.3293,0.0,-2.3096,0.0,0.0,0.0,0.0,-2.3158,-2.2701,-2.2442,-2.2005,-2.1616,0.0,-2.134,-2.1355,-2.1355,-2.1526,-2.1694,0.0,-2.2228,-2.2853,-2.3696,-2.4446,-2.523,0.0,0.0,-2.6749,-2.7504,-2.7877,-2.8555,-2.9576,-3.0116,-3.0563,-3.0952,-3.1032,-3.0977,-3.0818,-3.0818,-3.0412,-2.9685,-2.9414,-2.8738,-2.7772,-2.7537,-2.7553,-2.7822,-2.8525,-2.9227,-2.9872,-3.061,-3.0773,-3.0593,-3.0101,-3.0259,0.0,0.0,-3.1478,0.0,0.0,0.0,-3.5125,-3.6702,-3.7393,-3.8321,-3.9656,-4.0262,-4.0909,-4.1525,-4.1102,-4.0483,-3.9847,-3.939,-3.8557,-3.7214,-3.7229,-3.6659,-3.5266,-3.4522,-3.3453,-3.2012,0.0,0.0,0.0,0.0,0.0,0.0,-2.6425,0.0,-2.6369,-2.7777,-2.8577,-2.895,-3.0538,-3.1112,-3.1015,-3.0975,-3.0975,-3.0891,-3.0057,-2.9204,-2.8355,-2.7611,-2.6839,-2.622,-2.622,-2.622,-2.622,-2.622,-2.622,-2.622,-2.6168,-2.6115,-2.5845,-2.5118,-2.4886,0.0,0.0,0.0,-2.3734,0.0,0.0,0.0,0.0,0.0,0.0,-2.2604,-2.2442,-2.2151,-2.1391,-2.1309,-2.1309,-2.1309,-2.1481,-2.1603,-2.1694,-2.1694,-2.2021,-2.2841,-2.3553,-2.4298,0.0,0.0,-2.6504,-2.7328,-2.7321,-2.8002,-2.9459,-2.9677,-3.0124,-3.0914,-3.1033,-3.0717,-3.0057,-3.0057,-2.9634,-2.889,-2.8146,-2.7772,-2.7688,-2.6996,-2.7062,-2.7717,-2.8474,-2.908,-2.9676,-3.0409,-3.0584,-3.0333,-3.0923,-3.1365,-3.1902,0.0,-3.2787,-3.3261,0.0,0.0,0.0,0.0,-3.7967,-3.9185,-3.9534,-4.0609,-4.1399,-4.1573,-4.1053,-4.0357,-3.9629,-3.91,-3.8499,-3.7751,-3.7319,-3.6809,-3.6027,-3.5283,-3.3955,-3.2012,-3.1817,0.0,-2.961,0.0,0.0,0.0,0.0,0.0,-2.7101,-2.803,-2.916,-3.0392,-3.096,-3.1112,-3.0975,0.0,-3.0855,-3.0606,-2.9299,-2.8655,-2.8213,-2.6936,-2.6369,-2.622,-2.622,-2.622,-2.622,-2.622,-2.622,-2.6168,-2.6079,-2.6026,-2.5941,-2.5724,-2.5228,-2.4751,0.0,0.0,0.0,0.0,0.0,0.0,0.0,0.0,0.0,-2.3981,-2.3074,-2.2151,-2.1391,-2.1309,-2.1309,-2.1309,-2.1356,-2.1402,-2.1448,-2.1573,-2.1977,-2.2764,-2.3041,0.0,0.0,0.0,0.0,-2.6488,-2.7035,-2.7483,-2.7902,-2.8619,-2.9101,-2.9269,-2.9475,-2.9448,-2.9262,-2.9262,-2.8839,-2.8112,-2.7909,-2.745,-2.691,-2.6708,-2.6689,-2.6872,-2.752,-2.84,-2.9468,-3.0195,-3.0333,-3.006,-3.1618,-3.2471,0.0,-3.3656,0.0,0.0,-3.5173,-3.59,0.0,-3.6848,-3.816,0.0,-3.906,-4.0024,-4.0672,-4.0672,-4.034,-3.9819,-3.9123,-3.8803,-3.846,-3.7892,-3.7721,-3.7157,-3.6335,-3.5882,-3.4619,-3.2481,-3.2158,0.0,-3.0295,0.0,0.0,0.0,0.0,-2.6435,-2.6882,-2.804,-2.9454,-3.0912,-3.1112,-3.1112,0.0,-3.0912,-3.0773,-3.041,-2.8965,-2.8412,-2.8158,-2.67,-2.622,-2.622,-2.622,-2.622,-2.622,-2.622,-2.6168,-2.6115,-2.6026,-2.5937,-2.5864,-2.5828,-2.546,-2.5147,-2.511,-2.5074,-2.5021,0.0,-2.5324,-2.5616,0.0,0.0,0.0,-2.4547,-2.3576,-2.2604,-2.1892,-2.1795,-2.1665,-2.1357,-2.1309,-2.1309,-2.1355,-2.1511,-2.1814,-2.2271,-2.2694,0.0,0.0,0.0,0.0,-2.6187,-2.6601,-2.6985,-2.7337,-2.7864,-2.8306,-2.8716,-2.8827,-2.8696,-2.8376,-2.8376,-2.7955,-2.7212,-2.7212,-2.6958,-2.6554,-2.6554,-2.6503,-2.6465,-2.7055,-2.7844,-2.8788,-2.9468,-2.9783,-2.9913,-3.2443,-3.3482,0.0,0.0,0.0,0.0,0.0,-3.6564,0.0,-3.7401,0.0,-3.8507,-3.8507,-3.9108,-3.9503,-3.9503,-3.9424,-3.9123,-3.8555,-3.8518,-3.8364,-3.7892,-3.8107,-3.7576,-3.6335,-3.6303,-3.525,-3.308,-3.2368,0.0,0.0,0.0,0.0,0.0,0.0,0.0,0.0,-2.8052,-2.9571,-3.0912,-3.1112,-3.1072,-3.0912,-3.0912,-3.0733,-3.0328,-2.8903,-2.8412,-2.8158,-2.67,-2.622,-2.622,-2.622,-2.622,-2.622,-2.622,-2.6115,-2.601,-2.599,-2.5864,-2.5701,-2.5701,-2.5659,-2.5616,-2.5616,-2.5616,-2.5616,-2.5616,-2.5578,-2.5578,0.0,0.0,0.0,0.0,0.0,0.0,-2.2637,-2.2539,-2.2264,-2.1535,-2.1455,0.0,-2.1294,-2.1481,-2.1603,-2.1694,-2.2363,0.0,0.0,0.0,0.0,-2.6187,-2.622,-2.6538,-2.7225,0.0,-2.7631,-2.8394,-2.8394,-2.8095,-2.7458,-2.7458,-2.7123,-2.6485,-2.6485,-2.6485,-2.645,-2.645,-2.6364,-2.6291,-2.6871,-2.7339,-2.7818,-2.8524,-2.9119,-2.9592,-3.3814,0.0,0.0,0.0,0.0,-3.6627,-3.7196,-3.7291,-3.7338,-3.7464,-3.8081,-3.8507,-3.8507,-3.9108,-3.9503,-3.9503,-3.8997,-3.8634,-3.8523,-3.809,-3.7886,-3.7876,-3.8107,-3.7576,-3.6335,-3.6303,-3.525,-3.308,-3.2368,0.0,0.0,0.0,0.0,0.0,0.0,0.0,-2.8106,-2.8524,0.0,-3.0992,-3.1151,-3.1072,-3.0912,-3.0912,-3.0733,-3.0328,-2.8903,-2.8412,-2.8158,-2.67,-2.622,-2.622,-2.622,-2.622,-2.622,-2.622,-2.6115,-2.599,-2.5917,-2.5828,-2.5701,-2.5637,-2.5616,-2.5616,-2.5616,-2.5616,-2.5616,-2.5616,-2.5524,-2.5432,-2.5432,0.0,0.0,0.0,0.0,0.0,0.0,-2.3318,-2.3009,-2.228,-2.2216,-2.1973,-2.1374,-2.1481,-2.162,-2.162,0.0,0.0,0.0,0.0,0.0,0.0,-2.622,0.0,0.0,0.0,-2.6562,-2.6714,-2.6818,-2.6803,-2.6686,-2.6686,-2.6602,-2.6485,-2.6485,-2.6432,-2.6239,-2.6239,-2.6132,-2.6036,-2.6608,-2.6851,-2.6976,-2.8178,-2.851,-2.8481,-3.4225,0.0,0.0,0.0,0.0,0.0,0.0,-3.748,-3.748,-3.748,-3.7765,-3.7986,-3.7986,-3.827,-3.8444,-3.8444,-3.816,-3.7986,-3.7986,-3.7773,-3.7759,-3.7876,-3.8107,-3.7576,-3.6335,-3.6303,-3.5428,-3.3615,-3.253,0.0,0.0,0.0,0.0,0.0,0.0,-2.742,0.0,0.0,0.0,-3.1015,-3.1151,-3.1072,-3.0912,-3.0912,-3.0733,-3.0328,-2.8903,-2.8412,-2.8158,-2.67,-2.622,-2.622,-2.622,-2.622,-2.622,-2.622,-2.6079,-2.5954,-2.5917,-2.577,-2.5621,-2.5616,-2.5616,-2.5616,-2.5616,-2.5562,-2.5524,-2.5524,-2.5432,-2.5355,-2.5355,-2.5355,0.0,0.0,0.0,0.0,0.0,0.0,-2.3608,-2.2523,-2.2394,-2.2118,-2.1358,-2.1402,0.0,0.0,0.0,0.0,0.0,0.0,0.0,0.0,0.0,0.0,0.0,0.0,0.0,-2.6258,-2.631,-2.6345,-2.6345,-2.6345,-2.631,-2.6258,-2.6258,-2.6187,-2.6043,-2.6043,-2.595,-2.5782,-2.6065,-2.6063,-2.6069,-2.7316,-2.7672,-2.7699,0.0,-3.5647,0.0,0.0,-3.7101,-3.748,-3.748,-3.748,-3.748,-3.748,-3.748,-3.748,-3.748,-3.748,-3.748,-3.748,-3.748,-3.748,-3.748,-3.7642,-3.7759,-3.7876,-3.8107,-3.7632,-3.6335,-3.6303,-3.559,-3.4101,-3.2692,0.0,0.0,0.0,0.0,0.0,0.0,0.0,0.0,0.0,-3.0281,-3.1055,-3.1151,-3.1072,-3.0912,-3.0912,-3.0733,-3.0328,-2.8942,-2.8412,-2.8158,-2.67,-2.622,-2.622,-2.622,-2.622,-2.622,-2.622,-2.6059,-2.5897,-2.5897,-2.5749,-2.5616,-2.5616,-2.5616,-2.5616,-2.5616,-2.5524,-2.5378,-2.5378,-2.5317,-2.524,-2.5256,-2.5256,0.0,0.0,0.0,0.0,0.0,0.0,-2.4207,-2.2798,-2.262,-2.228,-2.1406,0.0,0.0,0.0,0.0,0.0,-2.3852,0.0,0.0,0.0,0.0,-2.6132,-2.6132,0.0,-2.6132,-2.6132,-2.6132,-2.6132,-2.6132,-2.6132,-2.6079,-2.599,-2.599,-2.5917,-2.5824,-2.5787,-2.5675,-2.554,-2.5486,-2.5468,-2.5584,-2.6593,-2.7001,-2.7256,0.0,0.0,0.0,0.0,0.0,-3.748,-3.748,-3.748,-3.748,-3.748,-3.748,-3.748,-3.748,-3.748,-3.748,-3.748,-3.748,-3.748,-3.748,-3.7759,-3.7876,-3.7876,-3.8221,-3.7744,-3.6335,-3.6303,-3.559,-3.4101,-3.2788,-3.2229,0.0,0.0,0.0,0.0,0.0,0.0,0.0,-2.9766,-3.032,-3.119,-3.119,-3.1112,-3.0975,-3.0912,-3.0831,-3.0468,-2.8942,-2.8412,-2.8158,-2.67,-2.622,-2.622,-2.622,-2.622,-2.622,-2.622,-2.6059,-2.5897,-2.5897,-2.5749,-2.5616,-2.5616,-2.5616,-2.5616,-2.5616,-2.5524,-2.5378,-2.5378,-2.5262,-2.5107,-2.5045,-2.5068,-2.5146,0.0,0.0,0.0,0.0,0.0,-2.4968,-2.3578,-2.3416,-2.2831,-2.1455,-2.1371,0.0,0.0,-2.1542,0.0,0.0,0.0,0.0,-2.5885,0.0,-2.5934,-2.5934,-2.5934,-2.5934,-2.5934,-2.5934,-2.5934,-2.5934,-2.5934,-2.5934,-2.5917,-2.5917,-2.5787,-2.5616,-2.541,-2.5333,-2.5333,-2.5185,-2.5465,-2.6009,-2.6655,-2.705,-2.7396,0.0,0.0,0.0,0.0,0.0,0.0,0.0,-3.748,-3.748,-3.748,-3.748,-3.748,-3.748,-3.748,-3.748,-3.748,-3.748,-3.748,-3.748,-3.7759,-3.7876,-3.7876,-3.7818,-3.729,-3.6319,-3.5866,-3.5121,0.0,-3.2835,0.0,0.0,0.0,0.0,0.0,0.0,-2.9382,-2.9817,-3.0331,-3.0763,-3.119,-3.119,-3.1112,-3.0975,-3.0912,-3.0831,-3.0558,-2.9407,-2.8738,-2.8262,-2.7197,-2.6568,-2.622,-2.622,-2.622,-2.622,-2.622,-2.6059,-2.5897,-2.5897,-2.5749,-2.5616,-2.5616,-2.5616,-2.5578,-2.5524,-2.5394,-2.5317,-2.5224,-2.5107,-2.5045,-2.5005,-2.5068,-2.5146,-2.5294,0.0,0.0,0.0,0.0,0.0,-2.3691,-2.3513,-2.2912,-2.1455,-2.1309,0.0,0.0,0.0,0.0,0.0,0.0,0.0,-2.5864,0.0,-2.6094,-2.6503,-2.6503,-2.6716,-2.7158,-2.6716,-2.6503,-2.6487,-2.6077,-2.5824,-2.5712,-2.56,-2.5486,-2.541,-2.524,-2.5162,-2.51,-2.4966,-2.5287,-2.5869,-2.6352,-2.6856,-2.7395,-3.6295,0.0,-3.748,0.0,-3.748,-3.748,-3.748,-3.748,-3.748,-3.748,-3.748,-3.748,-3.748,-3.748,-3.748,-3.748,-3.748,-3.748,-3.748,-3.7759,-3.7876,-3.7876,-3.7528,0.0,-3.6319,-3.5574,-3.4829,-3.4101,-3.3047,0.0,0.0,0.0,0.0,0.0,-2.9653,-3.0005,-3.0151,-3.0774,-3.1072,-3.119,-3.119,-3.1151,-3.1072,-3.0952,-3.0831,-3.0633,-2.9722,-2.8969,-2.8312,-2.7566,-2.68,-2.622,-2.622,-2.622,-2.622,-2.622,-2.6059,-2.5897,-2.5897,-2.5749,-2.5616,-2.5616,-2.5616,-2.5562,-2.5432,-2.5355,-2.5256,-2.5107,-2.5029,-2.5005,-2.5045,-2.5068,-2.5146,-2.5317,0.0,0.0,0.0,-2.5616,0.0,-2.3691,-2.3513,-2.2912,-2.1455,-2.1503,0.0,0.0,0.0,0.0,0.0,0.0,0.0,0.0,0.0,0.0,-2.6737,-2.6737,-2.7095,-2.781,-2.7306,-2.7062,-2.703,-2.6558,-2.6254,-2.6115,-2.5918,-2.5783,-2.5783,-2.5607,-2.5541,-2.546,-2.5295,-2.5633,-2.6187,-2.6427,-2.6872,-2.7418,-3.6295,-3.699,-3.748,-3.748,-3.748,-3.748,-3.748,-3.748,-3.748,-3.748,-3.748,-3.748,-3.748,-3.748,-3.748,-3.748,-3.748,-3.748,-3.748,-3.7759,-3.7876,0.0,0.0,-3.6999,-3.6319,-3.5574,-3.4829,-3.4101,0.0,0.0,-3.2269,0.0,-3.0493,-3.0493,-3.0634,-3.0773,-3.0895,-3.0975,-3.1072,-3.119,-3.119,-3.119,-3.119,-3.0992,-3.0912,-3.0771,-2.9762,-2.8969,-2.8312,-2.7566,-2.68,-2.622,-2.622,-2.622,-2.622,-2.622,-2.6059,-2.5897,-2.5897,-2.5749,-2.5616,-2.5616,-2.5616,-2.5562,-2.5432,-2.5355,-2.5256,-2.5045,-2.5005,-2.5005,-2.5107,-2.5091,-2.5185,-2.5378,0.0,0.0,0.0,-2.5616,0.0,-2.3691,-2.3513,-2.2912,-2.1455,-2.1956,0.0,0.0,0.0,0.0,0.0,0.0,0.0,-2.54,-2.5416,0.0,-2.6294,-2.6294,-2.6702,-2.7406,-2.739,-2.739,-2.739,-2.739,-2.7374,-2.7374,-2.7105,-2.6977,-2.6977,-2.6733,-2.666,-2.666,-2.6408,-2.6673,-2.7272,-2.7083,-2.7267,-2.761,-3.6184,-3.6611,-3.6911,-3.7385,-3.748,-3.748,-3.748,-3.748,-3.748,-3.748,-3.748,-3.748,-3.748,-3.748,-3.748,0.0,-3.748,-3.748,0.0,-3.7759,-3.7876,-3.7876,-3.7093,-3.6529,-3.6303,-3.5072,-3.4327,-3.4101,0.0,0.0,0.0,-3.0931,-3.0526,-3.0526,-3.0651,-3.0773,-3.0912,-3.0975,-3.1072,-3.119,-3.119,-3.1151,-3.1072,-3.0952,-3.0831,-3.0699,-3.0303,-2.9698,-2.8986,-2.8274,-2.7545,-2.6849,-2.6369,-2.622,-2.622,-2.622,-2.6059,-2.5897,-2.5897,-2.5749,-2.5616,-2.5616,-2.5616,-2.554,-2.5355,-2.5201,-2.51,-2.5005,-2.5005,-2.5005,-2.5107,-2.5146,-2.5278,-2.5378,-2.547,0.0,-2.492,0.0,-2.4321,-2.2912,-2.3121,-2.2971,-2.202,-2.2517,0.0,0.0,0.0,0.0,0.0,0.0,0.0,0.0,-2.5798,0.0,-2.7054,-2.7518,-2.811,-2.8846,-2.8334,-2.7854,-2.7406,-2.7222,-2.7137,-2.7137,-2.6895,-2.6748,-2.666,-2.6483,-2.6394,-2.6259,-2.6138,-2.6504,-2.705,-2.6796,-2.712,-2.7575,-3.5458,-3.6058,-3.6564,-3.7006,-3.7306,-3.748,-3.748,-3.748,-3.748,-3.748,-3.748,-3.748,-3.748,-3.748,0.0,-3.748,-3.748,-3.748,-3.748,-3.7759,-3.7876,-3.7876,-3.6883,-3.6303,-3.6303,-3.4845,0.0,-3.4101,-3.3615,-3.2902,-3.2017,-3.1272,-3.0791,-3.0526,-3.0651,-3.0733,-3.0831,-3.0935,-3.1072,-3.1112,-3.119,-3.1112,-3.0975,-3.0912,-3.0831,-3.0692,-3.0568,-3.0046,-2.9317,-2.8622,-2.7931,-2.7184,-2.6435,-2.622,-2.622,-2.622,-2.6059,-2.5897,-2.5897,-2.5749,-2.5616,-2.5616,-2.5616,-2.554,-2.5333,-2.5162,-2.5045,-2.5005,-2.5005,-2.5084,-2.5146,-2.5278,-2.5355,-2.547,-2.5319,-2.5033,-2.4547,0.0,-2.3735,0.0,0.0,0.0,0.0,-2.3135,-2.3494,0.0,0.0,0.0,0.0,0.0,0.0,-2.524,-2.5903,-2.6579,-2.728,-2.7949,-2.865,-2.9321,-2.8844,-2.8354,-2.7957,-2.7737,-2.7664,-2.7604,-2.7409,-2.7272,-2.7119,-2.7011,-2.6871,-2.673,-2.665,-2.6826,-2.7139,-2.6927,-2.708,-2.7335,-3.4273,-3.5363,-3.6311,0.0,-3.6975,0.0,-3.7464,-3.748,-3.748,-3.748,-3.748,-3.748,-3.748,-3.748,-3.748,-3.748,0.0,0.0,0.0,-3.7759,-3.7876,-3.7876,-3.6883,-3.6303,-3.6303,-3.4845,-3.4101,-3.4151,-3.3615,-3.3162,-3.2663,-3.1967,-3.1196,-3.0526,-3.0651,-3.0692,-3.0692,-3.0895,-3.0975,-3.1015,-3.1151,-3.1112,-3.0975,-3.0912,-3.0831,-3.0692,-3.0568,-3.0079,-2.9383,-2.8622,-2.7964,-2.7251,-2.6452,-2.622,-2.622,-2.622,-2.6043,-2.5897,-2.5897,-2.5749,-2.5616,-2.5616,-2.5578,-2.554,-2.5333,-2.5201,-2.5107,-2.5045,-2.5068,-2.5146,-2.5278,-2.5355,-2.5416,-2.5497,-2.4952,-2.445,-2.4353,-2.37,-2.3227,0.0,0.0,0.0,-2.3159,-2.385,-2.4228,0.0,0.0,0.0,0.0,0.0,-2.5201,-2.5091,-2.583,-2.6503,-2.7056,-2.781,-2.8444,-2.9091,-2.8967,-2.8904,-2.8873,-2.8826,-2.8684,-2.8573,-2.8444,-2.8299,-2.8137,-2.8005,-2.7855,-2.774,-2.7625,-2.7488,-2.735,-2.7233,-2.7093,-2.6951,0.0,0.0,-3.5142,-3.6232,-3.6564,-3.6864,-3.7401,-3.748,-3.748,-3.748,-3.748,-3.748,-3.748,-3.748,-3.748,-3.748,-3.748,-3.748,-3.748,-3.7759,-3.7876,-3.7876,-3.6883,-3.6303,-3.6303,-3.4845,-3.4201,-3.4399,-3.3712,-3.3162,-3.2663,-3.1967,-3.1196,-3.0526,-3.051,-3.0609,-3.0692,-3.0733,-3.0855,-3.1015,-3.1015,-3.1015,-3.0975,-3.0912,-3.0831,-3.0692,-3.0568,-3.041,-3.0063,-2.8804,-2.8257,-2.7893,-2.6617,-2.622,-2.622,-2.622,-2.6079,-2.5954,-2.5917,-2.5807,-2.5642,-2.56,-2.5524,-2.5432,-2.5394,-2.5317,-2.5256,-2.5217,-2.524,-2.5278,-2.5355,-2.5378,-2.5277,-2.4839,-2.4596,-2.4126,-2.2989,-2.2665,-2.2485,0.0,-2.2796,-2.3267,-2.3787,-2.4433,-2.4768,0.0,0.0,0.0,0.0,-2.4751,-2.4806,-2.4846,-2.6,-2.6663,-2.6792,-2.8028,-2.8717,-2.8873,-2.8826,-2.8826,-2.8826,-2.8604,-2.8508,-2.8444,-2.8103,-2.789,-2.7725,-2.759,-2.7437,-2.7335,-2.7335,-2.7284,-2.7233,-2.6989,-2.6884,-2.6779,-3.3767,-3.4083,-3.4636,-3.5758,-3.6216,-3.6658,-3.737,-3.748,-3.748,-3.748,-3.748,-3.748,-3.748,-3.748,-3.748,-3.748,-3.748,-3.748,-3.748,-3.7759,-3.7876,-3.7876,-3.6883,-3.6303,-3.6303,-3.4845,-3.425,-3.4497,-3.4104,-3.3672,-3.3176,-3.2448,-3.1719,-3.1007,-3.0634,-3.0526,-3.0609,-3.0692,-3.0814,-3.0952,-3.0975,-3.1015,-3.0975,-3.0912,-3.0831,-3.0692,-3.0568,-3.0294,-2.9847,-2.8754,-2.8196,-2.7677,-2.6568,-2.622,-2.622,-2.622,-2.6115,-2.599,-2.5954,-2.5828,-2.5663,-2.56,-2.5562,-2.547,-2.5416,-2.5355,-2.5333,-2.5294,-2.5317,-2.5355,-2.5378,-2.547,-2.5266,-2.4612,-2.4172,-2.3555,-2.2472,-2.1921,-2.1871,-2.2442,-2.277,-2.3349,-2.4318,-2.4721,-2.4846,-2.4726,-2.4726,0.0,-2.4589,-2.4564,-2.4605,-2.4686,-2.6014,-2.6689,-2.6689,-2.8093,-2.8794,-2.8794,-2.8747,-2.87,-2.8604,-2.8396,-2.8201,-2.8039,-2.7775,-2.7575,-2.7423,-2.7248,-2.7144,-2.7026,-2.6907,-2.6855,-2.6765,-2.6606,-2.6568,-2.6553,-3.3309,-3.3751,-3.4367,-3.5094,-3.5805,-3.65,-3.7212,-3.7401,-3.748,-3.748,-3.748,-3.748,-3.748,-3.7385,-3.7322,-3.7322,-3.7227,-3.7259,-3.7464,-3.7759,-3.787,-3.7774,-3.6835,-3.6254,-3.6141,-3.4797,-3.425,-3.4497,-3.4497,-3.4264,-3.3773,-3.3027,-3.2315,-3.1543,-3.0858,-3.0526,-3.0526,-3.0609,-3.0773,-3.0912,-3.0935,-3.1015,-3.1015,-3.0952,-3.0831,-3.0692,-3.0568,-3.0046,-2.9317,-2.8622,-2.7931,-2.7184,-2.6435,-2.622,-2.622,-2.622,-2.6115,-2.6026,-2.6026,-2.5848,-2.5701,-2.5637,-2.5616,-2.5578,-2.547,-2.5432,-2.5432,-2.5371,-2.5394,-2.5432,-2.5432,-2.5524,-2.5341,-2.4466,-2.3764,-2.3018,-2.2195,0.0,-2.1545,-2.2849,-2.3011,-2.3522,-2.4697,-2.4782,-2.4742,-2.4589,-2.4589,-2.4589,-2.4549,-2.4482,-2.4498,-2.4549,-2.5944,-2.6691,-2.6801,-2.8,-2.8545,-2.8451,-2.8387,-2.8338,-2.8209,-2.814,-2.7925,-2.7575,-2.7524,-2.7372,-2.713,-2.6937,-2.6832,-2.6727,-2.6525,-2.6418,-2.6286,-2.6286,-2.6286,-2.6233,-3.3309,-3.3388,-3.3672,-3.4336,-3.5063,-3.5789,-3.6485,-3.7101,-3.748,-3.748,-3.748,-3.748,-3.748,-3.6943,-3.6595,-3.6595,-3.6042,-3.6216,-3.7401,-3.7759,-3.7662,-3.707,-3.6561,-3.6011,-3.5364,-3.4538,-3.425,-3.4497,-3.4497,-3.4264,-3.3773,-3.3027,-3.2315,-3.1543,-3.0858,-3.0526,-3.0526,-3.0526,-3.0692,-3.0912,-3.0912,-3.1032,-3.1151,-3.0952,-3.0871,-3.0831,-3.0609,-3.0046,-2.9317,-2.8622,-2.7931,-2.7184,-2.6435,-2.622,-2.622,-2.622,-2.6168,-2.6132,-2.6026,-2.5848,-2.5701,-2.5701,-2.5659,-2.5578,-2.5578,-2.5578,-2.5578,-2.5578,-2.5578,-2.5578,-2.5578,-2.5578,-2.5142,-2.3713,-2.3391,-2.2806,-2.1309,0.0,-2.2099,-2.2821,-2.3343,-2.3943,-2.4744,-2.4686,-2.4605,-2.4539,-2.4539,-2.4457,-2.4343,-2.4291,-2.425,-2.425,-2.5656,-2.6702,-2.7273,-2.7489,-2.7319,-2.6809,-2.7211,-2.7393,-2.7408,-2.7618,-2.7675,-2.7575,-2.713,-2.6884,-2.6832,-2.6553,-2.6394,-2.6394,-2.634,-2.634,-2.6286,-2.6179,-2.6056,-2.5948,-3.3309,-3.3309,-3.3514,-3.4178,-3.4573,-3.5047,-3.5758,-3.6137,-3.6358,-3.6358,-3.6358,-3.6358,-3.6358,-3.6074,-3.5868,-3.5868,-3.5625,-3.5776,-3.641,-3.6685,-3.6638,-3.6428,-3.5969,-3.5347,-3.4603,-3.4313,-3.43,-3.4497,-3.4546,-3.4526,-3.4369,-3.3226,-3.2514,-3.215,-3.1023,-3.0526,-3.0526,-3.0526,-3.0609,-3.079,-3.0871,-3.0992,-3.1072,-3.0952,-3.0912,-3.0821,-3.0161,-2.9466,-2.8738,-2.8063,-2.7313,-2.6651,-2.6319,-2.622,-2.622,-2.622,-2.622,-2.6168,-2.6026,-2.5937,-2.5864,-2.5738,-2.568,-2.5659,-2.5616,-2.5616,-2.5616,-2.5616,-2.5616,-2.5616,-2.5616,-2.5524,-2.5132,-2.4064,-2.3779,0.0,-2.2181,-2.229,-2.271,-2.3295,-2.3636,-2.403,-2.4599,-2.4564,-2.4482,-2.4333,-2.4348,-2.4291,-2.4151,-2.4109,-2.4082,-2.4082,-2.5129,-2.5954,-2.6642,-2.6642,-2.6489,-2.6184,-2.681,-2.7035,-2.6907,-2.7375,-2.7423,-2.7181,-2.6884,-2.6674,-2.65,-2.6286,-2.6179,-2.6179,-2.6002,-2.6002,-2.5948,-2.5798,-2.5757,-2.5702,-3.3361,-3.3346,-3.3572,-3.4064,-3.4302,-3.4587,-3.5158,-3.5395,-3.549,-3.549,-3.549,-3.549,-3.549,-3.5348,-3.5253,-3.5253,-3.5204,-3.5163,-3.5218,-3.5326,-3.5514,-3.5728,-3.5263,-3.4667,-3.4117,-3.425,-3.4349,-3.4497,-3.4643,-3.4657,-3.4618,-3.3292,-3.2597,-3.2381,-3.109,-3.0526,-3.0526,-3.0526,-3.0568,-3.0692,-3.0871,-3.0952,-3.0975,-3.0912,-3.0912,-3.0771,-2.9762,-2.8969,-2.8312,-2.7566,-2.68,-2.622,-2.622,-2.622,-2.622,-2.622,-2.622,-2.6168,-2.6063,-2.6026,-2.5974,-2.5811,-2.5738,-2.5701,-2.5621,-2.5616,-2.5616,-2.5616,-2.5616,-2.5578,-2.5562,-2.547,-2.5169,-2.4457,0.0,-2.3851,0.0,-2.3079,-2.3285,-2.3739,-2.3889,-2.4123,-2.4451,-2.4457,-2.439,-2.4208,-2.4166,-2.4124,-2.4024,-2.3982,-2.394,-2.3925,-2.462,-2.5271,-2.5788,-2.5788,-2.5712,-2.5515,-2.6303,-2.6555,-2.6393,-2.7101,-2.7181,-2.6779,-2.6674,-2.6447,-2.6233,-2.6056,-2.6016,-2.5962,-2.5743,-2.5633,-2.5633,-2.555,-2.5494,-2.5439,-3.3503,-3.3607,-3.3674,-3.3722,-3.4265,-3.4713,-3.4761,-3.5336,-3.5767,-3.5767,-3.5767,-3.5767,-3.5767,-3.5176,-3.4777,-3.4777,-3.4186,-3.3906,-3.4008,-3.406,-3.4365,-3.5057,-3.4484,-3.4165,-3.4101,-3.425,-3.4349,-3.4497,-3.4643,-3.4393,-3.3856,-3.3061,-3.2332,-3.1669,-3.0874,-3.0526,-3.0526,-3.0526,-3.0568,-3.0692,-3.0871,-3.0952,-3.0975,-3.0912,-3.0912,-3.0771,-2.9762,-2.8969,-2.8312,-2.7566,-2.68,-2.622,-2.622,-2.622,-2.622,-2.622,-2.622,-2.622,-2.6168,-2.6079,-2.601,-2.5974,-2.5864,-2.5701,-2.5701,-2.5659,-2.5616,-2.5616,-2.5616,-2.5562,-2.5432,-2.5416,-2.5115,-2.4254,0.0,0.0,-2.3011,-2.3433,-2.3838,-2.3786,-2.4217,-2.4542,-2.4498,-2.4333,-2.4223,-2.4223,-2.4082,-2.4024,-2.3982,-2.3882,-2.3739,-2.3638,-2.4532,-2.4999,-2.5045,-2.5045,-2.4741,-2.4149,-2.5213,-2.5674,-2.5687,-2.652,-2.6832,-2.6779,-2.634,-2.6056,-2.5893,-2.5784,-2.5633,-2.555,-2.5494,-2.5494,-2.5494,-2.5494,-2.5369,-2.5174,-3.3503,-3.3607,-3.3694,-3.3694,-3.3918,-3.4094,-3.4094,-3.4334,-3.451,-3.451,-3.451,-3.451,-3.451,-3.427,-3.4094,-3.4094,-3.3906,-3.3848,-3.3899,-3.4,-3.4129,-3.442,-3.4196,-3.4101,-3.4101,-3.43,-3.4448,-3.4497,-3.4691,-3.4471,-3.3773,-3.3027,-3.2315,-3.1543,-3.0858,-3.0526,-3.0526,-3.0526,-3.0526,-3.0609,-3.0733,-3.0773,-3.0814,-3.079,-3.079,-3.0583,-2.9281,-2.8605,-2.8246,-2.7015,-2.6435,-2.622,-2.622,-2.622,-2.622,-2.622,-2.622,-2.622,-2.622,-2.6168,-2.6079,-2.5954,-2.5881,-2.5807,-2.5659,-2.56,-2.5616,-2.5616,-2.5524,-2.547,-2.5416,-2.5301,-2.5105,-2.4757,0.0,-2.4569,-2.4261,-2.4374,-2.4414,-2.4295,-2.4449,-2.4498,-2.44,-2.4291,-2.4166,-2.4082,-2.394,-2.3839,-2.3739,-2.3668,-2.3581,-2.3538,-2.382,-2.3999,-2.4058,-2.4058,-2.3879,-2.3596,-2.4386,-2.4899,-2.5106,-2.5864,-2.6231,-2.634,-2.6111,-2.5893,-2.5784,-2.5633,-2.555,-2.5494,-2.5369,-2.53,-2.53,-2.5131,-2.5018,-2.4948,-3.3559,-3.3745,-3.3848,-3.3848,-3.3848,-3.3848,-3.3848,-3.3848,-3.3848,-3.3848,-3.3848,-3.3848,-3.3848,-3.3848,-3.3848,-3.3848,-3.3899,-3.3949,-3.3949,-3.405,-3.4101,-3.4101,-3.4101,-3.4101,-3.4101,-3.4349,-3.4497,-3.4497,-3.4756,-3.4386,-3.3425,-3.2928,-3.2183,-3.1212,-3.0742,-3.0526,-3.0526,-3.0526,-3.0526,-3.051,-3.0651,-3.0692,-3.0692,-3.0692,-3.0692,-3.0508,-2.8926,-2.8412,-2.8158,-2.67,-2.622,-2.622,-2.622,-2.6168,-2.6132,-2.6132,-2.6132,-2.6096,-2.6096,-2.6096,-2.6096,-2.5954,-2.5881,-2.5807,-2.5659,-2.56,-2.5578,-2.5562,-2.547,-2.5378,-2.5301,-2.5185,-2.5091,-2.5068,-2.5045,-2.5005,-2.5005,-2.4886,-2.4742,-2.463,-2.4523,-2.4457,-2.4276,-2.4208,-2.4082,-2.394,-2.3797,-2.3696,-2.3566,-2.3538,-2.3466,-2.3466,-2.3363,-2.3319,-2.3378,-2.3422,-2.3363,-2.3334,-2.3908,-2.4265,-2.4525,-2.5265,-2.5664,-2.5788,-2.5809,-2.5729,-2.5564,-2.5425,-2.5369,-2.5313,-2.5118,-2.5061,-2.5061,-2.4835,-2.4721,-2.4734,-3.3754,-3.4,-3.4101,-3.4101,-3.4101,-3.4101,-3.4101,-3.4101,-3.4101,-3.4101,-3.4101,-3.4101,-3.4101,-3.4101,-3.4101,-3.4101,-3.4101,-3.4101,-3.4101,-3.4101,-3.4101,-3.4101,-3.4101,-3.4101,-3.4101,-3.4349,-3.4497,-3.4497,-3.4739,-3.4137,-3.268,-3.268,-3.1901,-3.0526,-3.0526,-3.0526,-3.0526,-3.0526,-3.0526,-3.051,-3.0651,-3.0692,-3.0692,-3.0692,-3.0692,-3.0508,-2.8942,-2.8412,-2.8158,-2.67,-2.622,-2.622,-2.622,-2.6115,-2.601,-2.601,-2.5954,-2.5897,-2.5897,-2.5897,-2.5917,-2.599,-2.5848,-2.5701,-2.5701,-2.5659,-2.5562,-2.5432,-2.5378,-2.5339,-2.5146,-2.5091,-2.5068,-2.5005,-2.5005,-2.5005,-2.5005,-2.4902,-2.4742,-2.4645,-2.4523,-2.4416,-2.4208,-2.4082,-2.394,-2.3797,-2.3696,-2.3566,-2.3509,-2.3509,-2.3466,-2.3319,-2.3319,-2.3246,-2.3082,-2.3246,-2.3319,-2.329,-2.371,-2.3891,-2.3934,-2.4812,-2.5137,-2.5008,-2.5518,-2.5495,-2.5174,-2.5174,-2.5118,-2.5005,-2.4835,-2.4778,-2.4778,-2.4677,-2.462,-2.4563,-3.3754,-3.4,-3.4101,-3.4101,-3.4101,-3.4101,-3.4101,-3.4101,-3.4101,-3.4101,-3.4101,-3.4101,-3.4101,-3.4101,-3.4101,-3.4101,-3.4101,-3.4101,-3.4101,-3.4101,-3.4101,-3.4101,-3.4101,-3.4101,-3.4101,-3.4349,-3.4497,-3.4497,-3.4228,-3.3624,-3.268,-3.2166,-3.1437,-3.0526,-3.0526,-3.0526,-3.0526,-3.0526,-3.0526,-3.051,-3.0551,-3.0568,-3.0568,-3.0568,-3.0568,-3.0369,-2.8942,-2.8412,-2.8158,-2.6594,-2.6063,-2.6026,-2.6007,-2.597,-2.5917,-2.5917,-2.5934,-2.5897,-2.5897,-2.5844,-2.5738,-2.5775,-2.5738,-2.5701,-2.5621,-2.5546,-2.547,-2.5416,-2.5301,-2.5185,-2.5107,-2.5068,-2.5045,-2.5005,-2.5005,-2.4982,-2.4862,-2.4726,-2.4645,-2.4523,-2.4441,-2.4317,-2.4208,-2.4082,-2.394,-2.3797,-2.3696,-2.3566,-2.3509,-2.3407,-2.329,-2.3157,-2.3068,-2.2978,-2.2947,-2.3082,-2.3082,-2.2962,-2.3074,-2.3238,-2.3498,-2.3639,-2.4137,-2.4822,-2.4735,-2.4902,-2.5174,-2.5118,-2.5005,-2.4835,-2.4835,-2.4721,-2.462,-2.4478,-2.4421,-2.4363,-3.3756,-3.405,-3.4101,-3.4101,-3.4101,-3.4101,-3.4101,-3.4101,-3.4101,-3.4101,-3.4101,-3.4101,-3.4101,-3.4101,-3.4101,-3.4101,-3.4101,-3.4101,-3.4101,-3.4101,-3.4101,-3.4101,-3.4101,-3.4101,-3.4101,-3.43,-3.4448,-3.4497,-3.3966,-3.3363,-3.2663,-3.1967,-3.1196,-3.0526,-3.0526,-3.0526,-3.0526,-3.0526,-3.0526,-3.0526,-3.0526,-3.0526,-3.0526,-3.0526,-3.0526,-3.0328,-2.8903,-2.8412,-2.8158,-2.6557,-2.599,-2.5954,-2.5917,-2.5844,-2.5828,-2.5828,-2.5807,-2.5787,-2.5787,-2.5696,-2.5589,-2.5589,-2.5589,-2.5567,-2.5508,-2.5432,-2.5355,-2.5301,-2.5185,-2.5107,-2.5068,-2.5045,-2.4966,-2.4942,-2.4942,-2.4846,-2.4726,-2.4645,-2.4564,-2.4498,-2.4374,-2.4234,-2.4124,-2.3982,-2.3882,-2.3739,-2.361,-2.3538,-2.3422,-2.3275,-2.3157,-2.3037,-2.2947,-2.2902,-2.2872,-2.2962,-2.2931,-2.2809,-2.2689,-2.2737,-2.289,-2.2985,-2.3356,-2.3875,-2.398,-2.4272,-2.4652,-2.4596,-2.4633,-2.4721,-2.4607,-2.4536,-2.4492,-2.4319,-2.4203,-2.4086,-3.3825,-3.4101,-3.4101,-3.4101,-3.4101,-3.4101,-3.4101,-3.4101,-3.4101,-3.4101,-3.4101,-3.4101,-3.4101,-3.4101,-3.4101,-3.4101,-3.4101,-3.4101,-3.4101,-3.4101,-3.4101,-3.4101,-3.4101,-3.4101,-3.4101,-3.425,-3.4317,-3.4399,-3.3773,-3.3172,-3.258,-3.1808,-3.113,-3.0485,-3.0485,-3.0526,-3.0526,-3.0526,-3.0526,-3.0526,-3.0526,-3.0526,-3.0526,-3.0526,-3.0526,-3.0328,-2.8903,-2.8412,-2.8158,-2.6557,-2.5954,-2.5881,-2.5881,-2.5807,-2.5701,-2.5701,-2.5659,-2.5616,-2.5578,-2.547,-2.5378,-2.5378,-2.5378,-2.5378,-2.5378,-2.5317,-2.524,-2.5146,-2.5107,-2.5068,-2.5005,-2.4966,-2.4926,-2.4822,-2.4782,-2.4726,-2.4589,-2.4523,-2.4498,-2.4457,-2.4291,-2.4124,-2.3982,-2.3839,-2.3739,-2.3595,-2.3538,-2.3466,-2.3319,-2.3157,-2.3037,-2.2888,-2.2888,-2.2872,-2.2809,-2.2764,-2.2749,-2.2749,-2.2523,-2.2324,-2.2198,-2.2616,-2.2699,-2.2533,-2.3108,-2.3566,-2.3904,-2.3904,-2.4142,-2.4549,-2.435,-2.4292,-2.4247,-2.4099,-2.4008,-2.3891,-3.3825,-3.4101,-3.4101,-3.4101,-3.4101,-3.4101,-3.4101,-3.4101,-3.4101,-3.4101,-3.4101,-3.4101,-3.4101,-3.4101,-3.4101,-3.4101,-3.4101,-3.4101,-3.4101,-3.4101,-3.4101,-3.4101,-3.4101,-3.4101,-3.4101,-3.425,-3.4023,-3.3501,-3.2941,-3.2327,-3.1588,-3.0952,-3.0549,-3.0401,-3.0485,-3.0526,-3.0526,-3.0526,-3.0526,-3.0526,-3.0526,-3.0526,-3.0526,-3.0526,-3.0526,-3.0328,-2.8903,-2.8412,-2.8158,-2.6484,-2.5824,-2.5691,-2.5691,-2.5637,-2.5637,-2.5637,-2.5616,-2.5578,-2.547,-2.5432,-2.5394,-2.5317,-2.524,-2.5185,-2.5278,-2.524,-2.5146,-2.5107,-2.5068,-2.5005,-2.4862,-2.4862,-2.4806,-2.4686,-2.463,-2.4589,-2.4539,-2.4498,-2.4457,-2.4291,-2.4223,-2.4124,-2.3882,-2.3739,-2.3638,-2.3595,-2.3538,-2.3466,-2.3319,-2.3157,-2.3037,-2.2888,-2.2872,-2.2795,-2.2809,-2.2583,-2.2477,-2.2477,-2.2417,-2.2278,-2.2044,-2.2027,-2.22,-2.2506,-2.2441,-2.2962,-2.3904,-2.3794,-2.396,-2.435,-2.4292,-2.4261,-2.4099,-2.3995,-2.3891,-2.3832,-3.3825,-3.4101,-3.4101,-3.4101,-3.4101,-3.4101,-3.4101,-3.4101,-3.4101,-3.4101,-3.4101,-3.4101,-3.4101,-3.4101,-3.4101,-3.4101,-3.4101,-3.4101,-3.4101,-3.4101,-3.4101,-3.4101,-3.4101,-3.3955,-3.3631,-3.3713,-3.3567,-3.3209,-3.2229,-3.1618,-3.127,-3.0619,-3.0333,-3.0417,-3.0443,-3.0485,-3.0526,-3.0526,-3.0526,-3.0526,-3.0526,-3.0526,-3.0526,-3.0526,-3.0526,-3.0328,-2.8903,-2.7888,-2.7064,-2.6196,-2.5749,-2.5616,-2.5616,-2.5616,-2.5616,-2.5616,-2.5616,-2.5578,-2.5432,-2.5394,-2.5317,-2.524,-2.5123,-2.5068,-2.5201,-2.5123,-2.5029,-2.5029,-2.5045,-2.4966,-2.4822,-2.4782,-2.4742,-2.4564,-2.4564,-2.4523,-2.44,-2.4374,-2.4333,-2.4208,-2.4082,-2.394,-2.3739,-2.3653,-2.3729,-2.4059,-2.3911,-2.3955,-2.4174,-2.3741,-2.3443,-2.3291,-2.2985,-2.2749,-2.2583,-2.2477,-2.237,-2.2324,-2.2231,-2.2091,-2.1902,-2.1746,-2.178,-2.1884,-2.1736,-2.2268,-2.3284,-2.3229,-2.3553,-2.4203,-2.4203,-2.4099,-2.4008,-2.3949,-2.3772,-2.3582,-3.3485,-3.3744,-3.3744,-3.3744,-3.3744,-3.3777,-3.3906,-3.3922,-3.3971,-3.4084,-3.4101,-3.4101,-3.4101,-3.4101,-3.4101,-3.4101,-3.4101,-3.4101,-3.4101,-3.4101,-3.4101,-3.4101,-3.3987,-3.3663,-3.3097,-3.2838,-3.274,-3.2803,-3.1632,-3.1043,-3.1046,-3.044,-3.0248,-3.0316,-3.0375,-3.0401,-3.0468,-3.0468,-3.0485,-3.0526,-3.0526,-3.0526,-3.0526,-3.0526,-3.0526,-3.0344,-2.9036,-2.7498,-2.6061,-2.593,-2.5749,-2.5616,-2.5616,-2.5616,-2.5616,-2.5616,-2.5578,-2.5524,-2.5432,-2.5317,-2.524,-2.5107,-2.5045,-2.5005,-2.5068,-2.5045,-2.5005,-2.5005,-2.4966,-2.4926,-2.4782,-2.4742,-2.4701,-2.4498,-2.4457,-2.44,-2.4317,-2.425,-2.4166,-2.4124,-2.3925,-2.3739,-2.3595,-2.3699,-2.4014,-2.4537,-2.4428,-2.4584,-2.5129,-2.4484,-2.396,-2.3702,-2.3213,-2.2744,-2.2417,-2.237,-2.2324,-2.2184,-2.2044,-2.1902,-2.1793,-2.1664,-2.1471,-2.118,-2.118,-2.1725,-2.2616,-2.2562,-2.3136,-2.4054,-2.4054,-2.4008,-2.3832,-2.3832,-2.3582,-2.3271,-3.2125,-3.2287,-3.2287,-3.2287,-3.2287,-3.2498,-3.3129,-3.3226,-3.3437,-3.402,-3.4101,-3.4101,-3.4101,-3.4101,-3.4101,-3.4101,-3.4101,-3.4101,-3.4101,-3.4101,-3.4101,-3.4101,-3.3534,-3.3178,-3.308,-3.185,-3.1218,-3.1202,-3.1024,-3.0664,-3.0092,-3.0022,-3.0017,-3.006,-3.0205,-3.0274,-3.0401,-3.0401,-3.0443,-3.0526,-3.0526,-3.0526,-3.0526,-3.0526,-3.0526,-3.041,-2.9566,-2.824,-2.6733,-2.611,-2.5749,-2.5616,-2.5616,-2.5616,-2.5616,-2.5616,-2.5524,-2.5432,-2.5317,-2.524,-2.5107,-2.5045,-2.5005,-2.5005,-2.5005,-2.5005,-2.5005,-2.5005,-2.4902,-2.4782,-2.4645,-2.4564,-2.4498,-2.4359,-2.4317,-2.4317,-2.4208,-2.4223,-2.4124,-2.3882,-2.3739,-2.3595,-2.3595,-2.4133,-2.4432,-2.4431,-2.4796,-2.507,-2.5029,-2.4873,-2.4438,-2.3702,-2.3507,-2.3065,-2.2417,-2.2278,-2.2184,-2.2044,-2.1902,-2.1793,-2.1793,-2.1664,-2.1471,-2.118,-2.1082,-2.1623,-2.2562,-2.2467,-2.3037,-2.3949,-2.3949,-2.3819,-2.3628,-2.3522,-2.3283,-2.2969,-3.1866,-3.2012,-3.2012,-3.2012,-3.2012,-3.2109,-3.2433,-3.2481,-3.2595,-3.2886,-3.2935,-3.2935,-3.2935,-3.3291,-3.3534,-3.3534,-3.3874,-3.4101,-3.4101,-3.3744,-3.3534,-3.3534,-3.2854,-3.2287,-3.1882,-3.1251,-3.0733,-3.0328,-3.0328,-3.0182,-2.9918,-2.9946,-2.9973,-3.0017,-3.006,-3.0146,-3.0274,-3.0375,-3.0417,-3.0443,-3.0468,-3.0485,-3.0443,-3.0443,-3.0401,-3.0168,-2.9017,-2.7869,-2.6787,-2.6036,-2.5696,-2.5616,-2.5616,-2.5616,-2.5616,-2.5616,-2.5524,-2.5394,-2.5333,-2.5201,-2.5091,-2.5005,-2.5005,-2.5005,-2.5005,-2.5005,-2.5005,-2.5005,-2.4902,-2.4782,-2.463,-2.4564,-2.4457,-2.4317,-2.4302,-2.4276,-2.4208,-2.4124,-2.3982,-2.3739,-2.3653,-2.3744,-2.4133,-2.4358,-2.4789,-2.55,-2.5604,-2.578,-2.6126,-2.5604,-2.4962,-2.4167,-2.3635,-2.3041,-2.2292,-2.2184,-2.2044,-2.1996,-2.1793,-2.1712,-2.1664,-2.1471,-2.1277,-2.1109,-2.1279,-2.1811,-2.2508,-2.2672,-2.3197,-2.3891,-2.376,-2.3628,-2.345,-2.333,-2.309,-2.2909]},{"header":{"parameterUnit":"m.s-1","parameterCategory":1,"la1":30.6,"la2":28.766,"lo1":-90.7593,"lo2":-88.6598,"dy":0.0162,"dx":0.0183,"nx":116,"ny":114,"refTime":"2023-07-31T12:00:00:Z","depth":0,"parameterNumber":3,"parameterNumberName":"V-component_of_WINDS"},"data":[0.0,0.0,0.0,0.0,0.0,0.0,0.0,0.0,0.0,0.0,0.0,0.0,0.0,0.0,0.0,0.0,0.0,0.0,0.0,0.0,0.0,0.0,0.0,0.0,0.0,0.0,0.0,0.0,0.0,0.0,0.0,0.0,0.0,0.0,0.0,0.0,0.0,0.0,0.0,0.0,0.0,0.0,0.0,0.0,0.0,0.0,0.0,0.0,0.0,0.0,0.0,0.0,0.0,0.0,0.0,0.0,0.0,0.0,0.0,0.0,0.0,0.0,0.0,0.0,0.0,0.0,0.0,0.0,0.0,0.0,0.0,0.0,0.0,0.0,0.0,0.0,0.0,0.0,0.0,0.0,0.0,0.0,0.0,0.0,0.0,0.0,0.0,0.0,0.0,0.0,0.0,0.0,0.0,0.0,0.0,0.0,0.0,0.0,0.0,0.0,0.0,0.0,0.0,0.0,0.0,0.0,0.0,0.0,0.0,0.0,0.0,0.0,0.0,0.0,0.0,0.0,0.0,0.0,0.0,0.0,0.0,0.0,0.0,0.0,0.0,0.0,0.0,0.0,0.0,0.0,0.0,0.0,0.0,0.0,0.0,0.0,0.0,0.0,0.0,0.0,0.0,0.0,0.0,0.0,0.0,0.0,0.0,0.0,0.0,0.0,0.0,0.0,0.0,0.0,0.0,0.0,0.0,0.0,0.0,0.0,0.0,0.0,0.0,0.0,0.0,0.0,0.0,0.0,0.0,0.0,0.0,0.0,0.0,0.0,0.0,0.0,0.0,0.0,0.0,0.0,0.0,0.0,0.0,0.0,0.0,0.0,0.0,0.0,0.0,0.0,0.0,0.0,0.0,0.0,0.0,0.0,0.0,0.0,0.0,0.0,0.0,0.0,0.0,0.0,0.0,0.0,0.0,0.0,0.0,0.0,0.0,0.0,0.0,0.0,0.0,0.0,0.0,0.0,0.0,0.0,0.0,0.0,0.0,0.0,0.0,0.0,0.0,0.0,0.0,0.0,0.0,0.0,0.0,0.0,0.0,0.0,0.0,0.0,0.0,0.0,0.0,0.0,0.0,0.0,0.0,0.0,0.0,0.0,0.0,0.0,0.0,0.0,0.0,0.0,0.0,0.0,0.0,0.0,0.0,0.0,0.0,0.0,0.0,0.0,0.0,0.0,0.0,0.0,0.0,0.0,0.0,0.0,0.0,0.0,0.0,0.0,0.0,0.0,0.0,0.0,0.0,0.0,0.0,0.0,0.0,0.0,0.0,0.0,0.0,0.0,0.0,0.0,0.0,0.0,0.0,0.0,0.0,0.0,0.0,0.0,0.0,0.0,0.0,0.0,0.0,0.0,0.0,0.0,0.0,0.0,0.0,0.0,0.0,0.0,0.0,0.0,0.0,0.0,0.0,0.0,0.0,0.0,0.0,0.0,0.0,0.0,0.0,0.0,0.0,0.0,0.0,0.0,0.0,0.0,0.0,0.0,0.0,0.0,0.0,0.0,0.0,0.0,0.0,0.0,0.0,0.0,0.0,0.0,0.0,0.0,0.0,0.0,0.0,0.0,0.0,0.0,0.0,0.0,0.0,0.0,0.0,0.0,0.0,0.0,0.0,0.0,0.0,0.0,0.0,0.0,0.0,0.0,0.0,0.0,0.0,0.0,0.0,0.0,0.0,0.0,0.0,0.0,0.0,0.0,0.0,0.0,0.0,0.0,0.0,0.0,0.0,0.0,0.0,0.0,0.0,0.0,0.0,0.0,0.0,0.0,0.0,0.0,0.0,0.0,0.0,0.0,0.0,0.0,0.0,0.0,0.0,0.0,0.0,0.0,0.0,0.0,0.0,0.0,0.0,0.0,0.0,0.0,0.0,0.0,0.0,0.0,0.0,0.0,0.0,0.0,0.0,0.0,0.0,0.0,0.0,0.0,0.0,0.0,0.0,0.0,0.0,0.0,0.0,0.0,0.0,0.0,0.0,0.0,0.0,0.0,0.0,0.0,0.0,0.0,0.0,0.0,0.0,0.0,0.0,0.0,0.0,0.0,0.0,0.0,0.0,0.0,0.0,0.0,0.0,0.0,0.0,0.0,0.0,0.0,0.0,0.0,0.0,0.0,0.0,0.0,0.0,0.0,0.0,0.0,0.0,0.0,0.0,0.0,0.0,0.0,0.0,0.0,0.0,0.0,0.0,0.0,0.0,0.0,0.0,0.0,0.0,0.0,0.0,0.0,0.0,0.0,0.0,0.0,0.0,0.0,0.0,0.0,0.0,0.0,0.0,0.0,0.0,0.0,0.0,0.0,0.0,0.0,0.0,0.0,0.0,0.0,0.0,0.0,0.0,0.0,0.0,0.0,0.0,0.0,0.0,0.0,0.0,0.0,0.0,0.0,0.0,0.0,0.0,0.0,0.0,0.0,0.0,0.0,0.0,0.0,0.0,0.0,0.0,0.0,0.0,0.0,0.0,0.0,0.0,0.0,0.0,0.0,0.0,0.0,0.0,0.0,0.0,0.0,0.0,0.0,0.0,0.0,0.0,0.0,0.0,0.0,0.0,0.0,0.0,0.0,0.0,0.0,0.0,0.0,0.0,0.0,0.0,0.0,0.0,0.0,0.0,0.0,0.0,0.0,0.0,0.0,0.0,0.0,0.0,0.0,0.0,0.0,0.0,0.0,0.0,0.0,0.0,0.0,0.0,0.0,0.0,0.0,0.0,0.0,0.0,0.0,0.0,0.0,0.0,0.0,0.0,0.0,0.0,0.0,0.0,0.0,0.0,0.0,0.0,0.0,0.0,0.0,0.0,0.0,0.0,0.0,0.0,0.0,0.0,0.0,0.0,0.0,0.0,0.0,0.0,0.0,0.0,0.0,0.0,0.0,0.0,0.0,0.0,0.0,0.0,0.0,0.0,0.0,0.0,0.0,0.0,0.0,0.0,0.0,0.0,0.0,0.0,0.0,0.0,0.0,0.0,0.0,0.0,0.0,0.0,0.0,0.0,0.0,0.0,0.0,0.0,0.0,0.0,0.0,0.0,0.0,0.0,0.0,0.0,0.0,0.0,0.0,0.0,0.0,0.0,0.0,0.0,0.0,0.0,0.0,0.0,0.0,0.0,0.0,0.0,0.0,0.0,0.0,0.0,0.0,0.0,0.0,0.0,0.0,0.0,0.0,0.0,0.0,0.0,0.0,0.0,0.0,0.0,0.0,0.0,0.0,0.0,0.0,0.0,0.0,0.0,0.0,0.0,0.0,0.0,0.0,0.0,0.0,0.0,0.0,0.0,0.0,0.0,0.0,0.0,0.0,0.0,0.0,0.0,0.0,0.0,0.0,0.0,0.0,0.0,0.0,0.0,0.0,0.0,0.0,0.0,0.0,0.0,0.0,0.0,0.0,0.0,0.0,0.0,0.0,0.0,0.0,0.0,0.0,0.0,0.0,0.0,0.0,0.0,0.0,0.0,0.0,0.0,0.0,0.0,0.0,0.0,0.0,0.0,0.0,0.0,0.0,0.0,0.0,0.0,0.0,0.0,0.0,0.0,0.0,0.0,0.0,0.0,0.0,0.0,0.0,0.0,0.0,0.0,0.0,0.0,0.0,0.0,0.0,0.0,0.0,0.0,0.0,0.0,0.0,0.0,0.0,0.0,0.0,0.0,0.0,0.0,0.0,0.0,0.0,0.0,0.0,0.0,0.0,0.0,0.0,0.0,0.0,0.0,0.0,0.0,0.0,0.0,0.0,0.0,0.0,0.0,0.0,0.0,0.0,0.0,0.0,0.0,0.0,0.0,0.0,0.0,0.0,0.0,0.0,0.0,0.0,0.0,0.0,0.0,0.0,0.0,0.0,0.0,0.0,0.0,0.0,0.0,0.0,0.0,0.0,0.0,0.0,0.0,0.0,0.0,0.0,0.0,0.0,0.0,0.0,0.0,0.0,0.0,0.0,0.0,0.0,0.0,0.0,0.0,0.0,0.0,0.0,0.0,0.0,0.0,0.0,0.0,0.0,0.0,0.0,0.0,0.0,0.0,0.0,0.0,0.0,0.0,0.0,0.0,0.0,0.0,0.0,0.0,0.0,0.0,0.0,0.0,0.0,0.0,0.0,0.0,0.0,0.0,0.0,0.0,0.0,0.0,0.0,0.0,0.0,0.0,0.0,0.0,0.0,0.0,0.0,0.0,0.0,0.0,0.0,0.0,0.0,0.0,0.0,0.0,0.0,0.0,0.0,0.0,0.0,0.0,0.0,0.0,0.0,0.0,0.0,0.0,0.0,0.0,0.0,0.0,0.0,0.0,0.0,0.0,0.0,0.0,0.0,0.0,0.0,0.0,0.0,0.0,0.0,0.0,0.0,0.0,0.0,0.0,0.0,0.0,0.0,0.0,0.0,0.0,0.0,0.0,0.0,0.0,0.0,0.0,0.0,0.0,0.0,0.0,0.0,0.0,0.0,0.0,0.0,0.0,0.0,0.0,0.0,0.0,0.0,0.0,0.0,0.0,0.0,0.0,0.0,0.0,0.0,0.0,0.0,0.0,0.0,0.0,0.0,0.0,0.0,0.0,0.0,0.0,0.0,0.0,0.0,0.0,0.0,0.0,0.0,0.0,0.0,0.0,0.0,0.0,0.0,0.0,0.0,0.0,0.0,0.0,0.0,0.0,0.0,0.0,0.0,0.0,0.0,0.0,0.0,0.0,0.0,0.0,0.0,0.0,0.0,0.0,0.0,0.0,0.0,0.0,0.0,0.0,0.0,0.0,0.0,0.0,0.0,0.0,0.0,0.0,0.0,0.0,0.0,0.0,0.0,0.0,0.0,0.0,0.0,0.0,0.0,0.0,0.0,0.0,0.0,0.0,0.0,0.0,0.0,0.0,0.0,0.0,0.0,0.0,0.0,0.0,0.0,0.0,0.0,0.0,0.0,0.0,0.0,0.0,0.0,0.0,0.0,0.0,0.0,0.0,0.0,0.0,0.0,0.0,0.0,0.0,0.0,0.0,0.0,0.0,0.0,0.0,0.0,0.0,0.0,0.0,0.0,0.0,0.0,0.0,0.0,0.0,0.0,0.0,0.0,0.0,0.0,0.0,0.0,0.0,0.0,0.0,0.0,0.0,0.0,0.0,0.0,0.0,0.0,0.0,0.0,0.0,0.0,0.0,0.0,0.0,0.0,0.0,0.0,0.0,0.0,0.0,0.0,0.0,0.0,0.0,0.0,0.0,0.0,0.0,0.0,0.0,0.0,0.0,0.0,0.0,0.0,0.0,0.0,0.0,0.0,0.0,0.0,0.0,0.0,0.0,0.0,0.0,0.0,0.0,0.0,0.0,0.0,0.0,0.0,0.0,0.0,0.0,0.0,0.0,0.0,0.0,0.0,0.0,0.0,0.0,0.0,0.0,0.0,0.0,0.0,0.0,0.0,0.0,0.0,0.0,0.0,0.0,0.0,0.0,0.0,0.0,0.0,0.0,0.0,0.0,0.0,0.0,0.0,0.0,0.0,0.0,0.0,0.0,0.0,0.0,0.0,0.0,0.0,0.0,0.0,0.0,0.0,0.0,0.0,0.0,0.0,0.0,0.0,0.0,0.0,0.0,0.0,0.0,0.0,0.0,0.0,0.0,0.0,0.0,0.0,0.0,0.0,0.0,0.0,0.0,0.0,0.0,0.0,0.0,0.0,0.0,0.0,0.0,0.0,0.0,0.0,0.0,0.0,0.0,0.0,0.0,0.0,0.0,0.0,0.0,0.0,0.0,0.0,0.0,0.0,0.0,0.0,0.0,0.0,0.0,0.0,0.0,0.0,0.0,0.0,0.0,0.0,0.0,0.0,0.0,0.0,0.0,0.0,0.0,0.0,0.0,0.0,0.0,0.0,0.0,0.0,0.0,0.0,0.0,0.0,0.0,0.0,0.0,0.0,0.0,0.0,0.0,0.0,0.0,0.0,0.0,0.0,0.0,0.0,0.0,0.0,0.0,0.0,0.0,0.0,0.0,0.0,0.0,0.0,0.0,0.0,0.0,0.0,0.0,0.0,0.0,0.0,0.0,0.0,0.0,0.0,0.0,0.0,0.0,0.0,0.0,0.0,0.0,0.0,0.0,0.0,0.0,0.0,0.0,0.0,-1.0197,-1.0193,0.0,0.0,0.0,0.0,0.0,0.0,0.0,0.0,0.0,0.0,0.0,0.0,0.0,0.0,0.0,0.0,0.0,0.0,0.0,0.0,0.0,0.0,0.0,0.0,0.0,0.0,0.0,0.0,0.0,0.0,0.0,0.0,0.0,0.0,0.0,0.0,0.0,0.0,0.0,0.0,0.0,0.0,0.0,0.0,0.0,0.0,0.0,0.0,0.0,0.0,0.0,0.0,0.0,0.0,0.0,0.0,0.0,0.0,0.0,0.0,0.0,0.0,0.0,0.0,0.0,0.0,0.0,0.0,0.0,0.0,0.0,0.0,0.0,0.0,0.0,0.0,0.0,0.0,0.0,0.0,0.0,0.0,0.0,0.0,0.0,0.0,0.0,0.0,0.0,0.0,0.0,0.0,0.0,0.0,0.0,0.0,0.0,0.0,0.0,0.0,0.0,0.0,0.0,0.0,0.0,0.0,0.0,0.0,0.0,0.0,0.0,0.0,0.0,0.0,-1.0853,-1.0742,0.0,0.0,0.0,0.0,0.0,0.0,0.0,0.0,0.0,0.0,0.0,0.0,0.0,0.0,0.0,0.0,0.0,0.0,0.0,0.0,0.0,0.0,0.0,0.0,0.0,0.0,0.0,0.0,0.0,0.0,0.0,0.0,0.0,0.0,0.0,0.0,0.0,0.0,0.0,0.0,0.0,0.0,0.0,0.0,0.0,0.0,0.0,0.0,0.0,0.0,0.0,0.0,0.0,0.0,0.0,0.0,0.0,0.0,0.0,0.0,0.0,0.0,0.0,0.0,0.0,0.0,0.0,0.0,0.0,0.0,0.0,0.0,0.0,0.0,0.0,0.0,0.0,0.0,0.0,0.0,0.0,0.0,0.0,0.0,0.0,0.0,0.0,0.0,0.0,0.0,0.0,0.0,0.0,0.0,0.0,0.0,0.0,0.0,0.0,0.0,0.0,0.0,0.0,0.0,0.0,0.0,0.0,0.0,-1.0537,-1.0874,-1.1118,-1.1485,-1.1873,-1.2258,-1.1643,-1.1583,-1.1771,-1.1667,0.0,0.0,0.0,0.0,0.0,0.0,0.0,0.0,0.0,0.0,0.0,0.0,0.0,0.0,0.0,0.0,0.0,0.0,0.0,0.0,0.0,0.0,0.0,0.0,0.0,0.0,0.0,0.0,0.0,0.0,0.0,0.0,0.0,0.0,0.0,0.0,0.0,0.0,-0.886,-0.9491,-0.9875,-0.9949,0.0,0.0,0.0,0.0,0.0,0.0,0.0,0.0,0.0,0.0,0.0,0.0,0.0,0.0,0.0,0.0,0.0,0.0,0.0,0.0,0.0,0.0,0.0,0.0,0.0,0.0,0.0,0.0,0.0,0.0,0.0,0.0,0.0,0.0,0.0,0.0,0.0,0.0,0.0,0.0,0.0,0.0,0.0,0.0,-0.4626,-0.4854,0.0,0.0,0.0,0.0,0.0,0.0,0.0,0.0,0.0,0.0,0.0,0.0,0.0,-0.908,-0.9536,-0.9993,-1.0454,-1.0825,-1.1113,-1.1464,-1.1895,-1.1923,-1.2152,-1.2581,-1.2687,0.0,-1.2105,-1.2232,0.0,0.0,0.0,0.0,0.0,0.0,0.0,0.0,0.0,0.0,0.0,0.0,0.0,0.0,0.0,0.0,0.0,0.0,0.0,0.0,0.0,0.0,0.0,0.0,0.0,0.0,0.0,0.0,0.0,0.0,0.0,0.0,0.0,0.0,0.0,0.0,-0.764,-0.8102,-0.8365,-0.9102,-0.9469,-0.9542,-1.0327,-1.0744,-1.0812,-1.0856,0.0,0.0,0.0,0.0,0.0,0.0,0.0,0.0,0.0,0.0,0.0,0.0,0.0,0.0,0.0,0.0,0.0,0.0,0.0,0.0,0.0,0.0,0.0,0.0,0.0,0.0,0.0,0.0,0.0,0.0,0.0,0.0,0.0,0.0,0.0,0.0,0.0,0.0,0.0,-0.4741,-0.5029,-0.5396,-0.5416,-0.5483,0.0,0.0,0.0,0.0,0.0,0.0,0.0,0.0,0.0,-0.8909,-0.947,-0.9857,-1.012,-1.0587,-1.1013,-1.1384,-1.1652,-1.192,-1.2187,-1.2371,-1.2568,-1.2889,-1.3255,-1.3233,-1.2868,-1.2952,-1.2854,-1.2636,0.0,0.0,0.0,0.0,-1.3154,-1.3147,0.0,0.0,0.0,0.0,0.0,0.0,0.0,0.0,0.0,0.0,0.0,0.0,0.0,0.0,0.0,-0.5476,0.0,0.0,0.0,0.0,0.0,0.0,0.0,0.0,0.0,0.0,0.0,0.0,-0.7135,-0.7505,-0.7872,-0.8637,-0.9018,-0.9094,-0.9695,-1.0126,-1.0475,-1.0547,-1.0663,0.0,0.0,0.0,0.0,0.0,0.0,0.0,0.0,0.0,0.0,0.0,0.0,0.0,0.0,0.0,0.0,0.0,0.0,0.0,0.0,0.0,0.0,0.0,0.0,0.0,0.0,0.0,0.0,0.0,0.0,0.0,0.0,0.0,0.0,0.0,0.0,0.0,0.0,-0.502,-0.5274,-0.5772,-0.58,-0.5888,0.0,0.0,0.0,0.0,0.0,0.0,-0.7995,-0.8556,-0.9074,-0.9452,-1.0009,-1.0467,-1.0702,-1.1134,-1.1517,-1.176,-1.2138,-1.2412,-1.2598,-1.2881,-1.3032,-1.3232,-1.3668,-1.3736,-1.354,-1.354,-1.3388,-1.3131,-1.3362,-1.3317,-1.3185,-1.3393,-1.3484,-1.3533,0.0,0.0,0.0,0.0,0.0,0.0,0.0,0.0,0.0,0.0,0.0,0.0,0.0,0.0,-0.6261,-0.5983,-0.5669,-0.5359,0.0,0.0,0.0,0.0,0.0,0.0,0.0,0.0,0.0,-0.6325,-0.67,-0.7011,-0.7261,-0.7872,-0.8255,-0.8479,-0.9094,-0.9707,-1.0395,-1.0353,-1.0504,-1.0705,0.0,0.0,0.0,0.0,0.0,0.0,0.0,0.0,0.0,0.0,0.0,0.0,0.0,0.0,0.0,0.0,0.0,0.0,0.0,0.0,0.0,0.0,0.0,0.0,0.0,0.0,0.0,0.0,0.0,0.0,0.0,0.0,0.0,0.0,0.0,0.0,0.0,0.0,0.0,-0.5728,-0.58,0.0,0.0,0.0,0.0,-0.73,-0.7716,-0.813,-0.8582,-0.9212,-0.9587,-0.9784,-1.0269,-1.066,-1.0863,-1.1447,-1.1743,-1.1945,-1.2533,-1.2823,-1.3108,-1.3307,-1.3463,-1.3502,-1.3963,-1.4022,-1.3828,-1.3861,-1.3835,-1.3768,-1.4009,-1.4125,-1.4216,-1.4425,-1.4225,-1.38,0.0,0.0,0.0,0.0,0.0,0.0,0.0,0.0,0.0,0.0,0.0,0.0,0.0,-0.6879,-0.6595,-0.6385,-0.6149,-0.5891,-0.5631,0.0,0.0,0.0,0.0,0.0,0.0,0.0,-0.5582,-0.587,-0.6096,-0.6325,-0.6405,-0.7019,-0.7407,-0.7642,-0.8403,-0.9049,-0.9707,-1.0191,-1.0359,-1.0436,-1.056,-1.0471,0.0,0.0,0.0,0.0,0.0,0.0,0.0,0.0,0.0,0.0,0.0,0.0,0.0,0.0,0.0,0.0,0.0,0.0,0.0,0.0,0.0,0.0,0.0,0.0,0.0,0.0,0.0,0.0,0.0,0.0,0.0,0.0,0.0,0.0,0.0,0.0,0.0,-0.622,-0.6318,0.0,-0.6534,-0.686,-0.7196,-0.7496,-0.8094,-0.8475,-0.8718,-0.9372,-0.991,-1.0202,-1.0719,-1.1081,-1.1487,-1.1855,-1.2122,-1.2198,-1.2639,-1.2861,-1.2958,-1.3346,-1.3488,-1.3486,-1.3978,-1.4259,-1.4314,-1.4095,-1.3998,-1.3884,-1.4118,-1.4173,-1.4205,-1.4743,-1.4674,-1.4421,0.0,0.0,0.0,0.0,0.0,0.0,0.0,0.0,0.0,0.0,0.0,-0.7531,-0.7728,-0.7438,-0.7118,-0.6915,-0.6656,-0.6331,-0.6022,0.0,0.0,0.0,0.0,0.0,0.0,-0.5046,-0.5165,-0.5323,-0.5398,-0.5553,-0.5628,-0.6167,-0.6556,-0.6795,-0.7638,-0.8403,-0.9074,-0.9737,-1.0136,-1.0297,-1.0406,-1.0406,-1.0301,0.0,0.0,0.0,0.0,0.0,0.0,0.0,0.0,0.0,0.0,0.0,0.0,0.0,0.0,0.0,0.0,0.0,0.0,0.0,0.0,0.0,0.0,0.0,0.0,0.0,0.0,0.0,0.0,0.0,0.0,0.0,0.0,0.0,0.0,-0.564,-0.5991,-0.6532,-0.6637,-0.6739,-0.6841,-0.719,-0.7536,-0.7834,-0.8368,-0.879,-0.8995,-0.9627,-1.0181,-1.0509,-1.1006,-1.1378,-1.1817,-1.2025,-1.2224,-1.2319,-1.2583,-1.2662,-1.2861,-1.3249,-1.3539,-1.3534,-1.4022,-1.4365,-1.4539,-1.434,-1.4209,-1.4095,-1.4317,-1.4413,-1.4374,-1.5005,-1.5034,-1.4872,0.0,0.0,0.0,0.0,0.0,0.0,0.0,0.0,0.0,0.0,0.0,-0.8089,-0.8269,-0.7938,-0.7667,-0.752,-0.7169,-0.6714,-0.6338,-0.5819,0.0,0.0,0.0,0.0,-0.4698,-0.4701,-0.4701,-0.4701,-0.4701,-0.4776,-0.5002,-0.5389,-0.5702,-0.5941,-0.6791,-0.7638,-0.8389,-0.8985,-0.9625,-1.0284,-1.0086,-1.0117,-1.0301,0.0,0.0,0.0,0.0,0.0,0.0,0.0,0.0,0.0,0.0,0.0,0.0,0.0,0.0,0.0,0.0,0.0,0.0,0.0,0.0,0.0,0.0,0.0,0.0,0.0,0.0,0.0,0.0,0.0,0.0,0.0,0.0,0.0,-0.564,-0.5836,-0.6137,-0.6609,-0.6715,-0.6834,-0.7119,-0.7337,-0.7735,-0.8228,-0.8688,-0.9072,-0.9364,-1.0004,-1.0412,-1.072,-1.1209,-1.1516,-1.1827,-1.1832,-1.2028,-1.2319,-1.2387,-1.2565,-1.2861,-1.3249,-1.3539,-1.3539,-1.4112,-1.4438,-1.4583,-1.457,-1.4611,-1.4516,-1.4711,-1.4648,-1.4705,-1.5358,-1.5385,-1.5196,0.0,0.0,0.0,0.0,0.0,0.0,0.0,0.0,0.0,0.0,-0.8844,-0.8571,-0.8867,-0.8414,-0.7978,0.0,0.0,0.0,0.0,0.0,0.0,0.0,0.0,0.0,-0.4698,-0.4543,-0.4462,-0.4462,-0.4311,-0.4311,-0.4387,-0.446,-0.4693,-0.5087,0.0,0.0,0.0,0.0,0.0,0.0,0.0,0.0,-1.0301,0.0,0.0,0.0,0.0,0.0,0.0,0.0,0.0,0.0,0.0,0.0,0.0,0.0,0.0,0.0,0.0,0.0,0.0,0.0,0.0,0.0,0.0,0.0,0.0,0.0,0.0,0.0,0.0,0.0,0.0,0.0,-0.4931,-0.5174,-0.564,-0.6003,-0.631,-0.6776,-0.7058,-0.7221,-0.7299,-0.759,-0.7923,-0.8221,-0.866,-0.903,-0.9253,-0.9766,-1.0255,-1.0909,-1.1207,-1.1525,-1.2049,-1.2048,-1.2171,-1.2319,-1.2387,-1.2565,-1.2861,-1.3249,-1.3539,-1.3539,-1.4112,-1.4549,-1.4949,-1.4746,-1.4844,-1.5194,-1.5113,-1.4888,-1.4781,-1.5442,-1.5648,-1.5677,0.0,0.0,0.0,0.0,0.0,0.0,0.0,0.0,0.0,0.0,-0.9427,-0.9096,0.0,0.0,0.0,0.0,0.0,0.0,0.0,0.0,0.0,0.0,0.0,-0.4698,-0.4543,-0.4309,-0.4073,0.0,0.0,0.0,0.0,0.0,0.0,0.0,0.0,0.0,0.0,0.0,0.0,0.0,0.0,0.0,-1.0491,-1.0618,-1.0561,-1.0415,-1.0056,-0.9812,-0.9463,-0.9003,0.0,0.0,0.0,0.0,0.0,0.0,0.0,0.0,0.0,0.0,0.0,0.0,0.0,0.0,0.0,0.0,0.0,0.0,0.0,0.0,0.0,0.0,0.0,0.0,-0.5143,-0.5403,-0.5891,-0.6179,-0.6544,-0.7011,-0.7268,-0.7421,-0.7543,-0.7729,-0.7938,-0.829,-0.8687,-0.9026,-0.9229,-0.969,-1.0136,-1.0656,-1.1059,-1.1375,-1.1796,-1.1897,-1.204,-1.2319,-1.2288,-1.2467,-1.2861,-1.3249,-1.3539,-1.3539,-1.4112,-1.4496,-1.4968,-1.481,-1.4952,0.0,0.0,0.0,0.0,0.0,-1.5957,-1.6116,0.0,0.0,0.0,0.0,0.0,0.0,0.0,0.0,0.0,0.0,0.0,0.0,0.0,0.0,0.0,0.0,0.0,0.0,0.0,0.0,0.0,0.0,0.0,0.0,0.0,0.0,0.0,0.0,0.0,0.0,0.0,0.0,0.0,0.0,0.0,0.0,0.0,0.0,0.0,0.0,0.0,0.0,-1.087,-1.087,-1.0744,-1.0624,-1.0428,-1.0117,-0.9862,-0.9588,0.0,0.0,0.0,0.0,0.0,0.0,0.0,0.0,0.0,0.0,0.0,0.0,0.0,0.0,0.0,0.0,0.0,0.0,0.0,0.0,0.0,0.0,0.0,0.0,-0.5427,-0.5728,-0.626,-0.635,-0.6621,-0.7339,-0.74,-0.7526,-0.7787,-0.7828,-0.799,-0.8322,-0.8627,-0.8829,-0.9133,0.0,0.0,0.0,0.0,-1.1083,-1.1371,-1.1508,-1.1807,-1.2279,-1.2077,-1.2273,-1.2764,-1.3249,-1.3443,-1.3539,-1.4016,-1.44,-1.4688,-1.4987,-1.51,-1.5048,-1.5177,-1.5203,-1.5333,-1.5875,-1.6245,-1.6347,0.0,0.0,0.0,0.0,0.0,0.0,0.0,0.0,0.0,0.0,0.0,0.0,0.0,0.0,0.0,0.0,0.0,0.0,0.0,0.0,0.0,0.0,0.0,0.0,0.0,0.0,0.0,0.0,0.0,0.0,0.0,0.0,0.0,0.0,0.0,0.0,0.0,0.0,0.0,0.0,0.0,0.0,-1.1178,-1.1178,-1.1122,-1.0933,-1.0624,-1.0498,-1.0364,-0.9716,-0.9454,-0.932,-0.9023,0.0,0.0,0.0,0.0,0.0,0.0,0.0,0.0,0.0,0.0,0.0,0.0,0.0,0.0,0.0,0.0,0.0,0.0,0.0,0.0,-0.5987,-0.6105,-0.6279,-0.6649,-0.6665,-0.6903,-0.735,-0.758,-0.7746,-0.7804,-0.7923,-0.8007,-0.8038,-0.8333,-0.863,-0.8825,-0.9287,-0.9786,-1.0285,-1.0784,-1.1021,-1.1171,-1.1438,-1.173,-1.2046,0.0,0.0,-1.2764,-1.3055,-1.3346,-1.3539,-1.3829,-1.4214,-1.4688,-1.4987,-1.5289,-1.5521,-1.5272,-1.5289,-1.5512,-1.5959,-1.6087,-1.6198,0.0,0.0,0.0,0.0,0.0,0.0,0.0,0.0,0.0,0.0,0.0,0.0,0.0,0.0,0.0,0.0,0.0,0.0,0.0,0.0,0.0,0.0,0.0,0.0,0.0,0.0,0.0,0.0,0.0,0.0,0.0,0.0,0.0,0.0,0.0,0.0,0.0,0.0,0.0,0.0,0.0,0.0,-1.2279,-1.1737,-1.1498,-1.131,-1.1059,-1.0807,-1.0561,-1.0168,-0.9849,-0.9594,-0.9332,-0.9081,-0.8916,0.0,0.0,0.0,0.0,0.0,0.0,0.0,0.0,0.0,0.0,0.0,0.0,0.0,0.0,-0.6057,-0.5986,0.0,-0.6169,-0.6294,-0.6294,-0.6449,-0.6782,-0.6857,-0.7047,-0.7468,-0.7614,-0.7763,-0.7913,-0.7994,-0.8038,-0.8038,-0.8237,-0.8531,-0.8825,-0.9107,-0.9558,-0.9954,-1.0449,-1.0755,-1.0762,-1.116,-1.1599,-1.198,-1.198,-1.2273,-1.2764,-1.305,-1.3244,-1.3539,-1.3738,-1.4118,-1.4496,-1.4885,-1.5373,-1.5758,-1.5666,-1.5563,-1.5533,-1.6147,-1.624,-1.6147,0.0,0.0,0.0,0.0,0.0,0.0,0.0,0.0,0.0,0.0,0.0,0.0,0.0,0.0,0.0,0.0,0.0,0.0,0.0,0.0,0.0,0.0,0.0,0.0,0.0,0.0,0.0,0.0,0.0,0.0,0.0,0.0,0.0,0.0,0.0,0.0,0.0,0.0,0.0,0.0,0.0,0.0,-1.3671,-1.2617,-1.1987,-1.1685,-1.1498,-1.1185,-1.0751,-1.0751,-1.0371,-0.9926,-0.9716,-0.956,-0.9456,-0.927,-0.8959,0.0,0.0,0.0,0.0,0.0,0.0,0.0,0.0,-0.7124,-0.7085,-0.6683,-0.6712,-0.6783,-0.6613,-0.6681,-0.6675,-0.6535,-0.654,-0.6609,-0.6792,-0.6985,-0.7112,-0.7536,-0.7604,-0.7733,-0.7974,-0.8021,-0.8038,-0.8038,-0.8237,-0.8432,-0.8825,-0.9031,-0.9232,-0.9628,-1.0117,-1.0413,-1.0413,-1.09,-1.1487,-1.1883,-1.198,-1.2273,-1.2764,-1.2953,-1.3249,-1.3539,-1.3829,-1.4118,-1.4394,-1.4885,-1.5363,-1.5805,-1.603,-1.5875,-1.5719,-1.6294,-1.6423,-1.6262,0.0,0.0,0.0,0.0,0.0,0.0,0.0,0.0,0.0,0.0,0.0,0.0,0.0,0.0,0.0,0.0,0.0,0.0,0.0,0.0,0.0,0.0,0.0,0.0,0.0,0.0,0.0,0.0,0.0,0.0,0.0,0.0,0.0,0.0,0.0,0.0,0.0,0.0,0.0,0.0,0.0,0.0,-1.5126,-1.4042,-1.3073,-1.2182,-1.2058,-1.1809,-1.1435,-1.1122,-1.087,-1.0618,-1.0301,-1.0154,-1.0031,-0.9862,0.0,-0.9361,-0.9238,-0.8808,-0.8243,-0.7835,-0.7788,-0.7735,0.0,-0.7654,-0.7673,-0.7391,-0.7508,-0.7584,-0.7468,-0.7314,-0.7228,-0.7369,-0.7132,-0.7051,-0.7051,-0.7068,-0.7135,-0.7377,-0.7628,-0.7801,-0.7834,-0.796,-0.8038,-0.8038,-0.8038,-0.8233,-0.8726,-0.8825,-0.9126,-0.9628,-1.0117,-1.0413,-1.0413,-1.09,-1.1389,-1.1688,-1.1883,-1.2175,-1.2467,-1.2662,-1.3055,-1.3539,-1.4016,-1.44,-1.4694,-1.4987,-1.5267,-1.554,-1.5988,-1.6144,-1.6042,-1.6183,-1.639,-1.6492,0.0,0.0,0.0,0.0,0.0,0.0,0.0,0.0,0.0,0.0,0.0,0.0,0.0,0.0,0.0,0.0,0.0,0.0,0.0,0.0,0.0,0.0,0.0,0.0,0.0,0.0,0.0,0.0,0.0,0.0,0.0,0.0,0.0,0.0,0.0,0.0,0.0,0.0,0.0,0.0,0.0,0.0,-1.5788,-1.5195,-1.4367,-1.3447,-1.2747,-1.2251,0.0,0.0,-1.1498,-1.1247,-1.0933,-1.0948,-1.089,-1.0387,-1.003,0.0,-0.8931,-0.8679,-0.8486,-0.8196,-0.8212,-0.8296,-0.8083,-0.8146,-0.8103,-0.8065,-0.794,-0.7906,-0.7985,-0.7771,-0.7599,-0.7492,-0.7415,-0.7323,-0.7139,-0.7139,-0.7166,-0.7227,-0.7424,-0.759,-0.7678,-0.7821,-0.7906,-0.7906,-0.7987,-0.8233,-0.8726,-0.8825,-0.9027,-0.9628,-1.0117,-1.0413,-1.0413,-1.09,-1.1292,-1.1585,-1.1878,-1.2175,-1.237,-1.2667,-1.3055,-1.3539,-1.3925,-1.4304,-1.4688,-1.4987,-1.5267,-1.5547,-1.6028,-1.6324,-1.6408,-1.6308,-1.6399,-1.6545,0.0,0.0,0.0,0.0,0.0,0.0,0.0,0.0,0.0,0.0,0.0,0.0,0.0,0.0,0.0,0.0,0.0,0.0,0.0,0.0,0.0,0.0,0.0,0.0,0.0,0.0,0.0,0.0,0.0,0.0,0.0,0.0,0.0,0.0,0.0,0.0,0.0,0.0,0.0,0.0,0.0,0.0,-1.6468,-1.6138,-1.5528,-1.463,-1.3625,-1.2886,0.0,0.0,-1.2182,-1.1949,-1.1962,-1.2082,-1.2072,-1.1086,-1.0325,-0.9608,-0.8687,-0.8588,-0.8709,-0.856,-0.8595,-0.8627,-0.8551,-0.8475,-0.8458,-0.8505,-0.8336,-0.8258,-0.8332,-0.8135,-0.7888,-0.776,-0.7595,-0.7415,-0.7231,-0.7143,-0.7139,-0.7139,-0.7241,-0.735,-0.7461,-0.7641,-0.777,-0.7807,-0.7913,-0.8192,-0.8722,-0.8825,-0.9027,-0.9628,-1.0019,-1.0314,-1.0413,-1.0904,-1.1194,-1.1487,-1.178,-1.2078,-1.2273,-1.2662,-1.3152,-1.3539,-1.3738,-1.4118,-1.4592,-1.4987,-1.5172,-1.5452,-1.5933,-1.6305,-1.6612,-1.6335,-1.647,-1.6682,0.0,0.0,0.0,0.0,0.0,0.0,0.0,0.0,0.0,0.0,0.0,0.0,0.0,0.0,0.0,0.0,0.0,0.0,0.0,0.0,0.0,0.0,0.0,0.0,0.0,0.0,0.0,0.0,0.0,0.0,0.0,0.0,0.0,0.0,0.0,0.0,0.0,0.0,0.0,0.0,0.0,0.0,-1.7404,-1.6786,-1.6169,-1.5551,-1.4638,0.0,0.0,0.0,-1.3033,-1.2862,-1.3438,-1.3897,0.0,-1.204,-1.0335,-0.8983,-0.8756,-0.8846,-0.8937,-0.877,-0.8699,-0.8703,-0.8699,-0.8699,-0.8688,-0.8672,-0.8718,-0.868,-0.864,-0.8373,-0.8177,-0.8173,-0.7768,-0.7507,-0.7507,-0.7234,-0.7139,-0.7139,-0.7143,-0.7149,0.0,-0.7428,-0.7662,-0.7801,-0.7814,-0.8073,-0.8715,-0.8825,-0.9027,-0.9628,-0.9821,-1.0117,-1.0413,-1.0703,-1.0998,-1.1198,-1.1487,-1.178,-1.2078,-1.2759,-1.3249,-1.3539,-1.3738,-1.4022,-1.4394,-1.4885,-1.5083,-1.5178,-1.5642,-1.6116,-1.6546,-1.6225,-1.6458,-1.6938,0.0,0.0,0.0,0.0,0.0,0.0,0.0,0.0,0.0,0.0,0.0,0.0,0.0,0.0,0.0,0.0,0.0,0.0,0.0,0.0,0.0,0.0,0.0,0.0,0.0,0.0,0.0,0.0,0.0,0.0,0.0,0.0,0.0,0.0,0.0,0.0,0.0,0.0,0.0,0.0,0.0,0.0,-1.7569,-1.7309,-1.6684,-1.5982,0.0,0.0,0.0,0.0,-1.3752,-1.3865,-1.4488,-1.3493,-1.1614,-0.9421,-0.8524,-0.8241,-0.825,-0.8479,-0.8637,-0.8703,-0.8784,-0.8865,-0.8703,-0.8784,-0.8923,-0.8904,-0.8792,-0.8715,-0.8647,-0.8543,-0.8389,-0.8025,-0.7872,-0.768,-0.7507,-0.7234,-0.7139,-0.7139,-0.7231,0.0,0.0,0.0,0.0,-0.7665,-0.8042,-0.8375,-0.8821,-0.8928,-0.9232,-0.9628,-0.9821,-1.0117,-1.0413,-1.0703,-1.09,-1.1194,-1.1688,-1.198,-1.2273,-1.2662,-1.305,-1.3244,-1.3539,-1.3835,-1.4118,-1.4796,-1.5083,-1.5178,-1.5642,-1.6116,-1.6574,-1.6469,-1.6653,-1.6953,0.0,0.0,0.0,0.0,0.0,0.0,0.0,0.0,0.0,0.0,0.0,0.0,0.0,0.0,0.0,0.0,0.0,0.0,0.0,0.0,0.0,0.0,0.0,0.0,0.0,0.0,0.0,0.0,0.0,0.0,0.0,0.0,0.0,0.0,0.0,0.0,0.0,0.0,0.0,0.0,0.0,0.0,-1.7784,-1.7735,-1.714,0.0,0.0,0.0,0.0,0.0,-1.457,-1.4976,-1.5869,-1.403,-1.1153,-0.8718,-0.7783,-0.7651,-0.7897,-0.8334,-0.8599,-0.8681,-0.8822,-0.8961,-0.8803,-0.8861,-0.8904,-0.8966,-0.8838,-0.8663,-0.8707,-0.8591,-0.8467,-0.8183,-0.8045,-0.7876,-0.7672,-0.7457,-0.731,-0.7221,-0.736,-0.7451,0.0,0.0,0.0,-0.7773,-0.8146,-0.8474,-0.8924,-0.9133,-0.9331,-0.9628,-0.9727,-1.0019,-1.0216,-1.0511,-1.0801,-1.1194,-1.1688,-1.198,-1.2273,-1.2565,-1.2861,-1.3147,-1.3346,-1.3636,-1.3931,-1.47,-1.4987,-1.5178,-1.5547,-1.6015,-1.6574,-1.6462,-1.6646,-1.6976,0.0,0.0,0.0,0.0,0.0,0.0,0.0,0.0,0.0,0.0,0.0,0.0,0.0,0.0,0.0,0.0,0.0,0.0,0.0,0.0,0.0,0.0,0.0,0.0,0.0,0.0,0.0,0.0,0.0,0.0,0.0,0.0,0.0,0.0,0.0,0.0,0.0,0.0,0.0,0.0,0.0,0.0,-1.8008,-1.7988,0.0,0.0,0.0,0.0,0.0,0.0,-1.5523,-1.604,-1.7102,-1.5256,-1.2182,-0.9659,-0.8013,-0.7209,-0.7693,-0.838,-0.8955,-0.8763,-0.8871,-0.9051,-0.8995,-0.8861,-0.878,-0.8946,-0.8861,-0.8688,0.0,0.0,-0.8426,-0.8548,-0.8199,-0.7924,-0.7918,-0.7811,-0.764,0.0,-0.7605,0.0,0.0,0.0,0.0,-0.8222,0.0,-0.8481,-0.9126,-0.9236,-0.9335,-0.9628,-0.9628,-0.9727,-1.0019,-1.0314,-1.0703,-1.1194,-1.1487,-1.1775,-1.1965,-1.2257,-1.2635,-1.3011,-1.3307,-1.3601,-1.389,-1.4459,-1.4848,-1.5038,-1.5311,-1.5873,-1.6504,-1.6204,-1.6443,-1.6976,0.0,0.0,0.0,0.0,0.0,0.0,0.0,0.0,0.0,0.0,0.0,0.0,0.0,0.0,0.0,0.0,0.0,0.0,0.0,0.0,0.0,0.0,0.0,0.0,0.0,0.0,0.0,0.0,0.0,0.0,0.0,0.0,0.0,0.0,0.0,0.0,0.0,0.0,0.0,0.0,0.0,0.0,-1.7978,0.0,0.0,0.0,0.0,0.0,0.0,0.0,-1.557,-1.4649,-1.3153,-1.1165,-0.9042,-0.6656,-0.6337,-0.6973,-0.7546,-0.8233,-0.8796,-0.8684,-0.8946,-0.9203,-0.8995,-0.8946,-0.8946,-0.9022,-0.8861,-0.8641,-0.8471,-0.8443,0.0,-0.8383,-0.8119,0.0,-0.8089,-0.8084,0.0,-0.792,-0.8168,-0.8339,-0.8339,-0.8575,0.0,0.0,-0.8973,-0.8992,-0.9232,-0.943,-0.9529,-0.9628,-0.9628,-0.9727,-1.0019,-1.0507,-1.09,-1.1194,-1.1487,-1.1604,-1.1733,-1.2024,-1.2215,-1.2417,-1.2789,-1.2974,-1.3165,-1.3811,-1.4264,-1.4441,-1.4715,-1.5261,-1.5896,-1.5812,-1.603,-1.6447,0.0,0.0,0.0,0.0,0.0,0.0,0.0,0.0,0.0,0.0,0.0,0.0,0.0,0.0,0.0,0.0,0.0,0.0,0.0,0.0,0.0,0.0,0.0,0.0,0.0,0.0,0.0,0.0,0.0,0.0,0.0,0.0,0.0,0.0,0.0,0.0,0.0,0.0,0.0,0.0,0.0,0.0,0.0,0.0,0.0,0.0,0.0,0.0,0.0,0.0,0.0,-1.443,-1.0808,-0.935,-0.8467,-0.6105,-0.6175,-0.7136,-0.7803,-0.8451,-0.8954,-0.8833,-0.9162,-0.9399,-0.9168,-0.9095,-0.9025,-0.9025,-0.8723,-0.8463,-0.8407,-0.8367,-0.8302,0.0,0.0,0.0,-0.8068,-0.8278,-0.8298,0.0,-0.8497,-0.8694,-0.8694,-0.8875,-0.9031,0.0,-0.9236,-0.9236,-0.9331,-0.9529,-0.9628,-0.9628,-0.9628,-0.9727,-1.0019,-1.0413,-1.0801,-1.0998,-1.1206,-1.1389,-1.1462,-1.1645,-1.1801,-1.1957,0.0,-1.2689,-1.2871,-1.3338,-1.387,-1.4218,-1.4405,-1.4943,-1.5651,-1.5511,-1.5785,-1.6212,0.0,0.0,0.0,0.0,0.0,0.0,0.0,0.0,0.0,0.0,0.0,0.0,0.0,0.0,0.0,0.0,0.0,0.0,0.0,0.0,0.0,0.0,0.0,0.0,0.0,0.0,0.0,0.0,0.0,0.0,0.0,0.0,0.0,0.0,0.0,0.0,0.0,0.0,0.0,0.0,0.0,0.0,0.0,0.0,0.0,0.0,0.0,0.0,0.0,0.0,-1.4926,-1.4307,-0.989,-0.885,-0.8935,-0.6887,-0.6827,-0.7554,-0.8154,-0.8871,-0.9252,-0.9105,-0.9332,-0.9555,-0.9351,-0.9145,-0.8978,-0.9051,-0.8662,-0.8288,-0.8403,-0.824,-0.816,-0.8365,0.0,-0.8255,-0.8013,-0.8387,-0.8711,-0.8434,-0.8724,-0.8924,-0.8924,-0.913,-0.9236,-0.9236,-0.9335,-0.943,-0.9628,-0.9628,-0.9628,-0.9628,-0.9628,-0.9723,-1.0019,-1.0314,-1.0498,-1.0765,-1.0885,-1.1058,-1.1184,-1.1266,-1.1436,-1.1587,-1.2133,-1.2405,-1.2683,-1.2954,-1.3495,-1.411,-1.411,-1.4734,-1.5511,-1.5238,-1.5569,-1.6129,0.0,0.0,0.0,0.0,0.0,0.0,0.0,0.0,0.0,0.0,-1.4898,0.0,0.0,0.0,0.0,0.0,0.0,0.0,0.0,0.0,0.0,0.0,0.0,0.0,0.0,0.0,0.0,0.0,0.0,0.0,0.0,0.0,0.0,0.0,0.0,0.0,0.0,0.0,0.0,0.0,0.0,0.0,0.0,0.0,0.0,0.0,0.0,0.0,0.0,0.0,-1.211,-1.1827,-1.0755,-0.8695,-0.6815,-0.7,-0.7505,-0.8154,-0.8416,-0.9052,-0.9506,-0.9266,-0.9414,-0.9555,-0.9576,-0.9293,0.0,-0.9212,-0.8739,-0.8316,-0.8284,-0.8215,-0.8189,-0.834,-0.8369,-0.8334,-0.8429,-0.8751,-0.8999,0.0,-0.9216,-0.9426,-0.9426,-0.9529,0.0,0.0,-0.9727,-0.9821,-0.9628,-0.9628,-0.9628,-0.9628,-0.9628,-0.9821,-1.0314,-1.0413,-1.0529,-1.0852,-1.091,-1.081,-1.0739,-1.097,-1.1122,-1.1128,-1.1647,0.0,-1.2169,-1.2417,-1.293,-1.3538,-1.3538,-1.4045,-1.4888,-1.4839,-1.5077,-1.5587,0.0,0.0,0.0,0.0,0.0,0.0,0.0,0.0,0.0,-1.5626,-1.5796,-1.581,0.0,0.0,0.0,0.0,0.0,0.0,0.0,0.0,0.0,0.0,0.0,0.0,0.0,0.0,0.0,0.0,0.0,0.0,0.0,0.0,0.0,0.0,0.0,0.0,0.0,0.0,0.0,0.0,0.0,0.0,0.0,0.0,0.0,0.0,0.0,0.0,0.0,0.0,-1.1765,-1.1081,-0.9693,-0.8218,-0.7231,-0.7916,-0.8317,-0.8644,-0.9161,-0.9602,-0.9765,-0.9683,-0.9826,-0.9873,-0.9653,0.0,0.0,-0.9103,-0.8682,-0.82,-0.8176,-0.8074,-0.8107,-0.8202,-0.8271,-0.8399,-0.8608,-0.9059,-0.9267,-0.927,-0.9602,-0.9826,-0.9826,-0.9826,-0.9821,-1.0019,-1.0117,-1.0117,-0.9821,-0.992,-1.0019,-1.0019,-1.0019,-1.0117,-1.0413,-1.0511,-1.0608,-1.0705,-1.0688,-1.0662,-1.0447,-1.0686,-1.0835,-1.0911,-1.1262,-1.1699,-1.2043,-1.2118,-1.2625,-1.3398,-1.3398,-1.3899,-1.4734,-1.4734,-1.4999,-1.5431,0.0,0.0,0.0,0.0,0.0,0.0,0.0,-1.5959,-1.6334,-1.6069,-1.6548,-1.668,-1.6032,-1.5806,-1.5566,0.0,0.0,0.0,0.0,0.0,0.0,0.0,0.0,0.0,0.0,0.0,0.0,-0.8247,0.0,0.0,0.0,0.0,0.0,0.0,0.0,0.0,0.0,0.0,0.0,0.0,0.0,0.0,0.0,0.0,0.0,0.0,0.0,0.0,0.0,0.0,-1.2137,-1.1184,-0.9119,-0.838,-0.8404,-0.8923,-0.9139,-0.9345,-0.9951,-1.0091,-1.0057,-1.009,-1.0115,-1.0131,-0.9713,-0.9405,-0.9206,-0.9071,-0.856,-0.8158,-0.8071,-0.8078,-0.8103,0.0,-0.8323,-0.8544,-0.8706,-0.9147,-0.9487,0.0,-0.9761,0.0,-1.0113,-1.0117,0.0,-1.0408,-1.0413,-1.0413,-1.0117,-1.0314,-1.0413,-1.0413,-1.0413,-1.0413,-1.0511,-1.0667,-1.0642,-1.0541,-1.052,-1.04,-1.0197,-1.046,-1.0641,-1.0727,-1.1089,-1.1607,-1.2043,-1.2043,-1.2546,-1.3398,-1.3398,-1.3899,-1.4734,-1.4734,-1.4999,-1.5431,0.0,0.0,0.0,0.0,0.0,0.0,0.0,-1.5823,-1.6485,-1.6233,-1.6828,-1.7088,-1.6754,-1.6228,-1.5682,0.0,0.0,0.0,0.0,0.0,0.0,0.0,0.0,0.0,0.0,0.0,0.0,-0.8888,-0.8366,0.0,0.0,0.0,0.0,0.0,0.0,-0.8846,0.0,0.0,0.0,0.0,0.0,0.0,0.0,0.0,0.0,0.0,0.0,0.0,0.0,0.0,0.0,-1.1838,-1.0993,-1.0205,-0.9447,-0.9522,0.0,-1.0207,-1.0294,-1.0238,-1.0287,-1.0295,-1.0067,-0.9922,-0.99,0.0,-0.9206,-0.9206,-0.8689,-0.8177,-0.8197,-0.8251,-0.827,-0.8297,0.0,-0.8709,-0.8946,-0.911,-0.9331,-0.9696,0.0,0.0,-1.0395,-1.0314,-1.0413,-1.0413,-1.0605,-1.0609,-1.0413,-1.0413,-1.0413,-1.0413,-1.0413,-1.0511,-1.0801,-1.0628,-1.0531,-1.0603,-1.04,-1.0187,-1.0067,-1.0477,-1.0727,-1.0727,-1.1089,-1.1607,0.0,-1.2043,-1.2546,-1.3398,-1.3398,-1.3899,-1.4734,-1.4734,-1.4999,-1.5431,0.0,0.0,0.0,0.0,0.0,0.0,0.0,-1.5568,-1.6218,-1.6188,-1.6563,-1.6819,-1.6786,-1.642,-1.6029,0.0,0.0,0.0,0.0,0.0,0.0,0.0,0.0,0.0,0.0,0.0,-1.0099,-0.9903,-0.9461,0.0,0.0,0.0,0.0,0.0,0.0,-0.9396,-1.0168,0.0,0.0,0.0,0.0,0.0,0.0,0.0,0.0,0.0,0.0,0.0,0.0,0.0,0.0,0.0,-1.1615,-1.1147,0.0,0.0,-1.0254,-1.0491,-1.0663,-1.0677,-1.0637,-1.0641,-1.0589,-1.0445,-1.0273,0.0,-0.9497,-0.9427,-0.8974,-0.8501,-0.8236,-0.8249,-0.8302,-0.8529,0.0,0.0,-0.9323,-0.9498,-0.9703,-1.0048,-1.0198,-1.0399,0.0,0.0,-1.0703,-1.09,-1.0998,-1.0998,-1.0904,-1.09,-1.09,-1.09,-1.09,-1.09,-1.0998,-1.0803,-1.0693,-1.057,-1.0367,-1.0159,-1.0038,-1.0467,-1.0636,-1.0641,-1.1084,-1.1607,0.0,-1.2043,-1.2546,-1.3398,-1.3398,-1.3899,-1.4566,-1.465,-1.4908,-1.5257,0.0,0.0,0.0,0.0,0.0,0.0,-1.4429,-1.525,-1.5913,-1.6143,-1.6439,-1.6645,-1.6821,-1.6591,-1.6259,-1.5798,0.0,0.0,0.0,0.0,0.0,0.0,0.0,0.0,0.0,0.0,-1.0969,-1.0795,-1.0442,-1.0251,0.0,0.0,-0.9576,-0.9767,0.0,0.0,0.0,0.0,0.0,0.0,0.0,0.0,0.0,0.0,0.0,0.0,0.0,0.0,0.0,0.0,0.0,0.0,0.0,0.0,0.0,0.0,-1.0734,-1.0789,-1.095,-1.0986,-1.0891,-1.0874,-1.0855,-1.0747,-1.0558,-1.0136,-0.9782,-0.9648,-0.9181,-0.8765,-0.8495,-0.8431,-0.8459,0.0,0.0,-0.8968,-0.9626,-0.9878,-1.0062,-1.049,0.0,-1.0805,-1.0974,-1.0998,-1.1096,-1.1292,-1.1389,-1.1487,-1.1487,-1.1487,-1.1389,-1.1194,-1.1194,-1.1165,-1.1109,-1.0905,-1.0693,-1.0485,-1.0277,-1.0097,-1.0038,-1.0467,-1.0636,-1.0641,-1.1084,-1.1607,0.0,-1.2043,-1.2546,-1.3313,-1.3398,-1.373,-1.4321,-1.4566,-1.4908,-1.5173,0.0,0.0,0.0,0.0,0.0,0.0,0.0,-1.4779,-1.558,-1.6148,-1.6595,-1.6861,-1.6821,-1.6694,-1.641,-1.5914,0.0,0.0,0.0,0.0,0.0,0.0,0.0,0.0,0.0,0.0,-1.1668,-1.1498,-1.1299,-1.1024,-1.0685,-1.0679,-1.0679,-1.0679,0.0,0.0,0.0,0.0,0.0,0.0,0.0,0.0,0.0,0.0,0.0,0.0,0.0,0.0,0.0,0.0,0.0,0.0,0.0,0.0,0.0,0.0,-1.1163,-1.1192,-1.1192,-1.1022,-1.0918,-1.0913,-1.0713,-1.0519,-1.0513,-1.0136,-0.9782,-0.9782,-0.9376,-0.9017,-0.9017,-0.8894,-0.886,-0.913,0.0,0.0,-0.9867,-0.9999,-1.0322,0.0,-1.1308,-1.1392,-1.1546,-1.1585,-1.1585,-1.1585,-1.1883,0.0,-1.198,-1.198,-1.178,-1.1198,-1.1194,-1.1099,-1.0901,-1.0683,-1.0475,-1.0272,-1.006,-1.0043,-1.0038,-1.0467,-1.0727,-1.0727,-1.1089,-1.1607,0.0,-1.2043,-1.2466,-1.3137,-1.3313,-1.3659,-1.4166,-1.4573,-1.4908,-1.5173,0.0,0.0,0.0,0.0,0.0,0.0,0.0,-1.424,-1.4966,-1.5135,-1.5892,-1.6376,-1.633,-1.656,-1.6534,-1.5972,0.0,0.0,0.0,0.0,0.0,0.0,0.0,0.0,0.0,0.0,-1.2615,-1.2507,-1.2287,-1.2103,-1.1959,-1.154,-1.1449,-1.1724,-1.1454,-1.1451,0.0,0.0,0.0,0.0,0.0,0.0,0.0,0.0,0.0,0.0,0.0,0.0,0.0,0.0,0.0,0.0,0.0,0.0,0.0,0.0,0.0,0.0,-1.1517,-1.138,-1.1244,-1.1244,-1.1103,-1.084,-1.0668,-1.0367,-1.0077,-0.9769,-0.9454,-0.9145,-0.9017,-0.9094,-0.9315,-0.9586,-0.9564,0.0,0.0,0.0,0.0,-1.1,-1.1359,-1.1562,0.0,0.0,-1.1878,-1.1878,-1.198,-1.198,-1.198,-1.198,-1.1883,-1.178,-1.178,-1.1584,-1.1372,-1.1145,-1.1019,-1.0806,-1.0577,-1.0467,-1.0467,-1.0738,-1.0916,-1.0916,-1.1176,-1.1607,-1.2043,-1.2043,-1.246,-1.3137,-1.3313,-1.3568,-1.3906,-1.4489,-1.4741,-1.4992,0.0,0.0,0.0,0.0,0.0,0.0,0.0,-1.3666,-1.4224,-1.4631,-1.5244,-1.5747,-1.6074,-1.6371,-1.6336,-1.5961,0.0,0.0,0.0,0.0,0.0,0.0,0.0,0.0,0.0,-1.3492,-1.3342,-1.3192,-1.3027,-1.2893,-1.2673,-1.2263,-1.2254,-1.2462,-1.2127,-1.2123,0.0,0.0,0.0,0.0,0.0,0.0,-1.4497,0.0,0.0,0.0,0.0,0.0,0.0,0.0,0.0,0.0,0.0,0.0,0.0,0.0,-1.184,-1.1584,0.0,-1.1632,-1.1484,-1.1484,-1.1409,0.0,-1.0996,-1.0655,-1.0323,-0.9928,-0.9592,-0.9344,-0.9215,-0.936,-0.9614,-0.9806,-0.9922,0.0,0.0,0.0,-1.0736,-1.117,-1.1564,0.0,0.0,-1.2124,-1.2175,-1.2175,-1.2273,-1.2237,-1.2154,-1.2149,-1.2107,-1.2014,-1.1905,-1.1748,-1.1526,-1.1298,-1.1076,-1.0853,-1.0799,-1.0727,-1.0727,-1.0916,-1.1008,-1.1008,-1.1181,-1.1607,0.0,-1.2043,-1.2381,-1.2966,-1.3307,-1.3476,-1.3646,-1.4398,-1.4734,-1.4824,0.0,0.0,0.0,0.0,0.0,0.0,0.0,0.0,0.0,0.0,-1.4663,-1.5064,-1.5956,-1.6084,-1.6022,0.0,0.0,0.0,0.0,0.0,0.0,0.0,0.0,0.0,0.0,-1.421,-1.3971,-1.3601,-1.3601,-1.3389,-1.3036,-1.3036,-1.3022,-1.3008,-1.2935,-1.2905,0.0,0.0,0.0,0.0,-1.4217,-1.4433,0.0,0.0,0.0,0.0,0.0,0.0,0.0,0.0,0.0,0.0,0.0,0.0,0.0,0.0,0.0,0.0,0.0,-1.1649,-1.1656,-1.1668,-1.1662,-1.1579,-1.1325,-1.0911,0.0,-1.0232,-0.9848,-0.9554,-0.9572,-0.9664,-0.9791,-1.0043,-1.017,-1.0461,0.0,-1.0989,-1.11,-1.1618,-1.1815,-1.1989,-1.2005,-1.2198,-1.242,-1.242,-1.2614,-1.2619,-1.2398,-1.2388,-1.2285,-1.2145,-1.1781,-1.15,-1.1288,-1.1176,-1.0962,-1.0727,-1.0727,-1.0727,-1.0727,-1.0916,-1.1008,0.0,-1.1181,-1.1607,0.0,-1.2043,-1.2289,-1.279,-1.3222,-1.3398,-1.3476,-1.4398,-1.4734,-1.4817,0.0,0.0,0.0,0.0,0.0,0.0,0.0,0.0,0.0,0.0,-1.4228,-1.4942,-1.5477,-1.5892,-1.6022,0.0,0.0,0.0,0.0,0.0,0.0,0.0,0.0,0.0,0.0,-1.459,-1.4624,-1.4766,-1.4454,-1.4359,-1.4369,-1.4209,-1.4015,-1.3715,-1.3565,-1.3534,0.0,0.0,0.0,0.0,-1.4361,-1.4425,0.0,0.0,0.0,0.0,-1.4353,-1.4209,0.0,0.0,0.0,0.0,0.0,0.0,0.0,0.0,-1.1758,-1.1594,-1.1527,0.0,-1.1333,-1.1553,-1.1301,-1.0981,0.0,-1.0691,-1.0346,-1.0076,0.0,-0.9802,-1.0005,-1.0129,-1.0251,-1.0515,-1.081,-1.1093,-1.1387,-1.1449,-1.1569,-1.1661,-1.1706,-1.1844,-1.2026,-1.209,-1.2215,-1.2215,-1.2215,-1.2286,-1.214,-1.2134,-1.2108,-1.214,-1.1925,-1.1833,-1.16,-1.1547,-1.1404,-1.117,-1.117,-1.117,-1.117,-1.1176,-1.1262,-1.1262,-1.1267,0.0,-1.2043,-1.2043,-1.2289,-1.279,-1.3222,-1.3398,-1.3476,-1.4398,-1.4734,-1.4817,0.0,0.0,0.0,0.0,0.0,0.0,0.0,0.0,0.0,0.0,0.0,0.0,0.0,0.0,0.0,0.0,0.0,0.0,0.0,0.0,0.0,0.0,0.0,0.0,-1.5333,-1.5199,-1.5121,-1.5189,-1.5031,-1.4973,-1.4909,-1.4832,-1.4665,-1.45,-1.4268,-1.4015,-1.3928,-1.4137,-1.4281,-1.4433,-1.4497,0.0,0.0,0.0,0.0,0.0,-1.4245,-1.4033,0.0,-1.3457,-1.3145,-1.2858,0.0,0.0,0.0,0.0,-1.1602,-1.1359,-1.1154,-1.1155,-1.1289,-1.1649,-1.1532,-1.1281,-1.1351,0.0,0.0,0.0,0.0,0.0,-1.0497,-1.061,-1.0698,-1.0838,-1.1103,-1.1431,-1.1723,-1.1708,-1.1662,-1.1701,-1.1722,-1.1747,0.0,-1.2166,-1.2318,-1.2409,-1.2409,-1.2365,-1.2254,-1.2248,-1.2198,-1.2087,-1.2048,-1.1943,-1.1876,-1.1861,-1.1739,-1.1613,-1.1613,-1.1547,-1.1437,-1.1437,-1.1376,-1.1277,-1.1387,0.0,-1.2041,-1.2157,-1.2369,-1.279,-1.3222,-1.3398,-1.3476,-1.4398,-1.4734,-1.4824,0.0,0.0,0.0,0.0,0.0,0.0,0.0,0.0,0.0,0.0,0.0,0.0,0.0,0.0,0.0,0.0,0.0,0.0,0.0,0.0,0.0,0.0,0.0,-1.614,-1.5867,-1.5794,-1.5642,-1.5343,-1.5534,-1.549,-1.5303,-1.5303,-1.5272,-1.5133,-1.4812,-1.4482,-1.4206,-1.4377,-1.4425,-1.4425,-1.4569,0.0,0.0,0.0,0.0,0.0,0.0,0.0,0.0,-1.3021,-1.2766,-1.2721,-1.252,0.0,0.0,0.0,0.0,0.0,-1.087,-1.1111,-1.1444,-1.1717,-1.1764,-1.1757,0.0,0.0,0.0,0.0,0.0,0.0,0.0,-1.0993,-1.1019,-1.1062,-1.1313,-1.1696,-1.1969,-1.19,-1.1785,-1.1785,-1.1789,0.0,-1.1999,-1.2182,-1.2389,-1.257,-1.257,-1.2467,-1.2306,-1.2294,-1.218,-1.1929,-1.1923,-1.194,-1.197,-1.202,-1.2043,-1.2043,-1.2003,-1.186,-1.156,-1.1521,-1.139,-1.1203,0.0,0.0,-1.1999,-1.2216,-1.2498,-1.279,-1.3222,-1.3398,-1.3476,-1.4398,-1.4734,-1.4817,0.0,0.0,0.0,0.0,0.0,0.0,0.0,0.0,0.0,0.0,0.0,0.0,0.0,0.0,0.0,0.0,0.0,0.0,0.0,0.0,0.0,0.0,-1.6621,-1.6202,-1.607,-1.602,-1.608,-1.616,-1.628,-1.6285,-1.6238,-1.6238,-1.5928,-1.5477,-1.5079,-1.4844,-1.4774,-1.4623,-1.4569,-1.4569,-1.4792,0.0,0.0,0.0,0.0,0.0,0.0,0.0,0.0,-1.3163,-1.2749,-1.2312,-1.2109,0.0,0.0,0.0,0.0,0.0,-1.1059,-1.1129,-1.1203,-1.1424,-1.1309,-1.1256,0.0,0.0,0.0,0.0,0.0,0.0,0.0,-1.1339,-1.1297,-1.131,-1.1587,-1.1966,-1.2318,-1.2339,-1.2203,-1.1952,0.0,-1.2014,-1.2014,-1.2048,-1.2065,-1.2071,-1.2071,-1.1952,-1.1775,-1.1763,-1.1566,-1.1317,-1.156,-1.1659,-1.17,-1.1928,-1.2043,-1.2037,-1.173,-1.16,-1.1555,-1.1345,-1.1231,-1.1197,0.0,-1.1531,-1.1987,-1.2022,-1.2337,-1.279,-1.3222,-1.3398,-1.3476,-1.4398,-1.4734,-1.4817,0.0,0.0,0.0,0.0,0.0,0.0,0.0,0.0,0.0,0.0,0.0,0.0,0.0,0.0,0.0,0.0,0.0,0.0,0.0,0.0,0.0,-1.7392,-1.6751,-1.6501,-1.6501,-1.6538,-1.6632,-1.6763,-1.6804,-1.6815,-1.6804,-1.664,-1.6296,-1.5872,-1.552,-1.5265,-1.5216,-1.4872,-1.4856,-1.4919,0.0,0.0,0.0,0.0,0.0,0.0,0.0,0.0,0.0,0.0,-1.2488,-1.2168,-1.197,0.0,0.0,0.0,0.0,0.0,-1.1247,-1.1185,-1.127,-1.162,-1.1533,-1.1519,0.0,0.0,0.0,0.0,0.0,0.0,0.0,0.0,-1.1736,-1.1794,-1.2117,-1.2352,-1.2565,-1.233,-1.2157,0.0,0.0,-1.1626,-1.1798,-1.1798,-1.1798,-1.1958,-1.1964,-1.1905,-1.1782,-1.177,-1.1717,-1.1599,-1.168,-1.1766,-1.1766,-1.2004,-1.2046,-1.1958,-1.1834,-1.1705,-1.1564,-1.1447,-1.1312,-1.1182,0.0,-1.1464,-1.1754,-1.2034,-1.2385,-1.2763,-1.325,-1.3483,-1.3646,-1.4398,-1.4992,-1.5499,0.0,0.0,0.0,0.0,0.0,0.0,0.0,0.0,0.0,0.0,0.0,0.0,0.0,0.0,0.0,0.0,0.0,0.0,0.0,0.0,-1.7366,-1.747,-1.6968,-1.6722,-1.69,-1.6937,-1.703,-1.7178,-1.721,-1.7212,-1.7049,-1.6812,-1.6587,-1.6309,-1.595,-1.5683,-1.5559,-1.5122,-1.507,-1.5204,0.0,0.0,0.0,0.0,0.0,0.0,0.0,0.0,0.0,0.0,0.0,0.0,0.0,0.0,0.0,-1.1622,-1.1622,-1.156,-1.1428,-1.1373,-1.146,-1.1956,0.0,0.0,0.0,0.0,0.0,0.0,0.0,0.0,0.0,-1.215,-1.2022,-1.2145,-1.2327,-1.2474,-1.2487,-1.2183,-1.1975,-1.1975,-1.1636,-1.1439,-1.168,-1.1686,-1.1766,-1.192,-1.192,-1.1896,-1.1836,-1.183,-1.1799,-1.1733,-1.1733,-1.1733,-1.1812,-1.1969,-1.2037,-1.2,-1.1939,-1.1806,-1.1605,-1.1538,-1.1392,-1.1198,-1.1341,-1.1467,-1.157,-1.2116,-1.2429,-1.2762,-1.3283,-1.3652,-1.3984,-1.4489,-1.5325,-1.6087,0.0,0.0,0.0,0.0,0.0,0.0,0.0,0.0,0.0,0.0,0.0,0.0,0.0,0.0,0.0,0.0,0.0,0.0,0.0,0.0,-1.7054,-1.7451,-1.7116,-1.6872,-1.69,-1.7077,-1.7166,-1.7178,-1.7523,-1.7456,-1.7049,-1.6812,-1.6722,-1.6667,-1.6148,-1.598,-1.5915,-1.5429,-1.5204,-1.5204,-1.5426,0.0,0.0,0.0,0.0,0.0,0.0,0.0,0.0,0.0,0.0,0.0,0.0,0.0,-1.174,-1.1622,-1.1622,-1.1622,-1.156,-1.156,-1.165,-1.209,-1.2112,0.0,-1.2687,-1.2893,0.0,-1.2599,0.0,0.0,0.0,-1.215,-1.2032,-1.2126,-1.1964,-1.1914,-1.1944,0.0,-1.195,-1.195,-1.1852,-1.184,-1.1846,-1.1846,-1.1846,-1.192,-1.192,-1.1817,-1.1576,-1.1558,-1.1443,-1.1178,-1.1172,-1.1247,-1.1396,-1.1465,-1.1725,-1.216,-1.2148,-1.2093,-1.2062,-1.164,-1.1428,-1.1335,-1.1204,-1.1286,-1.1552,-1.208,-1.2426,-1.2762,-1.3452,-1.4068,-1.465,-1.465,-1.5325,-1.6087,0.0,0.0,0.0,0.0,0.0,0.0,0.0,0.0,0.0,0.0,0.0,0.0,0.0,0.0,0.0,0.0,0.0,0.0,0.0,0.0,-1.7159,-1.7451,-1.7245,-1.7082,-1.7063,-1.7308,-1.748,-1.7562,-1.7683,-1.7456,-1.7139,-1.6976,-1.6976,-1.6944,-1.6312,-1.6149,-1.6329,-1.5663,-1.5426,-1.5576,-1.5655,-1.5647,0.0,0.0,0.0,0.0,0.0,0.0,0.0,0.0,-1.249,-1.2305,0.0,-1.2058,-1.1996,-1.1934,-1.1809,-1.1747,-1.1747,-1.1685,-1.1714,-1.2224,-1.2316,0.0,0.0,-1.29,-1.29,-1.282,-1.2673,0.0,-1.2305,0.0,-1.2467,-1.2286,-1.2298,-1.2286,-1.2148,-1.186,-1.1679,-1.1679,-1.1528,-1.1419,-1.1419,-1.1419,-1.1419,-1.1419,-1.1419,-1.1377,-1.1274,-1.1268,-1.122,-1.1111,-1.1186,-1.1335,-1.1409,-1.1632,-1.1889,-1.2107,-1.1923,-1.1872,-1.1872,-1.1683,-1.1558,-1.1558,-1.1484,-1.1546,-1.1671,-1.2035,-1.2397,-1.293,-1.3798,-1.4398,-1.4734,-1.4908,-1.5416,-1.6087,0.0,0.0,0.0,0.0,0.0,0.0,0.0,0.0,0.0,0.0,0.0,0.0,0.0,0.0,0.0,0.0,0.0,0.0,0.0,-1.6914,-1.7015,-1.7252,-1.7248,-1.7167,-1.7098,-1.7278,-1.7517,-1.7796,-1.7763,-1.7538,-1.7294,-1.7221,-1.7221,-1.7188,-1.6468,-1.637,-1.6556,-1.5889,-1.5655,-1.5805,-1.5805,-1.5805,0.0,0.0,0.0,0.0,0.0,0.0,0.0,0.0,-1.2683,-1.2428,0.0,0.0,-1.212,-1.212,-1.1996,-1.1872,-1.1872,-1.1884,-1.1973,0.0,0.0,0.0,-1.2998,-1.3119,-1.3046,-1.3046,-1.2746,-1.2526,-1.2452,0.0,0.0,0.0,-1.2325,-1.2298,-1.1979,-1.1664,-1.1478,-1.1401,-1.1154,-1.0985,-1.0985,-1.0912,-1.0864,-1.0864,-1.0864,-1.09,-1.1058,-1.1064,-1.1138,-1.1138,-1.1279,-1.1315,-1.1301,-1.1591,-1.1735,-1.1808,-1.1663,-1.1687,-1.1855,-1.1855,-1.1781,-1.1781,-1.1706,-1.1706,-1.1726,-1.2094,-1.2596,-1.3226,-1.3933,-1.4483,-1.4734,-1.4999,-1.5506,-1.6087,0.0,0.0,0.0,0.0,0.0,0.0,0.0,0.0,0.0,0.0,0.0,0.0,0.0,0.0,0.0,0.0,0.0,0.0,0.0,-1.6465,-1.652,-1.6817,-1.7088,-1.7107,-1.6908,-1.7089,-1.7391,-1.7796,-1.7763,-1.77,-1.77,-1.7473,-1.7392,-1.7359,-1.6857,-1.6598,-1.6548,-1.6041,-1.5805,-1.5805,-1.5805,-1.5805,-1.572,0.0,0.0,0.0,0.0,0.0,0.0,0.0,-1.2805,-1.2744,0.0,0.0,0.0,-1.212,-1.2127,-1.2127,-1.2127,-1.2183,-1.2377,0.0,0.0,0.0,-1.3426,-1.3492,-1.3419,-1.3273,-1.29,-1.2599,-1.2599,-1.2452,0.0,-1.2003,-1.2003,-1.1855,-1.1484,-1.1403,-1.1329,-1.1105,-1.0876,-1.0719,-1.0719,-1.0484,-1.0327,-1.0327,-1.0327,-1.0511,-1.0988,-1.1006,-1.1078,-1.1293,-1.1293,-1.1224,-1.108,-1.108,-1.1217,-1.1423,-1.1423,-1.173,-1.2298,-1.2077,-1.2003,-1.2003,-1.1781,-1.1706,-1.1732,-1.2316,-1.2936,-1.3634,-1.3872,-1.4303,-1.4734,-1.4999,-1.5506,-1.6087,0.0,0.0,0.0,0.0,0.0,0.0,0.0,0.0,0.0,0.0,0.0,0.0,0.0,0.0,0.0,0.0,0.0,0.0,0.0,-1.6547,-1.6658,-1.6817,-1.7175,-1.7254,-1.6908,-1.7089,-1.7391,-1.7796,-1.7852,-1.7861,-1.77,-1.7619,-1.7493,-1.7234,-1.6817,-1.653,-1.6408,-1.6002,-1.5805,-1.5797,-1.5929,-1.6,-1.5922,0.0,0.0,0.0,0.0,0.0,0.0,0.0,0.0,0.0,0.0,0.0,0.0,-1.2436,-1.2367,-1.2243,-1.2243,-1.2373,0.0,-1.2922,0.0,0.0,0.0,-1.3572,0.0,0.0,-1.3119,-1.2973,-1.2673,-1.2526,0.0,-1.2224,-1.2077,-1.1929,-1.1855,-1.1395,-1.1124,-1.1052,-1.0676,-1.0447,-1.0447,-1.0375,-1.0327,-1.0465,-1.0534,-1.0635,-1.0855,-1.0861,-1.0861,-1.0931,-1.107,-1.1164,-1.108,-1.1217,-1.143,-1.1635,-1.1635,-1.1769,-1.1997,-1.1925,-1.2032,-1.2224,-1.215,-1.215,-1.2177,-1.255,-1.2923,-1.328,-1.395,-1.4416,-1.4693,-1.5328,-1.5748,-1.6087,0.0,0.0,0.0,0.0,0.0,0.0,0.0,0.0,0.0,0.0,0.0,0.0,0.0,0.0,0.0,0.0,0.0,0.0,0.0,0.0,-1.6645,-1.6636,-1.7216,-1.7323,-1.6908,-1.7089,-1.7313,-1.757,-1.764,-1.7586,-1.735,-1.735,-1.7232,-1.7089,-1.6707,-1.6485,-1.6401,-1.5959,-1.5781,-1.5713,-1.5774,-1.5816,-1.5674,0.0,0.0,0.0,0.0,0.0,0.0,0.0,0.0,0.0,0.0,0.0,0.0,-1.2621,-1.2498,-1.2428,-1.2428,-1.2663,0.0,-1.3161,-1.3424,-1.3678,-1.3745,0.0,0.0,0.0,-1.3273,-1.3119,-1.29,-1.2673,0.0,-1.2452,-1.2131,-1.1906,-1.1833,-1.1377,-1.0987,-1.0916,-1.0541,-1.0306,-1.0306,-1.0214,-1.0153,-1.0348,-1.0348,-1.0466,-1.077,-1.0776,-1.0776,-1.0911,-1.0979,-1.1061,-1.1009,-1.1076,-1.1274,-1.148,-1.148,-1.1572,-1.1737,-1.1975,-1.2107,-1.2204,-1.2251,-1.2378,-1.2466,-1.2648,-1.2866,-1.3154,-1.3846,-1.4237,-1.4445,-1.5116,-1.544,-1.5786,0.0,0.0,0.0,0.0,0.0,0.0,0.0,0.0,0.0,0.0,0.0,0.0,0.0,0.0,0.0,0.0,0.0,0.0,0.0,0.0,0.0,0.0,0.0,0.0,0.0,0.0,0.0,0.0,-1.7142,-1.7128,-1.6918,-1.6918,-1.6901,-1.685,-1.6507,-1.6383,-1.6297,-1.5962,-1.567,-1.5451,-1.5451,-1.5367,-1.5062,-1.4755,0.0,0.0,0.0,0.0,0.0,0.0,0.0,0.0,-1.2928,0.0,-1.2805,-1.2621,-1.2629,-1.2621,-1.2621,-1.2924,0.0,-1.3333,-1.3708,0.0,-1.3863,-1.3717,-1.3564,-1.3499,0.0,-1.3193,-1.32,-1.2879,-1.2631,-1.2558,-1.2168,-1.1824,-1.1611,-1.1292,-1.0972,-1.0835,-1.0459,-1.023,-1.0356,-1.0005,-0.9862,-1.0053,-1.0047,-1.0226,-1.0673,-1.0686,-1.0752,-1.0949,-1.0949,-1.0951,-1.0807,-1.0807,-1.0933,-1.1122,-1.1122,-1.127,-1.1558,-1.2109,-1.2276,-1.2203,-1.233,-1.2452,-1.2599,-1.2599,-1.2912,-1.3313,-1.3582,-1.3844,-1.4173,-1.4606,-1.4925,-1.5188,0.0,0.0,0.0,0.0,0.0,0.0,0.0,0.0,0.0,0.0,0.0,0.0,0.0,0.0,0.0,0.0,0.0,0.0,0.0,0.0,0.0,0.0,0.0,0.0,0.0,0.0,0.0,0.0,0.0,0.0,0.0,0.0,0.0,-1.6456,0.0,-1.6091,-1.5679,-1.5592,-1.5399,-1.523,-1.5379,-1.5391,-1.5339,-1.507,-1.4916,0.0,0.0,0.0,0.0,0.0,0.0,0.0,-1.3241,-1.2997,-1.2805,-1.2744,-1.2683,-1.2621,-1.2621,-1.2877,0.0,0.0,-1.3909,-1.4281,-1.4065,-1.3985,-1.3848,-1.3564,-1.3492,-1.3419,-1.32,-1.292,-1.2607,-1.2322,-1.1997,-1.1661,-1.1454,-1.1066,-1.0749,-1.0749,-1.0308,-1.0072,-1.0072,-1.0021,-1.0047,-1.0244,-1.0238,-1.0334,-1.0584,-1.0591,-1.0712,-1.0839,-1.0839,-1.0869,-1.1059,-1.1059,-1.1122,0.0,-1.124,-1.1339,-1.1558,-1.1928,-1.234,-1.2729,-1.2792,-1.282,-1.2826,-1.2826,-1.3008,-1.3248,-1.3572,-1.3867,-1.4114,-1.4749,-1.5072,-1.5165,0.0,0.0,0.0,0.0,0.0,0.0,0.0,0.0,0.0,0.0,0.0,0.0,0.0,0.0,0.0,0.0,0.0,0.0,0.0,0.0,0.0,0.0,0.0,0.0,0.0,0.0,0.0,0.0,0.0,0.0,0.0,0.0,0.0,-1.6286,0.0,-1.5965,-1.5622,-1.5622,-1.5354,-1.4951,-1.5088,-1.5043,-1.4987,-1.4839,-1.4757,-1.4669,-1.4279,0.0,0.0,0.0,0.0,0.0,0.0,0.0,-1.2989,-1.2928,-1.2805,-1.2683,-1.2683,0.0,0.0,-1.3711,0.0,-1.4175,-1.4026,-1.3955,-1.3838,-1.3342,-1.3368,-1.3285,-1.2912,-1.2606,-1.2422,-1.2214,-1.1751,-1.1417,-1.135,-1.0903,-1.0652,-1.0652,-1.0328,-1.0174,-1.0308,-1.0174,-1.0238,-1.0434,-1.0428,-1.0498,-1.0561,-1.0681,-1.0744,-1.0807,-1.087,-1.0996,-1.1185,-1.1185,-1.131,-1.1428,-1.1428,-1.1658,-1.2028,-1.2097,-1.2452,-1.3046,-1.2973,-1.2973,-1.3046,-1.3046,-1.3193,-1.336,-1.3527,-1.3748,-1.3992,-1.4456,-1.4741,-1.4989,0.0,0.0,0.0,0.0,0.0,0.0,0.0,0.0,0.0,0.0,0.0,0.0,0.0,0.0,0.0,0.0,0.0,0.0,0.0,0.0,0.0,0.0,0.0,0.0,0.0,0.0,0.0,0.0,0.0,0.0,0.0,0.0,0.0,-1.6272,0.0,-1.5947,-1.5641,-1.5641,-1.5319,-1.4736,-1.4736,-1.4669,-1.4515,-1.4515,-1.4515,-1.4455,-1.4336,-1.4207,-1.401,-1.389,0.0,0.0,0.0,0.0,-1.3241,-1.3111,-1.2928,-1.2805,0.0,0.0,-1.3292,-1.3791,-1.3982,0.0,-1.3807,-1.3738,-1.3645,-1.3109,-1.3112,-1.3125,-1.2638,-1.234,-1.2229,-1.2162,-1.1633,-1.117,-1.117,-1.0836,-1.0624,-1.0624,-1.0434,-1.0434,-1.0561,-1.0434,-1.0434,-1.0561,-1.0624,-1.0624,-1.0618,-1.0744,-1.0807,-1.087,-1.1059,-1.1185,-1.1365,-1.1365,-1.1435,-1.1622,-1.1685,-1.1995,-1.2505,-1.2429,-1.2661,-1.3273,-1.3046,-1.3119,-1.3273,-1.3273,-1.3346,-1.3492,-1.3572,-1.3645,-1.3863,-1.4065,-1.4353,-1.4681,0.0,0.0,0.0,0.0,0.0,0.0,0.0,0.0,0.0,0.0,0.0,0.0,0.0,0.0,0.0,0.0,0.0,0.0,-1.574,0.0,0.0,-1.6724,-1.7021,0.0,0.0,0.0,0.0,0.0,0.0,0.0,0.0,0.0,0.0,-1.6272,0.0,0.0,-1.5456,-1.5456,-1.507,-1.4529,-1.4529,-1.4501,-1.4515,-1.4515,-1.4515,-1.4455,-1.4336,-1.4267,-1.4207,-1.389,-1.3769,0.0,0.0,0.0,-1.3302,-1.3241,-1.3111,-1.2981,0.0,0.0,-1.3244,0.0,-1.3441,-1.3656,0.0,0.0,-1.3486,0.0,-1.2963,-1.2983,-1.2803,-1.2498,-1.2167,-1.1905,-1.1511,-1.1178,-1.0862,-1.0835,-1.0744,-1.0624,-1.0561,-1.0561,-1.0624,-1.0561,-1.0561,-1.0624,-1.0624,-1.0618,-1.0744,-1.08,-1.0933,-1.124,-1.124,-1.1373,-1.156,-1.156,-1.1622,-1.1802,-1.1934,-1.2193,-1.25,-1.2802,-1.3162,-1.3492,-1.3419,-1.3419,-1.3492,-1.3492,-1.3499,-1.3492,-1.3717,-1.3797,-1.387,-1.4217,-1.4425,-1.4649,0.0,0.0,0.0,0.0,0.0,0.0,0.0,0.0,0.0,0.0,0.0,0.0,0.0,0.0,0.0,-1.541,-1.5699,-1.5788,-1.5546,-1.588,-1.6152,-1.6348,-1.6714,-1.6896,-1.6994,0.0,0.0,0.0,0.0,0.0,0.0,-1.6365,-1.6423,0.0,0.0,0.0,0.0,-1.5333,-1.4976,-1.4515,-1.4515,-1.4515,-1.4515,-1.4515,-1.4515,-1.4506,-1.4446,-1.4336,-1.4267,-1.4148,-1.3959,-1.3769,-1.37,0.0,0.0,0.0,-1.3142,-1.3111,-1.305,-1.3042,-1.3151,0.0,-1.3509,-1.3558,-1.3437,0.0,-1.3276,-1.2798,-1.2719,-1.2701,-1.2436,-1.2322,-1.2089,-1.1836,-1.1585,-1.1373,-1.1115,-1.0926,-1.0807,-1.0744,-1.0624,-1.0624,-1.0624,-1.0624,-1.0618,-1.0681,-1.0681,-1.0807,-1.0933,-1.1059,-1.1178,-1.1303,-1.1428,-1.156,-1.1677,-1.1677,-1.1809,-1.1996,-1.2058,-1.2233,-1.2504,-1.292,-1.3271,-1.3521,-1.3636,-1.3645,-1.3645,-1.3564,-1.3572,-1.3645,-1.379,-1.3935,-1.4145,-1.4353,-1.4641,-1.4991,0.0,0.0,0.0,0.0,0.0,0.0,0.0,0.0,0.0,0.0,0.0,0.0,0.0,0.0,0.0,0.0,-1.5756,-1.5846,-1.5478,-1.5782,-1.6007,-1.6115,-1.6387,-1.6548,-1.6456,0.0,0.0,0.0,0.0,0.0,-1.6223,-1.6223,-1.6312,0.0,-1.6251,-1.5887,0.0,-1.5221,-1.4873,-1.4515,-1.4515,-1.4515,-1.4515,-1.4515,-1.4515,-1.4515,-1.4515,-1.4455,-1.4336,-1.4327,-1.4148,-1.389,-1.389,-1.3631,0.0,0.0,0.0,-1.3016,0.0,0.0,0.0,0.0,-1.3372,-1.3383,0.0,0.0,-1.3129,0.0,-1.2621,-1.256,-1.2251,-1.2182,-1.2058,-1.1934,-1.1747,-1.156,-1.1373,-1.1122,-1.0933,-1.087,-1.0807,-1.0751,-1.0751,-1.0751,-1.0751,-1.087,-1.087,-1.0933,-1.1122,-1.1247,-1.1365,-1.1428,-1.156,-1.1747,-1.1872,-1.1934,-1.2058,-1.2251,-1.2243,-1.2375,-1.2631,-1.3045,-1.3328,-1.36,-1.3818,-1.3863,-1.3855,-1.371,-1.371,-1.3863,-1.3935,-1.4145,-1.4433,-1.4505,-1.4784,-1.5204,0.0,0.0,0.0,0.0,0.0,0.0,0.0,0.0,0.0,0.0,0.0,0.0,-1.535,-1.553,-1.5659,-1.568,-1.5915,-1.5941,-1.5672,-1.5498,-1.5625,-1.6105,-1.6145,0.0,-1.6655,0.0,0.0,0.0,0.0,0.0,-1.5919,-1.5919,-1.5864,-1.5771,-1.6147,-1.5872,-1.5129,-1.5111,-1.4873,-1.4515,-1.4515,-1.4515,-1.4515,-1.4515,-1.4515,-1.4515,-1.4515,-1.4515,-1.4446,-1.4327,-1.4267,-1.4267,-1.4079,-1.3644,-1.3229,0.0,0.0,0.0,0.0,0.0,0.0,0.0,0.0,0.0,0.0,0.0,0.0,0.0,-1.2805,-1.2744,-1.2621,-1.2428,-1.2243,-1.212,-1.1934,-1.1747,-1.1622,-1.1435,-1.124,-1.1122,-1.1059,-1.1059,-1.1059,-1.1059,-1.1059,-1.1059,-1.1059,-1.1122,-1.1303,-1.1303,-1.1428,-1.174,-1.1802,-1.1864,-1.2065,-1.2182,-1.2367,-1.256,-1.2683,-1.2813,-1.296,-1.3375,-1.3672,-1.3782,-1.3987,-1.4057,-1.4057,-1.4057,-1.4057,-1.4129,-1.4281,-1.4361,-1.4425,-1.4792,-1.4999,-1.5204,0.0,0.0,0.0,0.0,0.0,0.0,0.0,0.0,0.0,0.0,0.0,0.0,0.0,-1.574,-1.5804,-1.6105,-1.6146,-1.6009,-1.574,-1.5614,-1.5615,-1.5635,-1.5644,-1.5723,-1.5879,0.0,0.0,0.0,0.0,-1.5619,-1.5679,-1.5679,-1.5679,-1.5626,-1.5532,-1.5377,-1.5084,-1.4827,-1.4694,-1.4606,-1.4606,-1.4606,-1.4634,-1.4911,-1.4952,-1.4928,-1.5175,-1.5102,-1.4891,-1.483,-1.4596,-1.4267,-1.4207,-1.3812,-1.3274,-1.3019,-1.2549,-1.2197,0.0,0.0,0.0,0.0,0.0,0.0,0.0,-1.3005,-1.3111,-1.2989,-1.2928,-1.2928,-1.2867,-1.2683,-1.2436,-1.2243,-1.2182,-1.2058,-1.1747,-1.1622,-1.1435,-1.1247,-1.1122,-1.1122,-1.1122,-1.1122,-1.1122,-1.1247,-1.1373,-1.1498,-1.1615,-1.1747,-1.1872,-1.1996,-1.1996,-1.212,-1.2436,-1.256,-1.2683,-1.2867,-1.2928,-1.292,-1.2997,-1.3413,-1.3712,-1.4015,-1.4308,-1.4434,-1.4281,-1.4129,-1.4201,-1.4281,-1.4353,-1.4505,-1.4721,-1.4872,-1.5078,-1.5426,0.0,0.0,0.0,0.0,0.0,0.0,0.0,0.0,0.0,0.0,0.0,0.0,0.0,0.0,-1.6389,-1.6798,-1.6701,-1.6453,-1.6077,-1.6008,-1.5869,-1.5546,-1.5478,-1.5478,-1.541,0.0,0.0,0.0,0.0,0.0,0.0,-1.5438,-1.5438,-1.5378,-1.4995,-1.4893,0.0,0.0,-1.4734,-1.4784,-1.4784,-1.4859,-1.5008,-1.5237,-1.5309,-1.5403,-1.5597,-1.5524,-1.5276,-1.5148,-1.4866,-1.456,-1.4432,-1.3907,-1.3197,-1.26,-1.2158,-1.1965,-1.2219,0.0,0.0,0.0,0.0,-1.2831,-1.266,0.0,-1.2924,-1.2797,-1.2738,-1.2738,-1.2627,-1.2508,-1.241,-1.2458,-1.2428,-1.2305,-1.1996,-1.1872,-1.1685,-1.149,-1.1373,-1.131,-1.1247,-1.131,-1.1373,-1.1428,-1.1622,0.0,-1.1872,-1.2058,-1.2127,-1.2243,-1.2375,-1.249,-1.2744,-1.2805,-1.2928,-1.3111,-1.3164,-1.3224,-1.3294,-1.3599,-1.3916,-1.4272,-1.453,-1.4706,-1.4641,-1.4489,-1.4561,-1.4641,-1.4641,-1.4784,-1.5007,-1.5078,-1.5292,-1.5576,0.0,0.0,0.0,0.0,0.0,0.0,0.0,0.0,0.0,-1.7322,0.0,0.0,0.0,0.0,0.0,-1.7698,-1.7606,-1.7287,-1.6838,-1.6688,-1.6377,-1.579,-1.5702,-1.5634,-1.543,0.0,0.0,0.0,0.0,0.0,0.0,0.0,-1.5147,-1.5001,-1.4525,-1.4563,-1.5001,0.0,-1.4961,-1.501,-1.5029,-1.5276,-1.5586,-1.542,-1.5629,-1.5983,-1.579,-1.5716,-1.5652,-1.5267,-1.512,-1.5029,-1.4616,-1.3832,-1.2915,-1.2019,-1.1737,-1.1728,0.0,0.0,0.0,0.0,0.0,0.0,-1.2427,0.0,-1.2389,-1.2223,-1.2223,-1.2175,-1.196,-1.1913,-1.2143,-1.272,-1.265,-1.2528,-1.2274,-1.2158,-1.2042,-1.1787,-1.1794,-1.174,-1.1622,-1.1747,-1.1809,-1.1809,-1.1996,-1.212,-1.212,-1.212,-1.2251,-1.2621,-1.2867,-1.2989,-1.2981,-1.2981,-1.3111,-1.3302,-1.3459,-1.364,-1.383,-1.395,-1.4258,-1.4601,-1.4601,-1.4883,-1.5204,-1.5204,-1.5204,-1.5204,-1.5204,-1.5204,-1.5204,-1.5426,-1.5505,-1.5568,0.0,0.0,0.0,0.0,0.0,0.0,0.0,0.0,-1.8294,0.0,0.0,0.0,-1.8201,-1.797,-1.7779,-1.7719,-1.7668,-1.7554,-1.7298,-1.7287,-1.7103,-1.6859,-1.6548,-1.6307,-1.6238,0.0,0.0,0.0,0.0,0.0,0.0,0.0,0.0,0.0,-1.4731,-1.4567,-1.4357,-1.444,0.0,-1.4763,-1.5022,-1.5405,-1.5737,-1.6042,-1.6232,-1.644,-1.6728,-1.6511,-1.6129,-1.6019,-1.5588,-1.4983,-1.4277,-1.3708,-1.3131,-1.2602,-1.2144,-1.1828,-1.1828,0.0,0.0,0.0,0.0,0.0,0.0,0.0,0.0,-1.2665,-1.261,-1.261,-1.2564,-1.2564,-1.2578,-1.2615,-1.2315,-1.1978,-1.1755,-1.1901,-1.1924,-1.1624,-1.1844,-1.1996,-1.1996,-1.1996,-1.1996,0.0,-1.2313,-1.2436,-1.2436,-1.2683,-1.2797,-1.2867,-1.2989,-1.3103,-1.3329,-1.3329,-1.3519,-1.3838,-1.3821,-1.389,-1.395,-1.401,-1.4374,-1.505,-1.505,-1.5423,-1.5921,-1.5417,-1.5204,-1.5204,-1.5204,-1.5275,-1.5426,-1.5505,-1.5709,-1.5991,0.0,0.0,0.0,0.0,0.0,0.0,0.0,0.0,-1.8808,0.0,0.0,0.0,-1.9079,-1.9201,-1.9101,-1.8718,-1.8708,-1.8477,-1.7893,-1.7873,-1.7728,-1.7419,-1.7093,-1.686,-1.6608,0.0,0.0,0.0,0.0,0.0,0.0,0.0,0.0,0.0,0.0,0.0,0.0,0.0,0.0,-1.4712,-1.5138,-1.5621,-1.6191,-1.636,-1.6691,-1.7052,-1.7229,-1.7027,-1.6668,-1.6501,-1.5836,-1.4955,-1.4139,-1.3783,-1.3534,-1.2942,-1.26,-1.2337,-1.2122,-1.2026,-1.1927,-1.1819,0.0,0.0,-1.2015,-1.2192,-1.2352,0.0,-1.2405,-1.2405,-1.2405,-1.2457,-1.2457,-1.2352,-1.2095,-1.1885,-1.176,-1.1857,-1.1871,-1.1631,-1.1819,-1.1939,-1.2071,-1.2087,-1.221,-1.2359,-1.2621,-1.2744,-1.2744,-1.3042,-1.3216,-1.3216,-1.3346,-1.3528,-1.37,-1.37,-1.3821,-1.401,-1.4079,-1.4219,-1.438,-1.4441,-1.4872,-1.5561,-1.5561,-1.5842,-1.6272,-1.5842,-1.563,-1.5559,-1.5497,-1.5568,-1.578,-1.578,-1.5921,-1.6202,0.0,0.0,0.0,0.0,0.0,0.0,0.0,0.0,0.0,0.0,-1.8982,-1.928,-1.9998,-2.0636,-2.0828,-2.0276,-2.0176,-1.9729,-1.8653,-1.8591,-1.833,-1.7707,-1.7636,-1.7349,-1.682,0.0,0.0,0.0,0.0,0.0,0.0,0.0,0.0,0.0,0.0,0.0,0.0,0.0,0.0,-1.4824,-1.5244,-1.5937,-1.6665,-1.6519,-1.6975,-1.7706,-1.7529,-1.7392,-1.717,-1.6711,-1.5947,-1.5081,-1.4262,-1.409,-1.397,-1.3287,-1.3138,-1.3077,-1.2617,-1.2463,-1.2414,-1.2154,-1.2077,0.0,-1.189,-1.1805,-1.1778,0.0,0.0,-1.1977,0.0,-1.2076,-1.2126,-1.1977,-1.1977,-1.1968,-1.202,-1.1933,-1.1855,-1.1688,-1.172,-1.1809,-1.199,-1.2113,-1.2392,-1.2716,-1.2964,-1.3042,-1.3111,-1.339,-1.3571,-1.3571,-1.3821,-1.401,-1.407,-1.407,-1.4088,-1.4192,-1.439,-1.466,-1.5041,-1.5166,-1.5515,-1.6093,-1.6093,-1.6183,-1.6342,-1.6342,-1.6272,-1.6132,-1.5938,-1.5929,-1.6132,-1.6132,-1.6202,-1.6412,-2.0688,0.0,0.0,0.0,0.0,0.0,0.0,0.0,0.0,-2.0457,-2.0773,-2.1032,-2.101,-2.1193,-2.1107,-2.086,-2.0849,-2.0546,-1.9792,-1.976,-1.9484,-1.8827,-1.8454,-1.8142,-1.8049,-1.7216,0.0,0.0,0.0,0.0,0.0,0.0,0.0,0.0,0.0,0.0,0.0,0.0,0.0,-1.4824,-1.5244,-1.5937,-1.6665,-1.6665,-1.705,-1.7706,-1.7647,-1.7588,-1.7347,-1.6505,-1.6147,-1.5864,-1.5043,-1.4572,-1.4326,-1.4165,-1.3927,-1.3632,-1.3556,-1.3527,-1.3474,-1.3421,-1.3167,0.0,-1.281,-1.2557,-1.2323,0.0,-1.2382,-1.2382,0.0,0.0,-1.2421,-1.2382,-1.2274,-1.2081,-1.1678,-1.1817,-1.1899,-1.1631,-1.1842,-1.1993,-1.1946,-1.2216,-1.2463,-1.2537,-1.3109,-1.3519,-1.3769,-1.389,-1.3881,-1.3881,-1.395,-1.4121,-1.441,-1.441,-1.4703,-1.528,-1.5341,-1.5557,-1.5942,-1.5942,-1.6159,-1.6503,-1.6503,-1.66,-1.676,-1.6612,-1.6403,-1.6272,-1.6211,-1.6202,-1.6272,-1.6272,-1.6482,-1.676,-2.1195,0.0,0.0,0.0,0.0,0.0,0.0,0.0,0.0,0.0,0.0,-2.1969,-2.2125,-2.2364,-2.2334,-2.194,-2.1929,-2.1474,-2.062,-2.0297,-2.0075,-1.9697,-1.917,-1.876,-1.8531,-1.7936,0.0,0.0,0.0,0.0,0.0,0.0,0.0,0.0,0.0,0.0,0.0,0.0,-1.47,-1.4824,-1.5244,0.0,-1.6665,-1.6665,-1.7191,-1.7862,-1.7862,-1.7725,-1.7455,-1.6541,-1.6192,-1.605,-1.5235,-1.4896,-1.4744,-1.4582,-1.4417,-1.426,-1.3994,-1.3882,-1.3882,-1.3828,-1.3451,0.0,0.0,-1.2824,-1.2578,-1.2578,-1.2676,-1.2764,-1.2764,0.0,-1.2852,-1.2764,-1.2666,-1.252,-1.2224,-1.2049,-1.1919,-1.1765,-1.1835,-1.1918,-1.2052,-1.224,-1.2504,-1.2937,-1.3433,-1.3821,-1.401,-1.4181,-1.433,-1.4547,-1.4729,-1.4995,-1.5312,-1.5321,-1.5548,-1.5889,-1.5889,-1.6107,-1.6523,-1.6523,-1.6751,-1.7013,-1.6936,-1.6989,-1.7038,-1.683,-1.6691,-1.6551,-1.6412,-1.6342,-1.6473,-1.6551,-1.676,-1.7038,-2.1498,0.0,0.0,0.0,0.0,0.0,0.0,0.0,0.0,0.0,0.0,0.0,-2.3099,-2.358,-2.3645,-2.3199,-2.3167,-2.2595,-2.1389,-2.0994,-2.0637,-2.0456,-1.9864,-1.9309,-1.9017,-1.8678,-1.8114,0.0,0.0,0.0,0.0,0.0,0.0,0.0,0.0,0.0,0.0,0.0,0.0,-1.4998,0.0,-1.5937,-1.6665,-1.6665,-1.7266,-1.8008,-1.8008,-1.7881,-1.7475,-1.6577,-1.6262,-1.6071,-1.5317,-1.5147,-1.5196,-1.4839,-1.4846,-1.4824,-1.4382,-1.4286,-1.4231,-1.4176,-1.3738,-1.3365,0.0,0.0,0.0,-1.2813,0.0,0.0,0.0,0.0,0.0,0.0,0.0,0.0,0.0,-1.2471,0.0,-1.2026,-1.1877,0.0,-1.2173,-1.2342,-1.2725,-1.3495,-1.3915,-1.413,-1.4189,-1.4419,-1.4782,-1.5207,-1.5463,-1.5775,-1.6256,-1.6256,-1.6303,-1.6443,-1.6443,-1.6682,-1.7111,-1.7111,-1.7293,-1.7529,-1.7382,-1.7189,-1.7055,-1.6927,-1.6789,-1.6729,-1.6524,-1.6542,-1.6751,-1.6899,-1.7107,-1.7373,-2.1346,-2.1336,0.0,0.0,0.0,0.0,0.0,0.0,0.0,0.0,0.0,0.0,-2.3646,-2.4093,-2.4377,-2.4323,-2.4323,-2.383,-2.2702,-2.2498,-2.2005,-2.0945,-2.0477,-2.0143,-2.009,-1.9263,-1.8574,0.0,0.0,0.0,0.0,0.0,0.0,0.0,-1.5866,0.0,0.0,0.0,-1.5359,0.0,-1.5459,-1.5937,0.0,-1.6665,-1.7266,-1.8008,-1.8008,-1.7764,-1.7373,0.0,-1.6403,-1.5994,-1.5508,-1.5362,-1.5342,-1.5293,-1.5342,-1.5332,-1.5283,-1.5264,-1.5273,-1.5466,-1.4844,-1.4222,-1.438,0.0,-1.3122,-1.3122,0.0,0.0,-1.317,0.0,0.0,0.0,0.0,0.0,-1.317,-1.2997,-1.2764,-1.248,-1.2323,-1.2194,0.0,-1.2748,-1.3406,-1.3968,-1.4366,-1.4715,-1.4852,-1.4911,-1.516,-1.5506,-1.5586,-1.5847,-1.6465,-1.6465,-1.6722,-1.7239,-1.7239,-1.7463,-1.7872,-1.7872,-1.7823,-1.7706,-1.7638,-1.7301,-1.6635,-1.6635,-1.6511,-1.6422,-1.6702,-1.6968,-1.7166,-1.7166,-1.7373,-1.7638,-2.1342,-2.1273,0.0,0.0,0.0,0.0,0.0,0.0,0.0,0.0,0.0,0.0,-2.4508,-2.476,-2.4891,-2.4891,-2.4891,-2.4596,-2.3841,-2.3178,-2.2668,-2.2193,-2.1328,-2.0732,-2.0454,-1.9991,-1.936,-1.8605,-1.8076,0.0,0.0,0.0,0.0,0.0,-1.6223,0.0,-1.6093,0.0,-1.5874,0.0,0.0,-1.639,0.0,-1.6826,-1.7266,-1.8008,-1.8008,-1.7744,-1.7314,0.0,-1.6436,0.0,0.0,0.0,-1.541,-1.541,-1.5478,-1.5546,-1.5546,-1.5604,-1.5661,-1.5479,-1.4929,-1.4443,-1.4254,-1.374,-1.3314,-1.3314,0.0,0.0,0.0,0.0,0.0,0.0,-1.3716,0.0,0.0,0.0,-1.3296,0.0,0.0,0.0,-1.248,0.0,0.0,-1.3838,-1.4467,-1.4911,-1.497,-1.5088,-1.5463,-1.6114,-1.6321,-1.6777,-1.7527,-1.7593,-1.7757,-1.7935,-1.7935,-1.7976,-1.8008,-1.8008,-1.794,-1.7862,-1.7774,-1.7408,-1.6892,-1.6769,-1.6646,-1.6598,-1.6766,-1.6971,-1.7235,-1.7442,-1.7647,-1.793,-2.1336,-2.1285,0.0,0.0,0.0,0.0,0.0,0.0,0.0,0.0,0.0,-2.4368,-2.5425,-2.5656,-2.587,-2.6003,-2.581,-2.5453,-2.4982,-2.4149,-2.3471,-2.3209,-2.2266,-2.1534,-2.1058,-2.0662,-2.0058,0.0,0.0,0.0,0.0,0.0,0.0,0.0,0.0,-1.6316,-1.6192,0.0,-1.6315,-1.6387,-1.6445,-1.6825,-1.7363,-1.7158,-1.7471,-1.8008,-1.8008,-1.7656,-1.7213,-1.6899,-1.6419,0.0,-1.5635,-1.5546,-1.5546,0.0,-1.5662,-1.573,-1.573,0.0,0.0,0.0,0.0,0.0,0.0,-1.3707,-1.3467,-1.3515,-1.3668,0.0,0.0,0.0,-1.4057,-1.402,0.0,-1.4057,0.0,-1.3915,0.0,0.0,0.0,0.0,0.0,0.0,-1.3792,-1.3951,-1.4609,-1.508,-1.5205,-1.5332,-1.578,-1.6636,-1.6918,-1.7461,-1.8337,-1.8405,-1.8414,-1.8269,-1.8269,-1.8144,-1.8008,-1.8008,-1.8008,-1.8008,-1.7736,-1.7378,-1.6908,-1.6607,-1.6561,-1.6665,-1.6731,-1.6987,-1.7442,-1.7716,-1.793,-1.8144,-2.1221,-2.1221,0.0,0.0,0.0,0.0,0.0,0.0,0.0,0.0,-2.4282,-2.5112,-2.6179,-2.6796,-2.7446,-2.7928,-2.7353,-2.6705,-2.629,-2.5535,-2.4683,-2.3744,-2.322,-2.2739,-2.228,-2.1341,-2.062,0.0,0.0,0.0,0.0,0.0,0.0,0.0,0.0,-1.6384,-1.6405,-1.6652,-1.6668,-1.6538,-1.6845,-1.7165,-1.7432,0.0,-1.7988,-1.8008,-1.8008,0.0,0.0,-1.6981,-1.6527,0.0,0.0,0.0,0.0,0.0,0.0,0.0,0.0,0.0,0.0,-1.5497,0.0,0.0,0.0,0.0,-1.361,0.0,-1.3763,-1.3821,-1.3973,-1.4093,-1.414,-1.402,-1.4093,0.0,0.0,0.0,0.0,0.0,0.0,0.0,0.0,-1.3611,-1.4072,-1.4526,-1.4944,-1.5339,-1.5652,-1.5798,-1.6198,-1.6941,-1.7106,-1.759,-1.8472,-1.8347,-1.8269,-1.8269,-1.8076,-1.8008,-1.8008,-1.8008,-1.8008,-1.7988,-1.7578,-1.7093,-1.6456,-1.6042,-1.5985,-1.6211,-1.6421,-1.7135,-1.8008,-1.8008,-1.8144,-1.8337,-2.1221,-2.1221,0.0,0.0,0.0,0.0,0.0,-2.3033,0.0,-2.4548,-2.5383,-2.6222,-2.6892,-2.7491,-2.7936,-2.8105,-2.7883,-2.7495,-2.7004,-2.6335,-2.5606,-2.4955,-2.3985,-2.3252,-2.2783,-2.2149,-2.1428,-2.062,0.0,0.0,0.0,0.0,0.0,0.0,0.0,-1.6539,0.0,0.0,0.0,0.0,0.0,-1.7733,-1.7812,0.0,-1.8076,-1.8162,-1.7876,-1.7466,0.0,-1.6767,-1.6337,-1.5914,-1.5914,-1.5914,-1.5914,-1.5914,-1.5961,-1.6009,0.0,0.0,-1.6146,-1.5684,0.0,0.0,0.0,0.0,0.0,0.0,0.0,0.0,-1.5035,-1.4925,-1.4757,-1.472,-1.4497,-1.4326,0.0,0.0,0.0,0.0,-1.3752,-1.3563,0.0,0.0,0.0,-1.4578,-1.4988,-1.5385,-1.5826,-1.5856,-1.6127,-1.6647,-1.7133,-1.7693,-1.8228,-1.8532,-1.8539,-1.8405,-1.8269,-1.8144,-1.8008,-1.8008,-1.7852,-1.7588,-1.7451,-1.6963,-1.6218,-1.6062,-1.603,-1.6185,-1.6674,-1.7199,-1.774,-1.8103,-1.8405,-1.8714,-2.1399,-2.1433,0.0,0.0,0.0,0.0,0.0,0.0,0.0,-2.5217,-2.6138,-2.6986,-2.7577,-2.8268,-2.8641,-2.8799,-2.8664,-2.8271,-2.7689,-2.693,-2.6268,-2.5532,-2.4653,-2.3929,-2.3274,-2.2805,-2.2084,-2.1123,0.0,-2.0063,0.0,0.0,0.0,0.0,0.0,-1.6539,-1.6829,-1.709,-1.7389,0.0,0.0,-1.8008,0.0,0.0,-1.8212,-1.8277,0.0,-1.753,-1.7223,-1.6769,-1.6394,-1.6087,-1.6087,-1.6087,-1.6087,-1.6087,-1.6134,-1.6181,-1.6181,-1.6363,0.0,-1.5904,-1.556,0.0,-1.4911,0.0,-1.4856,0.0,0.0,0.0,0.0,-1.5473,-1.5312,-1.5137,-1.4843,-1.458,0.0,-1.4326,-1.4269,-1.4269,-1.4046,-1.3821,0.0,-1.389,-1.4142,-1.445,-1.4907,-1.531,0.0,0.0,-1.6232,-1.6608,-1.7083,-1.7584,-1.8124,-1.8365,-1.8455,-1.8414,-1.8279,-1.8065,-1.7793,-1.7793,-1.7559,-1.7139,-1.6982,-1.6592,-1.6115,-1.5898,-1.5988,-1.6225,-1.6802,-1.7302,-1.7861,-1.8302,-1.8674,-1.9116,-2.187,-2.1984,0.0,0.0,-2.2765,0.0,0.0,0.0,-2.5054,-2.5699,-2.6549,-2.7334,-2.8287,-2.9118,-2.9722,-3.017,-2.9589,-2.901,-2.8423,-2.7581,-2.6623,-2.5577,-2.5348,-2.4727,-2.3787,-2.3285,-2.2564,-2.1592,0.0,0.0,0.0,0.0,0.0,0.0,-1.6754,0.0,-1.6477,-1.7357,-1.7512,-1.7309,-1.7809,-1.8144,-1.8269,-1.8337,-1.8337,-1.8287,-1.7971,-1.7721,-1.7461,-1.692,-1.6609,-1.6384,-1.6384,-1.6384,-1.6384,-1.6384,-1.6384,-1.6384,-1.6431,-1.6477,-1.6465,-1.6079,-1.6007,0.0,0.0,0.0,-1.5487,0.0,0.0,0.0,0.0,0.0,0.0,-1.5247,-1.5137,-1.4941,-1.4496,-1.4373,-1.4373,-1.4373,-1.415,-1.3962,-1.3821,-1.3821,-1.3962,-1.4273,-1.4718,-1.511,0.0,0.0,-1.6481,-1.6746,-1.6907,-1.7328,-1.8053,-1.792,-1.8011,-1.821,-1.8007,-1.7734,-1.7353,-1.7353,-1.7109,-1.668,-1.625,-1.6115,-1.6066,-1.5586,-1.5782,-1.6326,-1.6773,-1.7473,-1.8185,-1.8634,-1.9019,-1.9417,-2.2467,-2.2788,-2.3178,0.0,-2.3821,-2.4166,0.0,0.0,0.0,0.0,-2.7458,-2.8339,-2.8591,-2.9504,-3.0078,-3.0204,-2.969,-2.9186,-2.866,-2.789,-2.7082,-2.6311,-2.5769,-2.5062,-2.4301,-2.3798,-2.2903,-2.1592,-2.1461,0.0,-1.9878,0.0,0.0,0.0,0.0,0.0,-1.6853,-1.743,-1.7869,-1.8171,-1.8055,-1.8144,-1.8337,0.0,-1.8539,-1.8572,-1.7866,-1.7646,-1.7544,-1.675,-1.6477,-1.6384,-1.6384,-1.6384,-1.6384,-1.6384,-1.6384,-1.6431,-1.6534,-1.6581,-1.6606,-1.6546,-1.6305,-1.6073,0.0,0.0,0.0,0.0,0.0,0.0,0.0,0.0,0.0,-1.6175,-1.5563,-1.4941,-1.4496,-1.4373,-1.4373,-1.4373,-1.4337,-1.4233,-1.4129,-1.401,-1.4068,-1.4432,-1.4468,0.0,0.0,0.0,0.0,-1.6471,-1.6811,-1.709,-1.7266,-1.7367,-1.74,-1.75,-1.7189,-1.7002,-1.6894,-1.6894,-1.665,-1.623,-1.6113,-1.6009,-1.5772,-1.5654,-1.58,-1.6066,-1.6618,-1.7575,-1.8593,-1.9052,-1.9417,-1.9802,-2.2972,-2.3592,0.0,-2.4453,0.0,0.0,-2.5555,-2.6083,0.0,-2.6772,-2.7725,0.0,-2.8379,-2.9079,-2.955,-2.955,-2.9309,-2.893,-2.8425,-2.7934,-2.7307,-2.6655,-2.6046,-2.5418,-2.4508,-2.4203,-2.3351,-2.1909,-2.1691,0.0,-2.0435,0.0,0.0,0.0,0.0,-1.6519,-1.6798,-1.7267,-1.7873,-1.8482,-1.8144,-1.8144,0.0,-1.8482,-1.8674,-1.8818,-1.7924,-1.7668,-1.7595,-1.6684,-1.6384,-1.6384,-1.6384,-1.6384,-1.6384,-1.6384,-1.6431,-1.6477,-1.6581,-1.6684,-1.6797,-1.6853,-1.6772,-1.6644,-1.6699,-1.6754,-1.6798,0.0,-1.7082,-1.7278,0.0,0.0,0.0,-1.6557,-1.5902,-1.5247,-1.4766,-1.4701,-1.4613,-1.4406,-1.4373,-1.4373,-1.4269,-1.4104,-1.4031,-1.4188,-1.425,0.0,0.0,0.0,0.0,-1.6363,-1.6622,-1.6781,-1.6917,-1.6992,-1.7092,-1.7169,-1.6981,-1.6819,-1.6631,-1.6631,-1.6384,-1.6029,-1.6029,-1.5959,-1.5798,-1.5798,-1.5846,-1.606,-1.6742,-1.7653,-1.8606,-1.9137,-1.9619,-1.9987,-2.3464,-2.4326,0.0,0.0,0.0,0.0,0.0,-2.6565,0.0,-2.7174,0.0,-2.7977,-2.7977,-2.8413,-2.87,-2.87,-2.8643,-2.8425,-2.8012,-2.7729,-2.7239,-2.6655,-2.6313,-2.5705,-2.4508,-2.4486,-2.3777,-2.2313,-2.1832,0.0,0.0,0.0,0.0,0.0,0.0,0.0,0.0,-1.7022,-1.768,-1.8482,-1.8144,-1.8212,-1.8482,-1.8482,-1.8741,-1.8951,-1.8061,-1.7668,-1.7595,-1.6684,-1.6384,-1.6384,-1.6384,-1.6384,-1.6384,-1.6384,-1.6477,-1.657,-1.6637,-1.6797,-1.7011,-1.7011,-1.7145,-1.7278,-1.7278,-1.7278,-1.7278,-1.7278,-1.7334,-1.7334,0.0,0.0,0.0,0.0,0.0,0.0,-1.5269,-1.5203,-1.5017,-1.4526,-1.4471,0.0,-1.443,-1.415,-1.3962,-1.3821,-1.4042,0.0,0.0,0.0,0.0,-1.6363,-1.6384,-1.6502,-1.6765,0.0,-1.6849,-1.7061,-1.7061,-1.6798,-1.6417,-1.6417,-1.6217,-1.5914,-1.5914,-1.5914,-1.5972,-1.5972,-1.6077,-1.6269,-1.7036,-1.7754,-1.8412,-1.9149,-1.9734,-2.0149,-2.4568,0.0,0.0,0.0,0.0,-2.6611,-2.7024,-2.7093,-2.7128,-2.7219,-2.7667,-2.7977,-2.7977,-2.8413,-2.87,-2.87,-2.8333,-2.8069,-2.7989,-2.7421,-2.69,-2.6644,-2.6313,-2.5705,-2.4508,-2.4486,-2.3777,-2.2313,-2.1832,0.0,0.0,0.0,0.0,0.0,0.0,0.0,-1.7308,-1.7223,0.0,-1.8347,-1.8076,-1.8212,-1.8482,-1.8482,-1.8741,-1.8951,-1.8061,-1.7668,-1.7595,-1.6684,-1.6384,-1.6384,-1.6384,-1.6384,-1.6384,-1.6384,-1.6477,-1.6637,-1.6751,-1.6853,-1.7011,-1.7211,-1.7278,-1.7278,-1.7278,-1.7278,-1.7278,-1.7278,-1.7379,-1.7479,-1.7479,0.0,0.0,0.0,0.0,0.0,0.0,-1.5655,-1.552,-1.5028,-1.4985,-1.4821,-1.4417,-1.415,-1.3973,-1.3973,0.0,0.0,0.0,0.0,0.0,0.0,-1.6384,0.0,0.0,0.0,-1.6277,-1.629,-1.6194,-1.6105,-1.6035,-1.6035,-1.5984,-1.5914,-1.5914,-1.6039,-1.6316,-1.6316,-1.6488,-1.6747,-1.7445,-1.7856,-1.8196,-1.9276,-1.9963,-2.0409,-2.4866,0.0,0.0,0.0,0.0,0.0,0.0,-2.7231,-2.7231,-2.7231,-2.7438,-2.7598,-2.7598,-2.7805,-2.7931,-2.7931,-2.7725,-2.7598,-2.7598,-2.7193,-2.6809,-2.6644,-2.6313,-2.5705,-2.4508,-2.4486,-2.3897,-2.2673,-2.1942,0.0,0.0,0.0,0.0,0.0,0.0,-1.6968,0.0,0.0,0.0,-1.8269,-1.8076,-1.8212,-1.8482,-1.8482,-1.8741,-1.8951,-1.8061,-1.7668,-1.7595,-1.6684,-1.6384,-1.6384,-1.6384,-1.6384,-1.6384,-1.6384,-1.6534,-1.6694,-1.6751,-1.6976,-1.72,-1.7278,-1.7278,-1.7278,-1.7278,-1.7323,-1.7379,-1.7379,-1.7479,-1.759,-1.759,-1.759,0.0,0.0,0.0,0.0,0.0,0.0,-1.5924,-1.5192,-1.5105,-1.4919,-1.4474,-1.4233,0.0,0.0,0.0,0.0,0.0,0.0,0.0,0.0,0.0,0.0,0.0,0.0,0.0,-1.6249,-1.6202,-1.6144,-1.6144,-1.6144,-1.6202,-1.6249,-1.6249,-1.6363,-1.6591,-1.6591,-1.6772,-1.7065,-1.7416,-1.7663,-1.8,-1.9216,-1.9829,-2.0125,0.0,-2.5899,0.0,0.0,-2.6955,-2.7231,-2.7231,-2.7231,-2.7231,-2.7231,-2.7231,-2.7231,-2.7231,-2.7231,-2.7231,-2.7231,-2.7231,-2.7231,-2.7231,-2.6974,-2.6809,-2.6644,-2.6313,-2.5623,-2.4508,-2.4486,-2.4006,-2.3001,-2.2051,0.0,0.0,0.0,0.0,0.0,0.0,0.0,0.0,0.0,-1.8015,-1.8202,-1.8076,-1.8212,-1.8482,-1.8482,-1.8741,-1.8951,-1.7998,-1.7668,-1.7595,-1.6684,-1.6384,-1.6384,-1.6384,-1.6384,-1.6384,-1.6384,-1.6602,-1.6818,-1.6818,-1.7043,-1.7278,-1.7278,-1.7278,-1.7278,-1.7278,-1.7379,-1.7523,-1.7523,-1.7645,-1.7755,-1.7767,-1.7767,0.0,0.0,0.0,0.0,0.0,0.0,-1.6328,-1.5378,-1.5258,-1.5028,-1.4439,0.0,0.0,0.0,0.0,0.0,-1.505,0.0,0.0,0.0,0.0,-1.6488,-1.6488,0.0,-1.6488,-1.6488,-1.6488,-1.6488,-1.6488,-1.6488,-1.6534,-1.6637,-1.6637,-1.6751,-1.6931,-1.6987,-1.7155,-1.739,-1.7434,-1.7668,-1.8081,-1.9321,-1.9889,-2.0168,0.0,0.0,0.0,0.0,0.0,-2.7231,-2.7231,-2.7231,-2.7231,-2.7231,-2.7231,-2.7231,-2.7231,-2.7231,-2.7231,-2.7231,-2.7231,-2.7231,-2.7231,-2.6809,-2.6644,-2.6644,-2.6146,-2.5459,-2.4508,-2.4486,-2.4006,-2.3001,-2.1908,-2.1231,0.0,0.0,0.0,0.0,0.0,0.0,0.0,-1.7885,-1.7949,-1.8008,-1.8008,-1.8144,-1.8337,-1.8482,-1.8617,-1.8762,-1.7998,-1.7668,-1.7595,-1.6684,-1.6384,-1.6384,-1.6384,-1.6384,-1.6384,-1.6384,-1.6602,-1.6818,-1.6818,-1.7043,-1.7278,-1.7278,-1.7278,-1.7278,-1.7278,-1.7379,-1.7523,-1.7523,-1.7689,-1.7909,-1.803,-1.7963,-1.7854,0.0,0.0,0.0,0.0,0.0,-1.6841,-1.5829,-1.572,-1.54,-1.4471,-1.428,0.0,0.0,-1.4057,0.0,0.0,0.0,0.0,-1.6729,0.0,-1.6761,-1.6761,-1.6761,-1.6761,-1.6761,-1.6761,-1.6761,-1.6761,-1.6761,-1.6761,-1.6751,-1.6751,-1.6987,-1.7278,-1.7545,-1.7656,-1.7656,-1.7799,-1.8248,-1.8896,-1.9634,-2.0476,-2.1308,0.0,0.0,0.0,0.0,0.0,0.0,0.0,-2.7231,-2.7231,-2.7231,-2.7231,-2.7231,-2.7231,-2.7231,-2.7231,-2.7231,-2.7231,-2.7231,-2.7231,-2.6809,-2.6644,-2.6644,-2.587,-2.5153,-2.4497,-2.4192,-2.3689,0.0,-2.1836,0.0,0.0,0.0,0.0,0.0,0.0,-1.7917,-1.7916,-1.8045,-1.8121,-1.8008,-1.8008,-1.8144,-1.8337,-1.8482,-1.8617,-1.8726,-1.8286,-1.7957,-1.7575,-1.6995,-1.6601,-1.6384,-1.6384,-1.6384,-1.6384,-1.6384,-1.6602,-1.6818,-1.6818,-1.7043,-1.7278,-1.7278,-1.7278,-1.7334,-1.7379,-1.7534,-1.7645,-1.7744,-1.7909,-1.803,-1.8084,-1.7963,-1.7854,-1.7711,0.0,0.0,0.0,0.0,0.0,-1.5905,-1.5785,-1.5454,-1.4471,-1.4373,0.0,0.0,0.0,0.0,0.0,0.0,0.0,-1.6797,0.0,-1.6945,-1.7211,-1.7211,-1.735,-1.7637,-1.735,-1.7211,-1.7201,-1.6935,-1.6931,-1.7099,-1.7267,-1.7434,-1.7545,-1.7755,-1.7865,-1.7986,-1.8139,-1.8626,-1.9317,-2.0038,-2.0794,-2.15,-2.637,0.0,-2.7231,0.0,-2.7231,-2.7231,-2.7231,-2.7231,-2.7231,-2.7231,-2.7231,-2.7231,-2.7231,-2.7231,-2.7231,-2.7231,-2.7231,-2.7231,-2.7231,-2.6809,-2.6644,-2.6644,-2.5672,0.0,-2.4497,-2.3995,-2.3493,-2.3001,-2.1977,0.0,0.0,0.0,0.0,0.0,-1.826,-1.8208,-1.8117,-1.8218,-1.8212,-1.8008,-1.8008,-1.8076,-1.8212,-1.8414,-1.8617,-1.868,-1.8482,-1.8102,-1.7606,-1.7142,-1.6746,-1.6384,-1.6384,-1.6384,-1.6384,-1.6384,-1.6602,-1.6818,-1.6818,-1.7043,-1.7278,-1.7278,-1.7278,-1.7323,-1.7479,-1.759,-1.7767,-1.7909,-1.8018,-1.8084,-1.803,-1.7963,-1.7854,-1.7645,0.0,0.0,0.0,-1.7278,0.0,-1.5905,-1.5785,-1.5454,-1.4471,-1.4504,0.0,0.0,0.0,0.0,0.0,0.0,0.0,0.0,0.0,0.0,-1.7781,-1.7781,-1.8019,-1.8495,-1.8159,-1.7997,-1.7975,-1.7662,-1.7625,-1.7864,-1.8148,-1.8306,-1.8306,-1.8519,-1.8642,-1.8753,-1.8975,-1.9403,-2.0094,-2.074,-2.1375,-2.2005,-2.637,-2.6875,-2.7231,-2.7231,-2.7231,-2.7231,-2.7231,-2.7231,-2.7231,-2.7231,-2.7231,-2.7231,-2.7231,-2.7231,-2.7231,-2.7231,-2.7231,-2.7231,-2.7231,-2.6809,-2.6644,0.0,0.0,-2.4956,-2.4497,-2.3995,-2.3493,-2.3001,0.0,0.0,-2.0956,0.0,-1.9054,-1.9054,-1.8865,-1.8674,-1.8472,-1.8337,-1.8212,-1.8008,-1.8008,-1.8008,-1.8008,-1.8347,-1.8482,-1.8489,-1.8417,-1.8102,-1.7606,-1.7142,-1.6746,-1.6384,-1.6384,-1.6384,-1.6384,-1.6384,-1.6602,-1.6818,-1.6818,-1.7043,-1.7278,-1.7278,-1.7278,-1.7323,-1.7479,-1.759,-1.7767,-1.803,-1.8084,-1.8084,-1.7909,-1.7897,-1.7799,-1.7523,0.0,0.0,0.0,-1.7278,0.0,-1.5905,-1.5785,-1.5454,-1.4471,-1.481,0.0,0.0,0.0,0.0,0.0,0.0,0.0,-1.7457,-1.7468,0.0,-1.8497,-1.8497,-1.8697,-1.919,-1.9179,-1.9179,-1.9179,-1.9179,-1.9168,-1.9168,-1.9513,-1.969,-1.969,-2.0053,-2.0181,-2.0181,-2.0447,-2.0933,-2.1403,-2.1736,-2.2377,-2.3065,-2.629,-2.66,-2.6818,-2.7162,-2.7231,-2.7231,-2.7231,-2.7231,-2.7231,-2.7231,-2.7231,-2.7231,-2.7231,-2.7231,-2.7231,0.0,-2.7231,-2.7231,0.0,-2.6809,-2.6644,-2.6644,-2.5374,-2.4639,-2.4486,-2.3656,-2.3154,-2.3001,0.0,0.0,0.0,-1.9422,-1.9075,-1.9075,-1.8875,-1.8674,-1.8482,-1.8337,-1.8212,-1.8008,-1.8008,-1.8076,-1.8212,-1.8414,-1.8617,-1.8721,-1.8843,-1.8557,-1.8112,-1.7667,-1.7212,-1.6777,-1.6477,-1.6384,-1.6384,-1.6384,-1.6602,-1.6818,-1.6818,-1.7043,-1.7278,-1.7278,-1.7278,-1.739,-1.759,-1.781,-1.7986,-1.8084,-1.8084,-1.8084,-1.7909,-1.7854,-1.77,-1.7523,-1.7423,0.0,-1.6809,0.0,-1.6404,-1.5454,-1.5669,-1.5714,-1.5064,-1.5548,0.0,0.0,0.0,0.0,0.0,0.0,0.0,0.0,-1.798,0.0,-1.8944,-1.9269,-1.9683,-2.0198,-1.984,-1.9504,-1.919,-1.9417,-1.9536,-1.9536,-1.9901,-2.0065,-2.0181,-2.0413,-2.0529,-2.0701,-2.0885,-2.1272,-2.1807,-2.2089,-2.2555,-2.3138,-2.5761,-2.6198,-2.6565,-2.6887,-2.7105,-2.7231,-2.7231,-2.7231,-2.7231,-2.7231,-2.7231,-2.7231,-2.7231,-2.7231,0.0,-2.7231,-2.7231,-2.7231,-2.7231,-2.6809,-2.6644,-2.6644,-2.5231,-2.4486,-2.4486,-2.3504,0.0,-2.3001,-2.2144,-2.1163,-2.0006,-1.9541,-1.9241,-1.9075,-1.8875,-1.8741,-1.8617,-1.8405,-1.8212,-1.8144,-1.8008,-1.8144,-1.8337,-1.8482,-1.8617,-1.8808,-1.9008,-1.8775,-1.8319,-1.7885,-1.7368,-1.6904,-1.6519,-1.6384,-1.6384,-1.6384,-1.6602,-1.6818,-1.6818,-1.7043,-1.7278,-1.7278,-1.7278,-1.739,-1.7656,-1.7865,-1.803,-1.8084,-1.8084,-1.7975,-1.7854,-1.77,-1.759,-1.7423,-1.7159,-1.6885,-1.6557,0.0,-1.6085,0.0,0.0,0.0,0.0,-1.6199,-1.6604,0.0,0.0,0.0,0.0,0.0,0.0,-1.7755,-1.8306,-1.8872,-1.9369,-1.9844,-2.0341,-2.0914,-2.0574,-2.0318,-2.0034,-2.0338,-2.047,-2.0519,-2.0842,-2.1021,-2.1187,-2.1293,-2.147,-2.1645,-2.1774,-2.2114,-2.2471,-2.2694,-2.3027,-2.345,-2.49,-2.5693,-2.6381,0.0,-2.6864,0.0,-2.7219,-2.7231,-2.7231,-2.7231,-2.7231,-2.7231,-2.7231,-2.7231,-2.7231,-2.7231,0.0,0.0,0.0,-2.6809,-2.6644,-2.6644,-2.5231,-2.4486,-2.4486,-2.3504,-2.3001,-2.2927,-2.2144,-2.1229,-2.041,-1.9975,-1.9588,-1.9075,-1.8875,-1.8808,-1.8808,-1.8472,-1.8337,-1.8269,-1.8076,-1.8144,-1.8337,-1.8482,-1.8617,-1.8808,-1.9008,-1.8796,-1.8361,-1.7885,-1.7389,-1.6946,-1.6529,-1.6384,-1.6384,-1.6384,-1.6591,-1.6818,-1.6818,-1.7043,-1.7278,-1.7278,-1.7334,-1.739,-1.7656,-1.781,-1.7909,-1.803,-1.7963,-1.7854,-1.77,-1.759,-1.7468,-1.7279,-1.683,-1.6492,-1.6426,-1.6137,-1.5963,0.0,0.0,0.0,-1.6367,-1.6778,-1.7123,0.0,0.0,0.0,0.0,0.0,-1.781,-1.7897,-1.851,-1.9079,-1.9748,-2.0205,-2.0761,-2.1233,-2.1336,-2.1388,-2.1463,-2.1624,-2.1812,-2.1925,-2.2123,-2.2309,-2.2482,-2.2678,-2.286,-2.2969,-2.3078,-2.3271,-2.3463,-2.3569,-2.376,-2.3949,0.0,0.0,-2.5532,-2.6324,-2.6565,-2.6783,-2.7174,-2.7231,-2.7231,-2.7231,-2.7231,-2.7231,-2.7231,-2.7231,-2.7231,-2.7231,-2.7231,-2.7231,-2.7231,-2.6809,-2.6644,-2.6644,-2.5231,-2.4486,-2.4486,-2.3504,-2.2852,-2.2553,-2.1997,-2.1229,-2.041,-1.9975,-1.9588,-1.9075,-1.9065,-1.8942,-1.8808,-1.8741,-1.8539,-1.8269,-1.8269,-1.8269,-1.8337,-1.8482,-1.8617,-1.8808,-1.9008,-1.9003,-1.8785,-1.7999,-1.7657,-1.7429,-1.6632,-1.6384,-1.6384,-1.6384,-1.6534,-1.6694,-1.6751,-1.692,-1.7134,-1.7267,-1.7379,-1.7479,-1.7534,-1.7645,-1.7767,-1.7822,-1.7755,-1.77,-1.759,-1.7523,-1.7291,-1.6754,-1.659,-1.6273,-1.5653,-1.5505,-1.5526,0.0,-1.6036,-1.652,-1.6967,-1.7508,-1.7912,0.0,0.0,0.0,0.0,-1.8398,-1.8356,-1.8302,-1.9239,-1.982,-2.0006,-2.093,-2.1444,-2.1561,-2.1624,-2.1624,-2.1624,-2.1949,-2.2073,-2.2123,-2.2555,-2.2787,-2.2957,-2.315,-2.333,-2.345,-2.345,-2.3509,-2.3569,-2.3878,-2.3995,-2.4112,-2.4533,-2.4763,-2.5164,-2.598,-2.6313,-2.6634,-2.7151,-2.7231,-2.7231,-2.7231,-2.7231,-2.7231,-2.7231,-2.7231,-2.7231,-2.7231,-2.7231,-2.7231,-2.7231,-2.6809,-2.6644,-2.6644,-2.5231,-2.4486,-2.4486,-2.3504,-2.2777,-2.2402,-2.2147,-2.1555,-2.0731,-2.0276,-1.982,-1.9375,-1.9235,-1.9075,-1.8942,-1.8808,-1.8607,-1.8414,-1.8337,-1.8269,-1.8337,-1.8482,-1.8617,-1.8808,-1.9008,-1.893,-1.8651,-1.7968,-1.7533,-1.7295,-1.6601,-1.6384,-1.6384,-1.6384,-1.6477,-1.6637,-1.6694,-1.6853,-1.7067,-1.7267,-1.7323,-1.7423,-1.7468,-1.759,-1.7656,-1.7711,-1.7645,-1.759,-1.7523,-1.7423,-1.7203,-1.6601,-1.6381,-1.6038,-1.5372,-1.5207,-1.5314,-1.586,-1.6241,-1.6809,-1.7668,-1.8043,-1.8302,-1.8464,-1.8464,0.0,-1.8614,-1.8679,-1.8625,-1.8518,-1.9514,-2.0111,-2.0111,-2.1169,-2.1698,-2.1698,-2.1761,-2.1824,-2.1949,-2.2185,-2.2432,-2.2604,-2.2896,-2.3138,-2.3318,-2.3582,-2.37,-2.3806,-2.391,-2.3969,-2.4099,-2.4274,-2.4345,-2.4332,-2.42,-2.4522,-2.4969,-2.5497,-2.6014,-2.6519,-2.7036,-2.7174,-2.7231,-2.7231,-2.7231,-2.7231,-2.7231,-2.7162,-2.7116,-2.7116,-2.7047,-2.707,-2.7219,-2.6809,-2.6517,-2.6449,-2.5198,-2.4454,-2.4377,-2.3471,-2.2777,-2.2402,-2.2402,-2.1934,-2.1104,-2.0638,-2.0193,-1.9806,-1.9282,-1.9075,-1.9075,-1.8942,-1.8674,-1.8482,-1.8405,-1.8269,-1.8269,-1.8414,-1.8617,-1.8808,-1.9008,-1.8775,-1.8319,-1.7885,-1.7368,-1.6904,-1.6519,-1.6384,-1.6384,-1.6384,-1.6477,-1.6581,-1.6581,-1.6786,-1.7011,-1.7211,-1.7278,-1.7334,-1.7423,-1.7479,-1.7479,-1.7601,-1.7534,-1.7479,-1.7479,-1.7379,-1.7092,-1.6503,-1.6181,-1.582,-1.5326,0.0,-1.5368,-1.6298,-1.6642,-1.7168,-1.8274,-1.8422,-1.8476,-1.8614,-1.8614,-1.8614,-1.8667,-1.8786,-1.8798,-1.8667,-1.9639,-2.0205,-2.0287,-2.1195,-2.1608,-2.1537,-2.1782,-2.1942,-2.2139,-2.2384,-2.2714,-2.3138,-2.3198,-2.3378,-2.3688,-2.3936,-2.4054,-2.4171,-2.4305,-2.4421,-2.462,-2.462,-2.462,-2.4677,-2.42,-2.4258,-2.4464,-2.4946,-2.5474,-2.6003,-2.6508,-2.6955,-2.7231,-2.7231,-2.7231,-2.7231,-2.7231,-2.6841,-2.6588,-2.6588,-2.6186,-2.6313,-2.7174,-2.6809,-2.6371,-2.5957,-2.501,-2.429,-2.3853,-2.3296,-2.2777,-2.2402,-2.2402,-2.1934,-2.1104,-2.0638,-2.0193,-1.9806,-1.9282,-1.9075,-1.9075,-1.9075,-1.8808,-1.8482,-1.8482,-1.8279,-1.8076,-1.8414,-1.8549,-1.8617,-1.8942,-1.8775,-1.8319,-1.7885,-1.7368,-1.6904,-1.6519,-1.6384,-1.6384,-1.6384,-1.6431,-1.6488,-1.6581,-1.6786,-1.7011,-1.7011,-1.7145,-1.7334,-1.7334,-1.7334,-1.7334,-1.7334,-1.7334,-1.7334,-1.7334,-1.7334,-1.7038,-1.6221,-1.6001,-1.5748,-1.506,0.0,-1.5836,-1.6505,-1.7116,-1.7717,-1.8309,-1.8518,-1.8625,-1.8744,-1.8744,-1.8851,-1.8934,-1.9064,-1.9117,-1.9117,-2.0045,-2.0768,-2.1212,-2.138,-2.1248,-2.0758,-2.1355,-2.1692,-2.1704,-2.2565,-2.3017,-2.3138,-2.3688,-2.3995,-2.4054,-2.4332,-2.4505,-2.4505,-2.4563,-2.4563,-2.462,-2.4734,-2.4835,-2.4948,-2.42,-2.42,-2.4349,-2.4832,-2.5119,-2.5463,-2.598,-2.6255,-2.6416,-2.6416,-2.6416,-2.6416,-2.6416,-2.6209,-2.606,-2.606,-2.5764,-2.5755,-2.6211,-2.5926,-2.5654,-2.5271,-2.4491,-2.3842,-2.334,-2.3036,-2.2703,-2.2402,-2.2327,-2.1996,-2.1476,-2.0762,-2.0317,-2.0089,-1.9385,-1.9075,-1.9075,-1.9075,-1.8942,-1.8684,-1.8549,-1.8347,-1.8212,-1.8414,-1.8482,-1.8519,-1.8664,-1.8413,-1.7957,-1.7451,-1.7067,-1.6653,-1.6446,-1.6384,-1.6384,-1.6384,-1.6384,-1.6431,-1.6581,-1.6684,-1.6797,-1.6955,-1.7078,-1.7145,-1.7278,-1.7278,-1.7278,-1.7278,-1.7278,-1.7278,-1.7278,-1.7379,-1.7192,-1.6539,-1.6573,0.0,-1.5822,-1.5973,-1.6425,-1.7081,-1.741,-1.7862,-1.8536,-1.8679,-1.8786,-1.9011,-1.9023,-1.9064,-1.921,-1.9263,-1.9328,-1.9328,-1.9989,-2.0645,-2.1192,-2.1192,-2.1071,-2.0827,-2.1421,-2.1795,-2.1984,-2.2767,-2.3318,-2.3628,-2.3995,-2.4229,-2.439,-2.462,-2.4734,-2.4734,-2.4892,-2.4892,-2.4948,-2.5131,-2.5201,-2.5257,-2.4127,-2.4116,-2.4169,-2.4522,-2.4694,-2.4899,-2.531,-2.5481,-2.5549,-2.5549,-2.5549,-2.5549,-2.5549,-2.5447,-2.5378,-2.5378,-2.5111,-2.4966,-2.4889,-2.4735,-2.4637,-2.467,-2.3897,-2.3383,-2.3012,-2.2777,-2.2628,-2.2402,-2.2176,-2.1973,-2.1631,-2.0803,-2.0369,-2.0234,-1.9427,-1.9075,-1.9075,-1.9075,-1.9008,-1.8808,-1.8549,-1.8414,-1.8337,-1.8482,-1.8482,-1.8489,-1.8417,-1.8102,-1.7606,-1.7142,-1.6746,-1.6384,-1.6384,-1.6384,-1.6384,-1.6384,-1.6384,-1.6431,-1.6524,-1.6581,-1.6627,-1.6842,-1.6955,-1.7011,-1.72,-1.7278,-1.7278,-1.7278,-1.7278,-1.7334,-1.7323,-1.7423,-1.7379,-1.6966,0.0,-1.7013,0.0,-1.6615,-1.6996,-1.7566,-1.7757,-1.8096,-1.8762,-1.8851,-1.897,-1.917,-1.9223,-1.9275,-1.9368,-1.942,-1.9473,-1.946,-1.9937,-2.0373,-2.079,-2.079,-2.0729,-2.0662,-2.1395,-2.189,-2.2146,-2.2942,-2.3628,-2.4112,-2.4229,-2.4447,-2.4677,-2.4835,-2.4905,-2.4962,-2.5188,-2.53,-2.53,-2.5439,-2.5494,-2.555,-2.3897,-2.3751,-2.3689,-2.3722,-2.4104,-2.4419,-2.4453,-2.4857,-2.5161,-2.5161,-2.5161,-2.5161,-2.5161,-2.4745,-2.4464,-2.4464,-2.4048,-2.3631,-2.3483,-2.3408,-2.3619,-2.4094,-2.3479,-2.3045,-2.3001,-2.2777,-2.2628,-2.2402,-2.2176,-2.1805,-2.1155,-2.0659,-2.0203,-1.9789,-1.9292,-1.9075,-1.9075,-1.9075,-1.9008,-1.8808,-1.8549,-1.8414,-1.8337,-1.8482,-1.8482,-1.8489,-1.8417,-1.8102,-1.7606,-1.7142,-1.6746,-1.6384,-1.6384,-1.6384,-1.6384,-1.6384,-1.6384,-1.6384,-1.6431,-1.6534,-1.657,-1.6627,-1.6797,-1.7011,-1.7011,-1.7145,-1.7278,-1.7278,-1.7278,-1.7323,-1.7479,-1.7468,-1.7423,-1.7221,0.0,0.0,-1.6642,-1.7025,-1.7399,-1.7601,-1.8166,-1.8578,-1.8798,-1.9011,-1.9182,-1.9182,-1.9328,-1.9368,-1.942,-1.9512,-1.9656,-1.9747,-2.0044,-2.0244,-2.0281,-2.0281,-2.0035,-1.9556,-2.0877,-2.1543,-2.165,-2.3257,-2.4054,-2.4112,-2.4563,-2.4835,-2.5005,-2.5118,-2.53,-2.5439,-2.5494,-2.5494,-2.5494,-2.5494,-2.5592,-2.5729,-2.3897,-2.3751,-2.3593,-2.3593,-2.375,-2.3873,-2.3873,-2.4041,-2.4164,-2.4164,-2.4164,-2.4164,-2.4164,-2.3996,-2.3873,-2.3873,-2.3631,-2.3372,-2.3298,-2.315,-2.3238,-2.3435,-2.3174,-2.3001,-2.3001,-2.2703,-2.2478,-2.2402,-2.2101,-2.1645,-2.1104,-2.0638,-2.0193,-1.9806,-1.9282,-1.9075,-1.9075,-1.9075,-1.9075,-1.8942,-1.8741,-1.8674,-1.8607,-1.8684,-1.8684,-1.8649,-1.8119,-1.7874,-1.7564,-1.6881,-1.6519,-1.6384,-1.6384,-1.6384,-1.6384,-1.6384,-1.6384,-1.6384,-1.6384,-1.6431,-1.6534,-1.6694,-1.6807,-1.692,-1.7145,-1.7267,-1.7278,-1.7278,-1.7379,-1.7423,-1.7468,-1.7634,-1.7743,-1.7659,0.0,-1.7687,-1.7546,-1.779,-1.8065,-1.8225,-1.8507,-1.8798,-1.8893,-1.9064,-1.9223,-1.9328,-1.9473,-1.9565,-1.9656,-1.9772,-1.9875,-1.9926,-2.0076,-2.0137,-2.0097,-2.0097,-2.0037,-1.9888,-2.0828,-2.1549,-2.2115,-2.3085,-2.3932,-2.4563,-2.4778,-2.5005,-2.5118,-2.53,-2.5439,-2.5494,-2.5592,-2.5633,-2.5633,-2.5798,-2.5907,-2.5948,-2.3717,-2.3519,-2.3372,-2.3372,-2.3372,-2.3372,-2.3372,-2.3372,-2.3372,-2.3372,-2.3372,-2.3372,-2.3372,-2.3372,-2.3372,-2.3372,-2.3298,-2.3224,-2.3224,-2.3075,-2.3001,-2.3001,-2.3001,-2.3001,-2.3001,-2.2628,-2.2402,-2.2402,-2.2035,-2.1487,-2.0886,-2.0576,-2.011,-1.9599,-1.921,-1.9075,-1.9075,-1.9075,-1.9075,-1.9065,-1.8875,-1.8808,-1.8808,-1.8808,-1.8808,-1.8696,-1.7987,-1.7668,-1.7595,-1.6684,-1.6384,-1.6384,-1.6384,-1.6431,-1.6488,-1.6488,-1.6488,-1.6545,-1.6545,-1.6545,-1.6545,-1.6694,-1.6807,-1.692,-1.7145,-1.7267,-1.7334,-1.7323,-1.7423,-1.7523,-1.7634,-1.7799,-1.7897,-1.7963,-1.803,-1.8084,-1.8084,-1.8247,-1.8476,-1.856,-1.8732,-1.8851,-1.9052,-1.917,-1.9328,-1.9473,-1.9617,-1.9708,-1.9862,-1.9926,-2.0042,-2.0042,-2.0131,-2.0182,-2.0144,-2.0093,-2.0131,-2.0195,-2.0874,-2.1562,-2.2179,-2.305,-2.3827,-2.4579,-2.4924,-2.5174,-2.5342,-2.5536,-2.5592,-2.5647,-2.5784,-2.5839,-2.5839,-2.6056,-2.6165,-2.6179,-2.3198,-2.315,-2.3001,-2.3001,-2.3001,-2.3001,-2.3001,-2.3001,-2.3001,-2.3001,-2.3001,-2.3001,-2.3001,-2.3001,-2.3001,-2.3001,-2.3001,-2.3001,-2.3001,-2.3001,-2.3001,-2.3001,-2.3001,-2.3001,-2.3001,-2.2628,-2.2402,-2.2402,-2.2025,-2.1331,-2.042,-2.042,-1.9934,-1.9075,-1.9075,-1.9075,-1.9075,-1.9075,-1.9075,-1.9065,-1.8875,-1.8808,-1.8808,-1.8808,-1.8808,-1.8696,-1.7998,-1.7668,-1.7595,-1.6684,-1.6384,-1.6384,-1.6384,-1.6477,-1.657,-1.657,-1.6694,-1.6818,-1.6818,-1.6818,-1.6751,-1.6637,-1.6786,-1.7011,-1.7011,-1.7145,-1.7323,-1.7479,-1.7523,-1.7579,-1.7854,-1.7897,-1.7963,-1.8084,-1.8084,-1.8084,-1.8084,-1.8259,-1.8476,-1.8572,-1.8732,-1.8905,-1.917,-1.9328,-1.9473,-1.9617,-1.9708,-1.9862,-1.999,-1.999,-2.0042,-2.0182,-2.0182,-2.0296,-2.0511,-2.0296,-2.0182,-2.0246,-2.1069,-2.1511,-2.1551,-2.3137,-2.3959,-2.415,-2.4859,-2.5384,-2.5729,-2.5729,-2.5784,-2.5893,-2.6056,-2.6111,-2.6111,-2.6233,-2.6286,-2.634,-2.3198,-2.315,-2.3001,-2.3001,-2.3001,-2.3001,-2.3001,-2.3001,-2.3001,-2.3001,-2.3001,-2.3001,-2.3001,-2.3001,-2.3001,-2.3001,-2.3001,-2.3001,-2.3001,-2.3001,-2.3001,-2.3001,-2.3001,-2.3001,-2.3001,-2.2628,-2.2402,-2.2402,-2.1701,-2.101,-2.042,-2.01,-1.9644,-1.9075,-1.9075,-1.9075,-1.9075,-1.9075,-1.9075,-1.9065,-1.8998,-1.9008,-1.9008,-1.9008,-1.9008,-1.8885,-1.7998,-1.7668,-1.7595,-1.678,-1.6524,-1.6581,-1.6648,-1.6705,-1.6751,-1.6751,-1.6761,-1.6818,-1.6818,-1.6864,-1.6955,-1.6899,-1.6955,-1.7011,-1.72,-1.7312,-1.7423,-1.7468,-1.7634,-1.7799,-1.7909,-1.7963,-1.803,-1.8084,-1.8084,-1.815,-1.8313,-1.8464,-1.8572,-1.8732,-1.8839,-1.8999,-1.917,-1.9328,-1.9473,-1.9617,-1.9708,-1.9862,-1.999,-2.008,-2.0246,-2.0398,-2.0498,-2.0599,-2.0662,-2.0511,-2.0511,-2.0675,-2.0959,-2.1387,-2.1912,-2.2531,-2.3309,-2.4286,-2.4735,-2.523,-2.5729,-2.5784,-2.5893,-2.6056,-2.6056,-2.6165,-2.6286,-2.6365,-2.6418,-2.6472,-2.3091,-2.3075,-2.3001,-2.3001,-2.3001,-2.3001,-2.3001,-2.3001,-2.3001,-2.3001,-2.3001,-2.3001,-2.3001,-2.3001,-2.3001,-2.3001,-2.3001,-2.3001,-2.3001,-2.3001,-2.3001,-2.3001,-2.3001,-2.3001,-2.3001,-2.2703,-2.2478,-2.2402,-2.1639,-2.0949,-2.041,-1.9975,-1.9588,-1.9075,-1.9075,-1.9075,-1.9075,-1.9075,-1.9075,-1.9075,-1.9075,-1.9075,-1.9075,-1.9075,-1.9075,-1.8951,-1.8061,-1.7668,-1.7595,-1.6838,-1.6637,-1.6694,-1.6751,-1.6864,-1.6853,-1.6853,-1.692,-1.6987,-1.6987,-1.7088,-1.7179,-1.7179,-1.7179,-1.7245,-1.7368,-1.7479,-1.759,-1.7634,-1.7799,-1.7909,-1.7963,-1.803,-1.8139,-1.8205,-1.8205,-1.8302,-1.8464,-1.8572,-1.8679,-1.8798,-1.8958,-1.9105,-1.9275,-1.942,-1.9512,-1.9656,-1.9811,-1.9926,-2.0093,-2.0233,-2.0398,-2.0562,-2.0662,-2.0712,-2.0775,-2.0675,-2.0738,-2.0901,-2.0974,-2.1295,-2.1816,-2.2196,-2.2852,-2.3771,-2.4191,-2.4808,-2.5528,-2.5582,-2.5844,-2.6165,-2.6272,-2.6312,-2.6379,-2.6539,-2.6645,-2.675,-2.2815,-2.3001,-2.3001,-2.3001,-2.3001,-2.3001,-2.3001,-2.3001,-2.3001,-2.3001,-2.3001,-2.3001,-2.3001,-2.3001,-2.3001,-2.3001,-2.3001,-2.3001,-2.3001,-2.3001,-2.3001,-2.3001,-2.3001,-2.3001,-2.3001,-2.2777,-2.2606,-2.2339,-2.1723,-2.1031,-2.0358,-1.9972,-1.9547,-1.9142,-1.9142,-1.9075,-1.9075,-1.9075,-1.9075,-1.9075,-1.9075,-1.9075,-1.9075,-1.9075,-1.9075,-1.8951,-1.8061,-1.7668,-1.7595,-1.6838,-1.6694,-1.6807,-1.6807,-1.692,-1.7011,-1.7011,-1.7145,-1.7278,-1.7334,-1.7423,-1.7523,-1.7523,-1.7523,-1.7523,-1.7523,-1.7645,-1.7755,-1.7854,-1.7909,-1.7963,-1.8084,-1.8139,-1.8193,-1.8367,-1.8422,-1.8464,-1.8614,-1.8732,-1.8798,-1.8851,-1.9064,-1.9275,-1.942,-1.9565,-1.9656,-1.9798,-1.9926,-2.0042,-2.0182,-2.0398,-2.0562,-2.0699,-2.0699,-2.0775,-2.0901,-2.0951,-2.0938,-2.0938,-2.1095,-2.1277,-2.1437,-2.2128,-2.26,-2.293,-2.3515,-2.4297,-2.519,-2.519,-2.5664,-2.6326,-2.6457,-2.651,-2.6578,-2.6765,-2.6899,-2.7003,-2.2815,-2.3001,-2.3001,-2.3001,-2.3001,-2.3001,-2.3001,-2.3001,-2.3001,-2.3001,-2.3001,-2.3001,-2.3001,-2.3001,-2.3001,-2.3001,-2.3001,-2.3001,-2.3001,-2.3001,-2.3001,-2.3001,-2.3001,-2.3001,-2.3001,-2.2777,-2.2519,-2.2069,-2.1392,-2.0794,-2.0318,-1.9718,-1.9368,-1.9274,-1.9142,-1.9075,-1.9075,-1.9075,-1.9075,-1.9075,-1.9075,-1.9075,-1.9075,-1.9075,-1.9075,-1.8951,-1.8061,-1.7668,-1.7595,-1.6953,-1.6931,-1.7166,-1.7166,-1.7211,-1.7211,-1.7211,-1.7278,-1.7334,-1.7423,-1.7479,-1.7534,-1.7645,-1.7755,-1.7799,-1.77,-1.7755,-1.7854,-1.7909,-1.7963,-1.8084,-1.8313,-1.8313,-1.8356,-1.8518,-1.856,-1.8614,-1.8744,-1.8798,-1.8851,-1.9064,-1.9182,-1.9275,-1.9512,-1.9656,-1.9747,-1.9798,-1.9926,-2.0042,-2.0182,-2.0398,-2.0562,-2.0699,-2.0775,-2.0888,-2.0901,-2.1059,-2.1144,-2.1144,-2.118,-2.1326,-2.1568,-2.1835,-2.2297,-2.2902,-2.3238,-2.4091,-2.519,-2.5294,-2.5807,-2.6457,-2.651,-2.6592,-2.6765,-2.6884,-2.7003,-2.7055,-2.2815,-2.3001,-2.3001,-2.3001,-2.3001,-2.3001,-2.3001,-2.3001,-2.3001,-2.3001,-2.3001,-2.3001,-2.3001,-2.3001,-2.3001,-2.3001,-2.3001,-2.3001,-2.3001,-2.3001,-2.3001,-2.3001,-2.3001,-2.2903,-2.2684,-2.2527,-2.2323,-2.198,-2.1231,-2.0631,-2.0307,-1.9695,-1.9417,-1.9285,-1.9208,-1.9142,-1.9075,-1.9075,-1.9075,-1.9075,-1.9075,-1.9075,-1.9075,-1.9075,-1.9075,-1.8951,-1.8061,-1.7511,-1.7242,-1.6931,-1.7043,-1.7278,-1.7278,-1.7278,-1.7278,-1.7278,-1.7278,-1.7334,-1.7479,-1.7534,-1.7645,-1.7755,-1.792,-1.7963,-1.781,-1.792,-1.8018,-1.8018,-1.803,-1.8139,-1.8367,-1.8422,-1.8476,-1.8679,-1.8679,-1.8732,-1.8893,-1.8958,-1.9011,-1.917,-1.9328,-1.9473,-1.9656,-1.9759,-1.9911,-2.0188,-2.0422,-2.0641,-2.1014,-2.1004,-2.1016,-2.1156,-2.097,-2.0938,-2.1059,-2.1144,-2.1229,-2.1277,-2.1375,-2.152,-2.1712,-2.1841,-2.2164,-2.2662,-2.2805,-2.3672,-2.4969,-2.502,-2.5704,-2.6645,-2.6645,-2.6765,-2.6899,-2.6951,-2.7107,-2.7248,-2.2586,-2.2761,-2.2761,-2.2761,-2.2761,-2.2783,-2.287,-2.2881,-2.2914,-2.299,-2.3001,-2.3001,-2.3001,-2.3001,-2.3001,-2.3001,-2.3001,-2.3001,-2.3001,-2.3001,-2.3001,-2.3001,-2.2925,-2.2706,-2.2324,-2.2149,-2.198,-2.1815,-2.1036,-2.0547,-2.0258,-1.9863,-1.955,-1.9407,-1.9351,-1.9274,-1.9131,-1.9131,-1.9142,-1.9075,-1.9075,-1.9075,-1.9075,-1.9075,-1.9075,-1.8961,-1.8143,-1.7434,-1.6924,-1.6839,-1.7043,-1.7278,-1.7278,-1.7278,-1.7278,-1.7278,-1.7334,-1.7379,-1.7479,-1.7645,-1.7755,-1.7909,-1.803,-1.8084,-1.7963,-1.803,-1.8084,-1.8084,-1.8139,-1.8193,-1.8422,-1.8476,-1.853,-1.8798,-1.8851,-1.8893,-1.8999,-1.9117,-1.9223,-1.9275,-1.946,-1.9656,-1.9798,-1.9886,-2.015,-2.068,-2.1049,-2.1465,-2.1941,-2.1757,-2.1668,-2.1719,-2.127,-2.1116,-2.118,-2.1229,-2.1277,-2.1423,-2.1568,-2.1712,-2.1793,-2.1949,-2.2137,-2.2417,-2.2417,-2.3298,-2.4681,-2.4731,-2.5582,-2.6832,-2.6832,-2.6899,-2.7055,-2.7055,-2.7248,-2.7488,-2.1669,-2.1778,-2.1778,-2.1778,-2.1778,-2.192,-2.2346,-2.2411,-2.2553,-2.2947,-2.3001,-2.3001,-2.3001,-2.3001,-2.3001,-2.3001,-2.3001,-2.3001,-2.3001,-2.3001,-2.3001,-2.3001,-2.2619,-2.2379,-2.2313,-2.1483,-2.1057,-2.1046,-2.0926,-2.0586,-2.0107,-1.9965,-1.9868,-1.9802,-1.9615,-1.9473,-1.9274,-1.9274,-1.9208,-1.9075,-1.9075,-1.9075,-1.9075,-1.9075,-1.9075,-1.9003,-1.8475,-1.7904,-1.736,-1.6956,-1.7043,-1.7278,-1.7278,-1.7278,-1.7278,-1.7278,-1.7379,-1.7479,-1.7645,-1.7755,-1.7909,-1.803,-1.8084,-1.8084,-1.8084,-1.8084,-1.8084,-1.8084,-1.8259,-1.8422,-1.8572,-1.8679,-1.8798,-1.8946,-1.8999,-1.8999,-1.917,-1.9182,-1.9275,-1.9512,-1.9656,-1.9798,-1.9798,-2.025,-2.0683,-2.0866,-2.146,-2.1889,-2.2143,-2.22,-2.2101,-2.1719,-2.173,-2.1603,-2.118,-2.1326,-2.1423,-2.1568,-2.1712,-2.1793,-2.1793,-2.1949,-2.2137,-2.2417,-2.2509,-2.3392,-2.4731,-2.4843,-2.5697,-2.6951,-2.6951,-2.7041,-2.7181,-2.7299,-2.7503,-2.774,-2.1494,-2.1592,-2.1592,-2.1592,-2.1592,-2.1658,-2.1876,-2.1909,-2.1985,-2.2182,-2.2215,-2.2215,-2.2215,-2.2455,-2.2619,-2.2619,-2.2848,-2.3001,-2.3001,-2.2761,-2.2619,-2.2619,-2.216,-2.1778,-2.1505,-2.1079,-2.0729,-2.0456,-2.0456,-2.0358,-2.0085,-2.0009,-1.9933,-1.9868,-1.9802,-1.9671,-1.9473,-1.9351,-1.9285,-1.9208,-1.9131,-1.9142,-1.9208,-1.9208,-1.9274,-1.9312,-1.8575,-1.8012,-1.7562,-1.707,-1.7088,-1.7278,-1.7278,-1.7278,-1.7278,-1.7278,-1.7379,-1.7534,-1.7656,-1.781,-1.7897,-1.8084,-1.8084,-1.8084,-1.8084,-1.8084,-1.8084,-1.8084,-1.8259,-1.8422,-1.856,-1.8679,-1.8851,-1.8999,-1.8987,-1.9052,-1.917,-1.9275,-1.942,-1.9656,-1.9759,-1.9924,-2.025,-2.062,-2.1078,-2.1779,-2.2257,-2.2708,-2.3114,-2.3054,-2.2773,-2.2339,-2.2137,-2.177,-2.134,-2.1423,-2.1568,-2.1616,-2.1793,-2.1902,-2.1949,-2.2137,-2.2324,-2.2537,-2.3019,-2.3803,-2.478,-2.529,-2.6104,-2.7003,-2.7093,-2.7181,-2.7335,-2.7437,-2.764,-2.779]}]]